Darstellungsparameter: Aktuell verwendete Einstellungen:
Skalierung der Graphiken ... ?
xyx+y,   Skalierungsfaktor:      Skalierung: Modus: x, Faktor: 1
Darstellungszeitraum ... ?
Vom - - bis: - -   Zeitraum: 02.12.2019 - 31.12.2019
Min/Max/Avg-Anzeige ... ?
Zeige MMA aktuell
Zeige MMA Monat
Zeige MMA alles
Zeige --A aktuell
Zeige --A Monat
Zeige --A alles
Keine MMA-Anzeige
MMA:
Minimum Maximum Average (ber die Originaldaten)
MMA-Basis: 02.12.2019 - 31.12.2019
Quicknavigation für Darstellung... ?
Tage:      1T, 2T, 3T, 5T -1T -2T -3T -5T +1T +2T +3T +5T
Wochen: 1W, 2W, 3W -1W -2W -3W +1W +2W +3W
Monate: 1M, 3M, 6M -1M -3M -6M +1M +3M +6M
Jahre:    1J, 3J, 5J, 10J -1J -3J -5J -10J +1J +3J +5J +10J
Nutze für die Darstellung ... ?
Originaldaten oder Mittelwerte auf ...
Stundenbasis Tagesbasis Wochenbasis
Monatsbasis Jahresbasis      Datenbasis: Original-Daten
Darstellen als:
Statistik (Auto) Statistik J:M      Darstellung:
Zur Graphik,    zurück zur Übersicht aller Sensoren.
 
Tabellarische Datenbersicht: ?
 
Sensor: Nr:Datum:Temp:Feuchte:
Aussen-T/F 1 02-12-2019 00:00:17 0.1 C 33 %
2 02-12-2019 00:10:17 0.2 C 33 %
3 02-12-2019 00:20:17 0.3 C 32 %
4 02-12-2019 00:30:17 0.3 C 32 %
5 02-12-2019 00:40:17 0.2 C 32 %
6 02-12-2019 00:50:18 0.2 C 35 %
7 02-12-2019 01:00:17 0.1 C 36 %
8 02-12-2019 01:10:17 0 C 38 %
9 02-12-2019 01:20:17 -0.2 C 36 %
10 02-12-2019 01:30:17 0.2 C 34 %
11 02-12-2019 01:40:17 -0.2 C 35 %
12 02-12-2019 01:50:17 -0.9 C 35 %
13 02-12-2019 02:00:18 -0.9 C 37 %
14 02-12-2019 02:10:18 -0.9 C 37 %
15 02-12-2019 02:20:17 -0.5 C 37 %
16 02-12-2019 02:30:17 -1 C 36 %
17 02-12-2019 02:40:17 -1.1 C 37 %
18 02-12-2019 02:50:17 -1.1 C 36 %
19 02-12-2019 03:00:17 -1 C 37 %
20 02-12-2019 03:10:17 -1.2 C 38 %
21 02-12-2019 03:20:17 -1.3 C 37 %
22 02-12-2019 03:30:18 -1.3 C 38 %
23 02-12-2019 03:40:18 -1.4 C 37 %
24 02-12-2019 03:50:17 -1.4 C 37 %
25 02-12-2019 04:00:18 -1.7 C 39 %
Sensor: Nr:Datum:Temp:Feuchte:
Aussen-T/F 26 02-12-2019 04:10:18 -1.4 C 40 %
27 02-12-2019 04:20:17 -1.1 C 40 %
28 02-12-2019 04:30:17 -1 C 40 %
29 02-12-2019 04:40:17 -0.8 C 36 %
30 02-12-2019 04:50:17 -1.1 C 37 %
31 02-12-2019 05:00:17 -1.4 C 40 %
32 02-12-2019 05:10:17 -1.1 C 40 %
33 02-12-2019 05:20:17 -1.2 C 39 %
34 02-12-2019 05:30:17 -1.6 C 40 %
35 02-12-2019 05:40:17 -1.4 C 41 %
36 02-12-2019 05:50:17 -1.3 C 42 %
37 02-12-2019 06:00:17 -1.2 C 41 %
38 02-12-2019 06:10:17 -1.3 C 39 %
39 02-12-2019 06:20:17 -1.2 C 39 %
40 02-12-2019 06:30:17 -1.4 C 38 %
41 02-12-2019 06:40:17 -1.4 C 40 %
42 02-12-2019 06:50:17 -1.8 C 37 %
43 02-12-2019 07:00:17 -2.4 C 38 %
44 02-12-2019 07:10:17 -2.6 C 40 %
45 02-12-2019 07:20:17 -2.9 C 40 %
46 02-12-2019 07:30:17 -2.7 C 42 %
47 02-12-2019 07:40:17 -2.6 C 42 %
48 02-12-2019 07:50:17 -2.4 C 43 %
49 02-12-2019 08:00:17 -1.9 C 45 %
50 02-12-2019 08:10:18 -1.6 C 44 %
Sensor: Nr:Datum:Temp:Feuchte:
Aussen-T/F 51 02-12-2019 08:20:17 -1.3 C 44 %
52 02-12-2019 08:30:17 -1 C 43 %
53 02-12-2019 08:40:17 -0.7 C 43 %
54 02-12-2019 08:50:17 -0.5 C 42 %
55 02-12-2019 09:00:17 -0.5 C 40 %
56 02-12-2019 09:10:17 -0.4 C 38 %
57 02-12-2019 09:20:17 -0.4 C 36 %
58 02-12-2019 09:30:17 -0.4 C 36 %
59 02-12-2019 09:40:17 0 C 36 %
60 02-12-2019 09:50:17 0 C 35 %
61 02-12-2019 10:00:17 0.1 C 35 %
62 02-12-2019 10:10:17 0.1 C 34 %
63 02-12-2019 10:20:17 0.2 C 35 %
64 02-12-2019 10:30:17 0.5 C 36 %
65 02-12-2019 10:40:17 1 C 31 %
66 02-12-2019 10:50:17 0.8 C 31 %
67 02-12-2019 11:00:17 1.2 C 30 %
68 02-12-2019 11:10:17 1.1 C 30 %
69 02-12-2019 11:20:17 1.2 C 30 %
70 02-12-2019 11:30:17 0.9 C 31 %
71 02-12-2019 11:40:18 1 C 31 %
72 02-12-2019 11:50:17 0.8 C 32 %
73 02-12-2019 12:00:18 1.6 C 31 %
74 02-12-2019 12:10:18 2.3 C 27 %
75 02-12-2019 12:20:17 2.8 C 25 %
Sensor: Nr:Datum:Temp:Feuchte:
Aussen-T/F 76 02-12-2019 12:30:17 3.1 C 26 %
77 02-12-2019 12:40:17 3 C 25 %
78 02-12-2019 12:50:18 3.2 C 26 %
79 02-12-2019 13:00:17 3.2 C 26 %
80 02-12-2019 13:10:17 3.5 C 25 %
81 02-12-2019 13:20:17 3.9 C 25 %
82 02-12-2019 13:30:17 3.9 C 25 %
83 02-12-2019 13:40:17 3.8 C 25 %
84 02-12-2019 13:50:17 3.6 C 25 %
85 02-12-2019 14:00:17 4 C 26 %
86 02-12-2019 14:10:17 3.7 C 28 %
87 02-12-2019 14:20:17 3.7 C 30 %
88 02-12-2019 14:30:17 4.1 C 27 %
89 02-12-2019 14:40:17 4.3 C 27 %
90 02-12-2019 14:50:17 4.5 C 27 %
91 02-12-2019 15:00:18 4.3 C 28 %
92 02-12-2019 15:10:18 4.3 C 29 %
93 02-12-2019 15:20:17 4.7 C 27 %
94 02-12-2019 15:30:17 4.4 C 27 %
95 02-12-2019 15:40:17 4.1 C 31 %
96 02-12-2019 15:50:17 3.9 C 36 %
97 02-12-2019 16:00:18 3.7 C 37 %
98 02-12-2019 16:10:18 3.6 C 37 %
99 02-12-2019 16:20:17 3.5 C 40 %
100 02-12-2019 16:30:17 3.5 C 38 %
Sensor: Nr:Datum:Temp:Feuchte:
Aussen-T/F 101 02-12-2019 16:40:17 3.5 C 35 %
102 02-12-2019 16:50:17 3.5 C 35 %
103 02-12-2019 17:00:17 3.3 C 36 %
104 02-12-2019 17:10:17 3.2 C 39 %
105 02-12-2019 17:20:17 3.2 C 36 %
106 02-12-2019 17:30:18 3.3 C 36 %
107 02-12-2019 17:40:18 3.4 C 35 %
108 02-12-2019 17:50:17 3.3 C 35 %
109 02-12-2019 18:01:17 3.1 C 36 %
110 02-12-2019 18:11:17 3.2 C 37 %
111 02-12-2019 18:21:17 3.2 C 36 %
112 02-12-2019 18:30:17 3 C 36 %
113 02-12-2019 18:40:17 2.5 C 40 %
114 02-12-2019 18:50:17 2.2 C 40 %
115 02-12-2019 19:00:17 2.1 C 42 %
116 02-12-2019 19:10:17 2.7 C 43 %
117 02-12-2019 19:21:17 2.7 C 42 %
118 02-12-2019 19:30:17 2.7 C 41 %
119 02-12-2019 19:40:17 2.9 C 42 %
120 02-12-2019 19:51:17 2.9 C 42 %
121 02-12-2019 20:01:17 2.9 C 39 %
122 02-12-2019 20:11:17 2.8 C 38 %
123 02-12-2019 20:21:17 2.9 C 37 %
124 02-12-2019 20:31:17 2.9 C 38 %
125 02-12-2019 20:40:17 2.8 C 40 %
Sensor: Nr:Datum:Temp:Feuchte:
Aussen-T/F 126 02-12-2019 20:51:17 2.7 C 42 %
127 02-12-2019 21:00:17 2.7 C 42 %
128 02-12-2019 21:10:17 2.7 C 42 %
129 02-12-2019 21:21:17 2.7 C 42 %
130 02-12-2019 21:30:18 2.7 C 42 %
131 02-12-2019 21:40:18 2.6 C 41 %
132 02-12-2019 21:51:17 2.6 C 42 %
133 02-12-2019 22:01:17 2.6 C 41 %
134 02-12-2019 22:11:17 2.6 C 41 %
135 02-12-2019 22:21:17 2.6 C 41 %
136 02-12-2019 22:30:18 2.5 C 40 %
137 02-12-2019 22:40:18 2.5 C 41 %
138 02-12-2019 22:51:17 2.4 C 41 %
139 02-12-2019 23:01:17 2.5 C 41 %
140 02-12-2019 23:11:17 2.4 C 42 %
141 02-12-2019 23:21:17 2.5 C 42 %
142 02-12-2019 23:31:17 2.5 C 42 %
143 02-12-2019 23:41:17 2.5 C 42 %
144 02-12-2019 23:50:18 2.5 C 42 %
145 03-12-2019 00:01:17 2.5 C 42 %
146 03-12-2019 00:11:17 2.5 C 42 %
147 03-12-2019 00:21:17 2.5 C 41 %
148 03-12-2019 00:30:18 2.5 C 41 %
149 03-12-2019 00:40:18 2.6 C 41 %
150 03-12-2019 00:51:17 2.6 C 41 %
Sensor: Nr:Datum:Temp:Feuchte:
Aussen-T/F 151 03-12-2019 01:01:18 2.6 C 41 %
152 03-12-2019 01:11:18 2.6 C 41 %
153 03-12-2019 01:21:17 2.7 C 41 %
154 03-12-2019 01:31:17 2.7 C 41 %
155 03-12-2019 01:41:17 2.7 C 42 %
156 03-12-2019 01:51:17 2.7 C 42 %
157 03-12-2019 02:01:17 2.7 C 42 %
158 03-12-2019 02:11:17 2.8 C 42 %
159 03-12-2019 02:21:17 2.8 C 42 %
160 03-12-2019 02:31:17 2.8 C 42 %
161 03-12-2019 02:41:17 2.9 C 42 %
162 03-12-2019 02:51:17 2.8 C 42 %
163 03-12-2019 03:01:17 2.8 C 42 %
164 03-12-2019 03:11:17 2.8 C 42 %
165 03-12-2019 03:21:17 2.8 C 42 %
166 03-12-2019 03:31:17 2.9 C 42 %
167 03-12-2019 03:41:17 3 C 42 %
168 03-12-2019 03:51:17 3 C 42 %
169 03-12-2019 04:01:17 3 C 42 %
170 03-12-2019 04:11:17 3 C 42 %
171 03-12-2019 04:21:17 3 C 42 %
172 03-12-2019 04:31:17 3.1 C 42 %
173 03-12-2019 04:41:17 3.1 C 42 %
174 03-12-2019 04:51:17 3.1 C 42 %
175 03-12-2019 05:01:17 3.1 C 42 %
Sensor: Nr:Datum:Temp:Feuchte:
Aussen-T/F 176 03-12-2019 05:11:17 3.1 C 42 %
177 03-12-2019 05:21:17 3.1 C 42 %
178 03-12-2019 05:31:17 3.2 C 42 %
179 03-12-2019 05:41:17 3.2 C 41 %
180 03-12-2019 05:51:17 3.2 C 41 %
181 03-12-2019 06:01:18 3.2 C 41 %
182 03-12-2019 06:11:18 3.2 C 41 %
183 03-12-2019 06:21:17 3.2 C 41 %
184 03-12-2019 06:31:17 3.3 C 41 %
185 03-12-2019 06:41:17 3.3 C 41 %
186 03-12-2019 06:51:18 3.3 C 41 %
187 03-12-2019 07:01:17 3.3 C 41 %
188 03-12-2019 07:11:17 3.3 C 41 %
189 03-12-2019 07:21:17 3.3 C 41 %
190 03-12-2019 07:31:17 3.2 C 41 %
191 03-12-2019 07:41:17 3.3 C 41 %
192 03-12-2019 07:51:17 3.3 C 42 %
193 03-12-2019 08:01:17 3.3 C 42 %
194 03-12-2019 08:11:17 3.4 C 42 %
195 03-12-2019 08:21:17 3.3 C 42 %
196 03-12-2019 08:31:17 3.4 C 42 %
197 03-12-2019 08:41:17 3.4 C 41 %
198 03-12-2019 08:51:17 3.4 C 41 %
199 03-12-2019 09:01:17 3.5 C 42 %
200 03-12-2019 09:11:17 3.5 C 42 %
Sensor: Nr:Datum:Temp:Feuchte:
Aussen-T/F 201 03-12-2019 09:21:17 3.5 C 41 %
202 03-12-2019 09:31:17 3.6 C 41 %
203 03-12-2019 09:41:17 3.6 C 41 %
204 03-12-2019 09:51:17 3.7 C 41 %
205 03-12-2019 10:01:17 3.7 C 41 %
206 03-12-2019 10:11:17 3.8 C 41 %
207 03-12-2019 10:21:17 3.8 C 41 %
208 03-12-2019 10:31:17 3.8 C 41 %
209 03-12-2019 10:41:17 4.1 C 40 %
210 03-12-2019 10:51:17 4.1 C 40 %
211 03-12-2019 11:01:18 4.3 C 39 %
212 03-12-2019 11:11:18 4.3 C 37 %
213 03-12-2019 11:21:17 4.4 C 37 %
214 03-12-2019 11:31:17 4.6 C 37 %
215 03-12-2019 11:41:17 4.6 C 37 %
216 03-12-2019 11:51:17 4.7 C 37 %
217 03-12-2019 12:01:17 4.7 C 37 %
218 03-12-2019 12:11:17 4.9 C 35 %
219 03-12-2019 12:21:17 5 C 34 %
220 03-12-2019 12:31:17 5 C 35 %
221 03-12-2019 12:41:17 5.2 C 35 %
222 03-12-2019 12:51:18 5.3 C 34 %
223 03-12-2019 13:01:17 5.6 C 34 %
224 03-12-2019 13:11:17 5.8 C 33 %
225 03-12-2019 13:21:17 5.8 C 32 %
Sensor: Nr:Datum:Temp:Feuchte:
Aussen-T/F 226 03-12-2019 13:31:17 5.7 C 32 %
227 03-12-2019 13:41:17 5.9 C 32 %
228 03-12-2019 13:51:18 6.1 C 31 %
229 03-12-2019 14:01:17 6.1 C 31 %
230 03-12-2019 14:11:17 6.2 C 31 %
231 03-12-2019 14:21:17 6.1 C 31 %
232 03-12-2019 14:31:17 6.3 C 31 %
233 03-12-2019 14:41:17 6.2 C 30 %
234 03-12-2019 14:51:18 6.4 C 31 %
235 03-12-2019 15:01:17 6.2 C 30 %
236 03-12-2019 15:11:17 6.3 C 31 %
237 03-12-2019 15:21:17 6.3 C 31 %
238 03-12-2019 15:31:17 6.2 C 31 %
239 03-12-2019 15:41:17 6.1 C 32 %
240 03-12-2019 15:51:17 6 C 33 %
241 03-12-2019 16:01:17 5.7 C 36 %
242 03-12-2019 16:11:17 5.6 C 39 %
243 03-12-2019 16:21:17 5.4 C 40 %
244 03-12-2019 16:31:18 5.3 C 41 %
245 03-12-2019 16:41:18 5.2 C 41 %
246 03-12-2019 16:51:17 5.2 C 41 %
247 03-12-2019 17:01:18 5.1 C 41 %
248 03-12-2019 17:11:18 5.1 C 41 %
249 03-12-2019 17:21:17 5.1 C 41 %
250 03-12-2019 17:31:17 5 C 41 %
Sensor: Nr:Datum:Temp:Feuchte:
Aussen-T/F 251 03-12-2019 17:41:17 5 C 41 %
252 03-12-2019 17:51:17 5 C 41 %
253 03-12-2019 18:01:18 4.8 C 41 %
254 03-12-2019 18:11:18 4.7 C 40 %
255 03-12-2019 18:21:17 4.7 C 40 %
256 03-12-2019 18:31:18 4.7 C 40 %
257 03-12-2019 18:41:18 4.7 C 40 %
258 03-12-2019 18:51:17 4.7 C 40 %
259 03-12-2019 19:01:17 4.7 C 40 %
260 03-12-2019 19:11:17 4.6 C 39 %
261 03-12-2019 19:21:17 4.6 C 38 %
262 03-12-2019 19:31:17 4.6 C 38 %
263 03-12-2019 19:41:17 4.4 C 37 %
264 03-12-2019 19:51:17 4.3 C 38 %
265 03-12-2019 20:01:17 4.3 C 39 %
266 03-12-2019 20:11:17 4.3 C 38 %
267 03-12-2019 20:21:18 4.2 C 37 %
268 03-12-2019 20:31:17 4.2 C 38 %
269 03-12-2019 20:41:18 4.1 C 39 %
270 03-12-2019 20:51:17 3.9 C 40 %
271 03-12-2019 21:01:17 3.9 C 41 %
272 03-12-2019 21:11:17 4 C 40 %
273 03-12-2019 21:21:17 4 C 40 %
274 03-12-2019 21:31:17 3.8 C 40 %
275 03-12-2019 21:41:17 3.5 C 40 %
Sensor: Nr:Datum:Temp:Feuchte:
Aussen-T/F 276 03-12-2019 21:51:17 3.3 C 40 %
277 03-12-2019 22:01:17 2.9 C 41 %
278 03-12-2019 22:11:17 2.8 C 42 %
279 03-12-2019 22:21:18 2.8 C 42 %
280 03-12-2019 22:31:18 3.3 C 42 %
281 03-12-2019 22:41:18 3.5 C 40 %
282 03-12-2019 22:51:17 3.2 C 38 %
283 03-12-2019 23:01:18 2.6 C 39 %
284 03-12-2019 23:11:18 2.5 C 41 %
285 03-12-2019 23:21:17 2.5 C 41 %
286 03-12-2019 23:31:17 2.2 C 40 %
287 03-12-2019 23:41:17 2.8 C 40 %
288 03-12-2019 23:51:17 2.6 C 38 %
289 04-12-2019 00:01:18 2.3 C 39 %
290 04-12-2019 00:11:18 1.7 C 41 %
291 04-12-2019 00:21:17 1.3 C 42 %
292 04-12-2019 00:31:17 0.9 C 43 %
293 04-12-2019 00:41:17 0.4 C 43 %
294 04-12-2019 00:51:17 0.6 C 45 %
295 04-12-2019 01:01:18 0.2 C 44 %
296 04-12-2019 01:11:18 0.2 C 45 %
297 04-12-2019 01:21:17 0 C 44 %
298 04-12-2019 01:31:17 -0.1 C 45 %
299 04-12-2019 01:41:17 0.1 C 45 %
300 04-12-2019 01:51:18 -0.3 C 45 %
Sensor: Nr:Datum:Temp:Feuchte:
Aussen-T/F 301 04-12-2019 02:01:17 -0.3 C 45 %
302 04-12-2019 02:11:17 -0.2 C 45 %
303 04-12-2019 02:21:17 -0.5 C 45 %
304 04-12-2019 02:31:18 -0.4 C 45 %
305 04-12-2019 02:41:18 0.1 C 45 %
306 04-12-2019 02:51:17 0.3 C 45 %
307 04-12-2019 03:01:18 0.6 C 45 %
308 04-12-2019 03:11:18 0.9 C 45 %
309 04-12-2019 03:21:17 0.9 C 45 %
310 04-12-2019 03:31:17 1 C 44 %
311 04-12-2019 03:41:17 1 C 44 %
312 04-12-2019 03:51:17 1 C 44 %
313 04-12-2019 04:01:18 0.8 C 45 %
314 04-12-2019 04:11:18 0.9 C 45 %
315 04-12-2019 04:21:17 0.8 C 45 %
316 04-12-2019 04:31:17 0.8 C 45 %
317 04-12-2019 04:41:17 0.8 C 45 %
318 04-12-2019 04:51:17 0.8 C 45 %
319 04-12-2019 05:01:17 0.8 C 45 %
320 04-12-2019 05:11:17 0.8 C 44 %
321 04-12-2019 05:21:17 0.8 C 44 %
322 04-12-2019 05:31:17 1 C 43 %
323 04-12-2019 05:41:17 1 C 43 %
324 04-12-2019 05:51:18 1 C 43 %
325 04-12-2019 06:01:17 1 C 43 %
Sensor: Nr:Datum:Temp:Feuchte:
Aussen-T/F 326 04-12-2019 06:11:17 1.1 C 43 %
327 04-12-2019 06:21:17 1.2 C 43 %
328 04-12-2019 06:31:17 1.2 C 43 %
329 04-12-2019 06:41:18 1.2 C 43 %
330 04-12-2019 06:51:17 1.2 C 43 %
331 04-12-2019 07:01:17 1.1 C 43 %
332 04-12-2019 07:11:17 1.1 C 43 %
333 04-12-2019 07:21:18 1.1 C 43 %
334 04-12-2019 07:31:17 1 C 43 %
335 04-12-2019 07:41:17 0.9 C 44 %
336 04-12-2019 07:51:17 1 C 43 %
337 04-12-2019 08:01:17 0.9 C 44 %
338 04-12-2019 08:11:17 0.9 C 44 %
339 04-12-2019 08:21:17 0.9 C 44 %
340 04-12-2019 08:31:17 0.9 C 44 %
341 04-12-2019 08:41:17 1 C 42 %
342 04-12-2019 08:51:17 1 C 42 %
343 04-12-2019 09:01:18 1 C 42 %
344 04-12-2019 09:11:18 1.2 C 42 %
345 04-12-2019 09:21:18 1.2 C 42 %
346 04-12-2019 09:31:17 1.2 C 41 %
347 04-12-2019 09:41:17 1.2 C 41 %
348 04-12-2019 09:51:17 1.4 C 41 %
349 04-12-2019 10:01:17 1.5 C 41 %
350 04-12-2019 10:11:18 1.4 C 39 %
Sensor: Nr:Datum:Temp:Feuchte:
Aussen-T/F 351 04-12-2019 10:21:17 1.3 C 38 %
352 04-12-2019 10:31:17 1.1 C 37 %
353 04-12-2019 10:41:17 1.1 C 37 %
354 04-12-2019 10:51:18 1 C 38 %
355 04-12-2019 11:01:17 1 C 38 %
356 04-12-2019 11:11:17 1.1 C 39 %
357 04-12-2019 11:21:17 1.1 C 39 %
358 04-12-2019 11:31:18 1.1 C 40 %
359 04-12-2019 11:41:18 1 C 40 %
360 04-12-2019 11:51:17 1.1 C 41 %
361 04-12-2019 12:01:17 1.2 C 41 %
362 04-12-2019 12:11:17 1.3 C 41 %
363 04-12-2019 12:21:18 1.3 C 41 %
364 04-12-2019 12:31:17 1.5 C 41 %
365 04-12-2019 12:41:17 1.5 C 41 %
366 04-12-2019 12:51:17 1.6 C 41 %
367 04-12-2019 13:01:17 1.6 C 41 %
368 04-12-2019 13:11:17 1.7 C 41 %
369 04-12-2019 13:21:17 1.8 C 40 %
370 04-12-2019 13:31:18 1.8 C 40 %
371 04-12-2019 13:41:18 2.1 C 38 %
372 04-12-2019 13:51:17 2.1 C 37 %
373 04-12-2019 14:01:17 2.1 C 37 %
374 04-12-2019 14:11:17 2.1 C 36 %
375 04-12-2019 14:21:17 2.1 C 36 %
Sensor: Nr:Datum:Temp:Feuchte:
Aussen-T/F 376 04-12-2019 14:31:18 2 C 36 %
377 04-12-2019 14:41:18 2.2 C 35 %
378 04-12-2019 14:51:17 2.1 C 36 %
379 04-12-2019 15:01:18 2 C 37 %
380 04-12-2019 15:11:18 1.7 C 38 %
381 04-12-2019 15:21:17 1.7 C 40 %
382 04-12-2019 15:31:17 1.7 C 40 %
383 04-12-2019 15:41:17 1.8 C 39 %
384 04-12-2019 15:51:18 1.8 C 39 %
385 04-12-2019 16:01:17 1.6 C 37 %
386 04-12-2019 16:11:17 1.5 C 37 %
387 04-12-2019 16:21:17 1.4 C 37 %
388 04-12-2019 16:31:17 1.4 C 37 %
389 04-12-2019 16:41:17 1.2 C 37 %
390 04-12-2019 16:51:17 1.1 C 36 %
391 04-12-2019 17:01:17 1 C 37 %
392 04-12-2019 17:11:17 1 C 37 %
393 04-12-2019 17:21:18 1 C 36 %
394 04-12-2019 17:31:17 0.9 C 38 %
395 04-12-2019 17:41:17 0.6 C 38 %
396 04-12-2019 17:51:18 0.7 C 39 %
397 04-12-2019 18:01:17 0.8 C 38 %
398 04-12-2019 18:11:17 0.3 C 39 %
399 04-12-2019 18:21:17 0.4 C 40 %
400 04-12-2019 18:31:17 0.6 C 40 %
Sensor: Nr:Datum:Temp:Feuchte:
Aussen-T/F 401 04-12-2019 18:41:17 -0.2 C 40 %
402 04-12-2019 18:51:17 -0.5 C 41 %
403 04-12-2019 19:01:17 -0.3 C 44 %
404 04-12-2019 19:11:17 -0.7 C 42 %
405 04-12-2019 19:21:17 -1.1 C 42 %
406 04-12-2019 19:31:17 -1 C 44 %
407 04-12-2019 19:41:17 -1.2 C 44 %
408 04-12-2019 19:51:17 -1.4 C 43 %
409 04-12-2019 20:01:17 -1.3 C 44 %
410 04-12-2019 20:11:17 -1.1 C 45 %
411 04-12-2019 20:21:17 -1.5 C 44 %
412 04-12-2019 20:31:17 -1.5 C 44 %
413 04-12-2019 20:41:17 -1.8 C 43 %
414 04-12-2019 20:51:18 -1.9 C 44 %
415 04-12-2019 21:01:18 -1.9 C 44 %
416 04-12-2019 21:11:18 -1.7 C 44 %
417 04-12-2019 21:21:17 -2 C 43 %
418 04-12-2019 21:31:17 -2 C 43 %
419 04-12-2019 21:41:17 -2.4 C 43 %
420 04-12-2019 21:51:17 -2.4 C 43 %
421 04-12-2019 22:01:17 -2.5 C 43 %
422 04-12-2019 22:11:17 -2.6 C 43 %
423 04-12-2019 22:21:17 -2.7 C 44 %
424 04-12-2019 22:31:18 -2.8 C 43 %
425 04-12-2019 22:41:18 -2.7 C 43 %
Sensor: Nr:Datum:Temp:Feuchte:
Aussen-T/F 426 04-12-2019 22:51:17 -2.5 C 43 %
427 04-12-2019 23:01:17 -2.6 C 42 %
428 04-12-2019 23:11:17 -2.9 C 42 %
429 04-12-2019 23:21:17 -2.7 C 42 %
430 04-12-2019 23:31:17 -2.7 C 42 %
431 04-12-2019 23:41:17 -2.9 C 41 %
432 04-12-2019 23:51:18 -2.9 C 42 %
433 05-12-2019 00:01:17 -3 C 41 %
434 05-12-2019 00:11:17 -3 C 41 %
435 05-12-2019 00:21:17 -3.1 C 41 %
436 05-12-2019 00:31:18 -2.8 C 41 %
437 05-12-2019 00:41:18 -2.8 C 41 %
438 05-12-2019 00:51:17 -2.9 C 41 %
439 05-12-2019 01:01:17 -2.9 C 41 %
440 05-12-2019 01:11:17 -3.2 C 41 %
441 05-12-2019 01:21:17 -2.5 C 43 %
442 05-12-2019 01:31:18 -2.6 C 43 %
443 05-12-2019 01:41:18 -2.7 C 43 %
444 05-12-2019 01:51:17 -2.6 C 43 %
445 05-12-2019 02:01:17 -2.6 C 42 %
446 05-12-2019 02:11:18 -2.8 C 41 %
447 05-12-2019 02:21:17 -3 C 41 %
448 05-12-2019 02:31:17 -3.2 C 41 %
449 05-12-2019 02:41:17 -3.2 C 41 %
450 05-12-2019 02:51:17 -3.2 C 41 %
Sensor: Nr:Datum:Temp:Feuchte:
Aussen-T/F 451 05-12-2019 03:01:17 -3.4 C 40 %
452 05-12-2019 03:11:17 -3.5 C 40 %
453 05-12-2019 03:21:17 -3.3 C 41 %
454 05-12-2019 03:31:17 -3.2 C 41 %
455 05-12-2019 03:41:17 -3.6 C 40 %
456 05-12-2019 03:51:17 -3 C 43 %
457 05-12-2019 04:01:17 -2.7 C 43 %
458 05-12-2019 04:11:17 -2.7 C 43 %
459 05-12-2019 04:21:17 -2.7 C 43 %
460 05-12-2019 04:31:18 -2.9 C 42 %
461 05-12-2019 04:41:18 -3.3 C 40 %
462 05-12-2019 04:51:17 -2.9 C 42 %
463 05-12-2019 05:01:17 -2.8 C 43 %
464 05-12-2019 05:11:17 -2.8 C 42 %
465 05-12-2019 05:21:17 -2.7 C 43 %
466 05-12-2019 05:31:17 -2.7 C 43 %
467 05-12-2019 05:41:18 -2.5 C 43 %
468 05-12-2019 05:51:17 -2.5 C 43 %
469 05-12-2019 06:01:17 -2.6 C 43 %
470 05-12-2019 06:11:17 -2.7 C 43 %
471 05-12-2019 06:21:17 -2.9 C 43 %
472 05-12-2019 06:31:17 -2.9 C 43 %
473 05-12-2019 06:41:17 -3 C 42 %
474 05-12-2019 06:51:17 -2.9 C 43 %
475 05-12-2019 07:01:17 -2.9 C 42 %
Sensor: Nr:Datum:Temp:Feuchte:
Aussen-T/F 476 05-12-2019 07:11:17 -2.9 C 42 %
477 05-12-2019 07:21:17 -3.2 C 42 %
478 05-12-2019 07:31:17 -3.1 C 42 %
479 05-12-2019 07:41:18 -2.9 C 42 %
480 05-12-2019 07:51:17 -2.9 C 42 %
481 05-12-2019 08:01:17 -3 C 42 %
482 05-12-2019 08:11:17 -2.8 C 43 %
483 05-12-2019 08:21:18 -2.9 C 42 %
484 05-12-2019 08:31:17 -2.8 C 42 %
485 05-12-2019 08:41:17 -3 C 42 %
486 05-12-2019 08:51:17 -3 C 42 %
487 05-12-2019 09:01:18 -2.7 C 43 %
488 05-12-2019 09:11:18 -2.6 C 43 %
489 05-12-2019 09:21:17 -2.6 C 42 %
490 05-12-2019 09:31:17 -2.6 C 42 %
491 05-12-2019 09:41:17 -2.5 C 43 %
492 05-12-2019 09:51:17 -2.4 C 42 %
493 05-12-2019 10:01:18 -2.3 C 42 %
494 05-12-2019 10:11:18 -2.4 C 42 %
495 05-12-2019 10:21:17 -2.1 C 43 %
496 05-12-2019 10:31:17 -1.7 C 43 %
497 05-12-2019 10:41:17 -2 C 42 %
498 05-12-2019 10:51:18 -1.7 C 42 %
499 05-12-2019 11:01:17 -1.7 C 43 %
500 05-12-2019 11:11:17 -1.4 C 42 %
Sensor: Nr:Datum:Temp:Feuchte:
Aussen-T/F 501 05-12-2019 11:21:17 -1.2 C 41 %
502 05-12-2019 11:31:18 -1.2 C 41 %
503 05-12-2019 11:41:18 -0.7 C 42 %
504 05-12-2019 11:51:17 -0.9 C 42 %
505 05-12-2019 12:01:18 -1 C 41 %
506 05-12-2019 12:11:18 -0.8 C 41 %
507 05-12-2019 12:21:17 -0.6 C 41 %
508 05-12-2019 12:31:17 -0.8 C 40 %
509 05-12-2019 12:41:17 -0.9 C 40 %
510 05-12-2019 12:51:18 -0.6 C 41 %
511 05-12-2019 13:01:17 -0.5 C 40 %
512 05-12-2019 13:11:17 -0.6 C 40 %
513 05-12-2019 13:21:17 -0.4 C 41 %
514 05-12-2019 13:31:17 -0.4 C 41 %
515 05-12-2019 13:41:17 -0.2 C 41 %
516 05-12-2019 13:51:17 0.1 C 40 %
517 05-12-2019 14:01:18 0.1 C 40 %
518 05-12-2019 14:11:18 0.2 C 40 %
519 05-12-2019 14:21:17 0.2 C 40 %
520 05-12-2019 14:31:17 0.2 C 40 %
521 05-12-2019 14:41:17 0.2 C 40 %
522 05-12-2019 14:51:17 0.2 C 41 %
523 05-12-2019 15:01:17 0.1 C 41 %
524 05-12-2019 15:11:17 0 C 41 %
525 05-12-2019 15:21:17 -0.1 C 42 %
Sensor: Nr:Datum:Temp:Feuchte:
Aussen-T/F 526 05-12-2019 15:31:17 -0.1 C 43 %
527 05-12-2019 15:41:17 -0.1 C 44 %
528 05-12-2019 15:51:18 -0.1 C 44 %
529 05-12-2019 16:01:17 -0.4 C 44 %
530 05-12-2019 16:11:17 -0.5 C 44 %
531 05-12-2019 16:21:17 -0.7 C 45 %
532 05-12-2019 16:31:18 -0.8 C 44 %
533 05-12-2019 16:41:18 -1 C 44 %
534 05-12-2019 16:51:17 -1 C 44 %
535 05-12-2019 17:01:17 -1.2 C 44 %
536 05-12-2019 17:11:17 -1.1 C 45 %
537 05-12-2019 17:21:18 -1.2 C 45 %
538 05-12-2019 17:31:17 -1.3 C 44 %
539 05-12-2019 17:41:17 -1.7 C 44 %
540 05-12-2019 17:51:17 -1.6 C 44 %
541 05-12-2019 18:01:18 -1.8 C 43 %
542 05-12-2019 18:11:18 -2 C 43 %
543 05-12-2019 18:21:17 -2 C 43 %
544 05-12-2019 18:31:17 -2 C 43 %
545 05-12-2019 18:41:17 -2.2 C 43 %
546 05-12-2019 18:51:18 -2.5 C 42 %
547 05-12-2019 19:01:17 -2.1 C 43 %
548 05-12-2019 19:11:17 -2.1 C 44 %
549 05-12-2019 19:21:17 -2.6 C 42 %
550 05-12-2019 19:31:17 -2.9 C 41 %
Sensor: Nr:Datum:Temp:Feuchte:
Aussen-T/F 551 05-12-2019 19:41:17 -2.6 C 42 %
552 05-12-2019 19:51:18 -1.9 C 43 %
553 05-12-2019 20:01:17 -1.5 C 44 %
554 05-12-2019 20:11:17 -1.6 C 43 %
555 05-12-2019 20:21:17 -1.5 C 43 %
556 05-12-2019 20:31:17 -1.9 C 42 %
557 05-12-2019 20:41:17 -2 C 42 %
558 05-12-2019 20:51:18 -2.1 C 42 %
559 05-12-2019 21:01:17 -2.3 C 42 %
560 05-12-2019 21:11:17 -2.6 C 42 %
561 05-12-2019 21:21:17 -2.1 C 43 %
562 05-12-2019 21:31:17 -2 C 43 %
563 05-12-2019 21:41:17 -2 C 43 %
564 05-12-2019 21:51:17 -2 C 43 %
565 05-12-2019 22:01:17 -2.3 C 42 %
566 05-12-2019 22:11:17 -2.3 C 42 %
567 05-12-2019 22:21:18 -2.2 C 42 %
568 05-12-2019 22:31:17 -2.4 C 42 %
569 05-12-2019 22:41:17 -2.4 C 42 %
570 05-12-2019 22:51:17 -2.3 C 42 %
571 05-12-2019 23:01:17 -2.6 C 41 %
572 05-12-2019 23:11:17 -2.7 C 41 %
573 05-12-2019 23:21:18 -2.7 C 42 %
574 05-12-2019 23:31:17 -3.1 C 41 %
575 05-12-2019 23:41:17 -3.3 C 41 %
Sensor: Nr:Datum:Temp:Feuchte:
Aussen-T/F 576 05-12-2019 23:51:17 -3.2 C 42 %
577 06-12-2019 00:01:18 -2.9 C 42 %
578 06-12-2019 00:11:18 -3.4 C 40 %
579 06-12-2019 00:21:17 -3.8 C 40 %
580 06-12-2019 00:31:17 -3.4 C 42 %
581 06-12-2019 00:41:17 -3.2 C 42 %
582 06-12-2019 00:51:17 -2.7 C 43 %
583 06-12-2019 01:01:17 -2.4 C 43 %
584 06-12-2019 01:11:17 -2.1 C 43 %
585 06-12-2019 01:21:17 -2 C 41 %
586 06-12-2019 01:31:18 -1.8 C 42 %
587 06-12-2019 01:41:18 -1.6 C 43 %
588 06-12-2019 01:51:17 -1.6 C 43 %
589 06-12-2019 02:01:17 -1.4 C 42 %
590 06-12-2019 02:11:17 -1.4 C 40 %
591 06-12-2019 02:21:17 -1.6 C 40 %
592 06-12-2019 02:31:17 -1.5 C 40 %
593 06-12-2019 02:41:17 -1.7 C 39 %
594 06-12-2019 02:51:17 -1.6 C 40 %
595 06-12-2019 03:01:18 -1.4 C 39 %
596 06-12-2019 03:11:18 -1.2 C 39 %
597 06-12-2019 03:21:17 -1 C 38 %
598 06-12-2019 03:31:17 -1 C 37 %
599 06-12-2019 03:41:17 -1 C 38 %
600 06-12-2019 03:51:17 -1.1 C 37 %
Sensor: Nr:Datum:Temp:Feuchte:
Aussen-T/F 601 06-12-2019 04:01:17 -1.2 C 38 %
602 06-12-2019 04:11:17 -1.3 C 37 %
603 06-12-2019 04:21:17 -1.3 C 38 %
604 06-12-2019 04:31:17 -1.1 C 38 %
605 06-12-2019 04:41:17 -1.1 C 38 %
606 06-12-2019 04:51:17 -0.8 C 38 %
607 06-12-2019 05:01:17 -1 C 38 %
608 06-12-2019 05:11:17 -0.8 C 37 %
609 06-12-2019 05:21:17 -0.9 C 36 %
610 06-12-2019 05:31:18 -1 C 37 %
611 06-12-2019 05:41:18 -0.8 C 38 %
612 06-12-2019 05:51:17 -0.6 C 36 %
613 06-12-2019 06:01:17 -0.6 C 35 %
614 06-12-2019 06:11:17 -0.6 C 36 %
615 06-12-2019 06:21:17 -0.5 C 36 %
616 06-12-2019 06:31:17 -0.5 C 35 %
617 06-12-2019 06:41:17 -0.4 C 36 %
618 06-12-2019 06:51:18 -0.4 C 37 %
619 06-12-2019 07:01:17 -0.4 C 38 %
620 06-12-2019 07:11:17 -0.4 C 38 %
621 06-12-2019 07:21:17 -0.1 C 37 %
622 06-12-2019 07:31:17 0 C 36 %
623 06-12-2019 07:41:17 0.2 C 34 %
624 06-12-2019 07:51:18 0.4 C 32 %
625 06-12-2019 08:01:17 0.4 C 32 %
Sensor: Nr:Datum:Temp:Feuchte:
Aussen-T/F 626 06-12-2019 08:11:17 0.4 C 32 %
627 06-12-2019 08:21:17 0.4 C 35 %
628 06-12-2019 08:31:17 0.6 C 32 %
629 06-12-2019 08:41:17 0.5 C 35 %
630 06-12-2019 08:51:18 0.5 C 35 %
631 06-12-2019 09:01:17 0.6 C 36 %
632 06-12-2019 09:11:17 0.8 C 36 %
633 06-12-2019 09:21:17 1.2 C 33 %
634 06-12-2019 09:31:17 1.4 C 33 %
635 06-12-2019 09:41:17 1.5 C 33 %
636 06-12-2019 09:51:17 1.7 C 34 %
637 06-12-2019 10:01:17 1.8 C 33 %
638 06-12-2019 10:11:17 1.8 C 35 %
639 06-12-2019 10:21:18 1.9 C 36 %
640 06-12-2019 10:31:17 1.9 C 36 %
641 06-12-2019 10:41:17 2.4 C 35 %
642 06-12-2019 10:51:17 2.5 C 35 %
643 06-12-2019 11:01:18 2.7 C 35 %
644 06-12-2019 11:11:18 3.2 C 32 %
645 06-12-2019 11:21:17 3.3 C 32 %
646 06-12-2019 11:31:17 3.5 C 32 %
647 06-12-2019 11:41:17 3.5 C 32 %
648 06-12-2019 11:51:17 3.5 C 33 %
649 06-12-2019 12:01:17 3.6 C 33 %
650 06-12-2019 12:11:17 3.6 C 33 %
Sensor: Nr:Datum:Temp:Feuchte:
Aussen-T/F 651 06-12-2019 12:21:17 3.6 C 35 %
652 06-12-2019 12:31:18 3.7 C 37 %
653 06-12-2019 12:41:18 3.7 C 39 %
654 06-12-2019 12:51:17 3.7 C 40 %
655 06-12-2019 13:01:17 3.8 C 39 %
656 06-12-2019 13:11:17 3.9 C 38 %
657 06-12-2019 13:21:17 4 C 36 %
658 06-12-2019 13:31:18 4.2 C 35 %
659 06-12-2019 13:41:18 4.2 C 35 %
660 06-12-2019 13:51:17 4.1 C 36 %
661 06-12-2019 14:01:17 4.1 C 39 %
662 06-12-2019 14:11:17 4.2 C 40 %
663 06-12-2019 14:21:17 4.2 C 38 %
664 06-12-2019 14:31:18 4.2 C 38 %
665 06-12-2019 14:41:18 4.4 C 38 %
666 06-12-2019 14:51:17 4.4 C 39 %
667 06-12-2019 15:01:17 4.3 C 38 %
668 06-12-2019 15:11:17 4.4 C 38 %
669 06-12-2019 15:21:17 4.7 C 36 %
670 06-12-2019 15:31:17 4.5 C 37 %
671 06-12-2019 15:41:17 4.5 C 37 %
672 06-12-2019 15:51:18 4.6 C 37 %
673 06-12-2019 16:01:18 4.8 C 38 %
674 06-12-2019 16:11:18 5 C 34 %
675 06-12-2019 16:21:17 5.2 C 32 %
Sensor: Nr:Datum:Temp:Feuchte:
Aussen-T/F 676 06-12-2019 16:31:17 5.1 C 32 %
677 06-12-2019 16:41:17 5.3 C 32 %
678 06-12-2019 16:51:17 5.2 C 31 %
679 06-12-2019 17:01:17 5.2 C 31 %
680 06-12-2019 17:11:17 5.3 C 31 %
681 06-12-2019 17:21:17 5.3 C 30 %
682 06-12-2019 17:31:18 5.5 C 30 %
683 06-12-2019 17:41:18 5.6 C 29 %
684 06-12-2019 17:51:17 5.5 C 30 %
685 06-12-2019 18:01:17 5.9 C 29 %
686 06-12-2019 18:11:17 6 C 28 %
687 06-12-2019 18:21:18 6.2 C 29 %
688 06-12-2019 18:31:17 6.1 C 28 %
689 06-12-2019 18:41:17 6.1 C 29 %
690 06-12-2019 18:51:17 5.9 C 30 %
691 06-12-2019 19:01:17 5.6 C 31 %
692 06-12-2019 19:11:17 5.8 C 32 %
693 06-12-2019 19:21:17 5.9 C 31 %
694 06-12-2019 19:31:17 6.2 C 30 %
695 06-12-2019 19:41:17 6.5 C 28 %
696 06-12-2019 19:51:17 6.5 C 28 %
697 06-12-2019 20:01:17 6.8 C 28 %
698 06-12-2019 20:11:17 6.7 C 28 %
699 06-12-2019 20:21:17 6.8 C 28 %
700 06-12-2019 20:31:17 6.7 C 28 %
Sensor: Nr:Datum:Temp:Feuchte:
Aussen-T/F 701 06-12-2019 20:41:17 6.7 C 28 %
702 06-12-2019 20:51:18 6.7 C 28 %
703 06-12-2019 21:01:17 6.8 C 27 %
704 06-12-2019 21:11:17 6.7 C 28 %
705 06-12-2019 21:21:17 6.7 C 28 %
706 06-12-2019 21:31:17 6.6 C 28 %
707 06-12-2019 21:41:17 6.5 C 28 %
708 06-12-2019 21:51:17 6.5 C 29 %
709 06-12-2019 22:01:17 6.6 C 29 %
710 06-12-2019 22:11:17 6.7 C 28 %
711 06-12-2019 22:21:17 6.7 C 28 %
712 06-12-2019 22:31:17 6.7 C 28 %
713 06-12-2019 22:41:17 6.9 C 28 %
714 06-12-2019 22:51:17 6.9 C 27 %
715 06-12-2019 23:01:18 7 C 27 %
716 06-12-2019 23:11:18 6.9 C 28 %
717 06-12-2019 23:21:17 6.8 C 29 %
718 06-12-2019 23:31:17 6.8 C 29 %
719 06-12-2019 23:41:17 6.9 C 29 %
720 06-12-2019 23:51:18 6.8 C 30 %
721 07-12-2019 00:01:17 6.9 C 30 %
722 07-12-2019 00:11:17 7 C 28 %
723 07-12-2019 00:21:17 7.2 C 28 %
724 07-12-2019 00:31:17 7.2 C 28 %
725 07-12-2019 00:41:17 7.2 C 28 %
Sensor: Nr:Datum:Temp:Feuchte:
Aussen-T/F 726 07-12-2019 00:51:17 7.4 C 28 %
727 07-12-2019 01:01:17 7.4 C 28 %
728 07-12-2019 01:11:17 7.6 C 28 %
729 07-12-2019 01:21:17 7.7 C 28 %
730 07-12-2019 01:31:18 7.8 C 28 %
731 07-12-2019 01:41:18 7.6 C 29 %
732 07-12-2019 01:51:17 7.6 C 29 %
733 07-12-2019 02:01:17 7.5 C 30 %
734 07-12-2019 02:11:17 7.7 C 31 %
735 07-12-2019 02:21:17 7.5 C 31 %
736 07-12-2019 02:31:17 7.1 C 35 %
737 07-12-2019 02:41:17 7.2 C 38 %
738 07-12-2019 02:51:17 7.3 C 35 %
739 07-12-2019 03:01:17 7.4 C 35 %
740 07-12-2019 03:11:17 7.6 C 33 %
741 07-12-2019 03:21:17 8.4 C 30 %
742 07-12-2019 03:31:17 8.5 C 29 %
743 07-12-2019 03:41:17 8.7 C 28 %
744 07-12-2019 03:51:17 9 C 27 %
745 07-12-2019 04:01:18 8.4 C 29 %
746 07-12-2019 04:11:18 8.5 C 29 %
747 07-12-2019 04:21:17 8 C 30 %
748 07-12-2019 04:31:17 7.9 C 30 %
749 07-12-2019 04:41:17 8 C 30 %
750 07-12-2019 04:51:17 8 C 30 %
Sensor: Nr:Datum:Temp:Feuchte:
Aussen-T/F 751 07-12-2019 05:01:17 7.7 C 30 %
752 07-12-2019 05:11:17 8 C 30 %
753 07-12-2019 05:21:17 8 C 30 %
754 07-12-2019 05:31:17 7.8 C 31 %
755 07-12-2019 05:41:17 8.2 C 30 %
756 07-12-2019 05:51:18 7.2 C 31 %
757 07-12-2019 06:01:18 7.6 C 30 %
758 07-12-2019 06:11:18 8.7 C 26 %
759 07-12-2019 06:21:17 8.6 C 26 %
760 07-12-2019 06:31:18 8.2 C 26 %
761 07-12-2019 06:41:18 8.1 C 26 %
762 07-12-2019 06:51:17 7.5 C 27 %
763 07-12-2019 07:01:17 6.8 C 30 %
764 07-12-2019 07:11:17 7.1 C 28 %
765 07-12-2019 07:21:17 7.3 C 27 %
766 07-12-2019 07:31:17 6.8 C 30 %
767 07-12-2019 07:41:17 6.3 C 31 %
768 07-12-2019 07:51:18 7.8 C 28 %
769 07-12-2019 08:01:18 8 C 27 %
770 07-12-2019 08:11:18 7.9 C 28 %
771 07-12-2019 08:21:17 8.1 C 28 %
772 07-12-2019 08:31:17 8.1 C 27 %
773 07-12-2019 08:41:17 8.3 C 28 %
774 07-12-2019 08:51:17 8.4 C 27 %
775 07-12-2019 09:01:17 8.4 C 27 %
Sensor: Nr:Datum:Temp:Feuchte:
Aussen-T/F 776 07-12-2019 09:11:17 8.3 C 28 %
777 07-12-2019 09:21:17 8.2 C 28 %
778 07-12-2019 09:31:17 8.1 C 29 %
779 07-12-2019 09:41:17 8.3 C 28 %
780 07-12-2019 09:51:18 8.6 C 27 %
781 07-12-2019 10:01:17 8.6 C 27 %
782 07-12-2019 10:11:17 8.8 C 27 %
783 07-12-2019 10:21:17 9 C 26 %
784 07-12-2019 10:31:17 9.1 C 25 %
785 07-12-2019 10:41:17 9.1 C 26 %
786 07-12-2019 10:51:18 9.2 C 25 %
787 07-12-2019 11:01:18 9 C 26 %
788 07-12-2019 11:11:18 8.4 C 29 %
789 07-12-2019 11:21:17 8.3 C 30 %
790 07-12-2019 11:31:17 8.4 C 30 %
791 07-12-2019 11:41:17 8.5 C 30 %
792 07-12-2019 11:51:17 8.6 C 28 %
793 07-12-2019 12:01:17 8.8 C 27 %
794 07-12-2019 12:11:17 8.9 C 27 %
795 07-12-2019 12:21:17 9.2 C 25 %
796 07-12-2019 12:31:18 9.4 C 25 %
797 07-12-2019 12:41:18 9.5 C 25 %
798 07-12-2019 12:51:17 9.5 C 25 %
799 07-12-2019 13:01:17 9.7 C 23 %
800 07-12-2019 13:11:17 10 C 20 %
Sensor: Nr:Datum:Temp:Feuchte:
Aussen-T/F 801 07-12-2019 13:21:17 9.8 C 20 %
802 07-12-2019 13:31:17 9.8 C 20 %
803 07-12-2019 13:41:17 9.9 C 20 %
804 07-12-2019 13:51:17 9.9 C 20 %
805 07-12-2019 14:01:17 9.8 C 20 %
806 07-12-2019 14:11:17 9.7 C 20 %
807 07-12-2019 14:21:17 9.9 C 20 %
808 07-12-2019 14:31:18 9.9 C 20 %
809 07-12-2019 14:41:18 9.9 C 20 %
810 07-12-2019 14:51:17 9.9 C 20 %
811 07-12-2019 15:01:17 9.9 C 20 %
812 07-12-2019 15:11:17 9.7 C 21 %
813 07-12-2019 15:21:17 9.6 C 21 %
814 07-12-2019 15:31:17 9.7 C 21 %
815 07-12-2019 15:41:17 9.6 C 20 %
816 07-12-2019 15:51:17 9.4 C 23 %
817 07-12-2019 16:01:17 9 C 25 %
818 07-12-2019 16:11:17 8.9 C 25 %
819 07-12-2019 16:21:18 8.8 C 25 %
820 07-12-2019 16:31:17 8.6 C 26 %
821 07-12-2019 16:41:18 8.5 C 26 %
822 07-12-2019 16:51:17 8.2 C 27 %
823 07-12-2019 17:01:17 8.1 C 29 %
824 07-12-2019 17:11:17 8.2 C 28 %
825 07-12-2019 17:21:17 8.1 C 28 %
Sensor: Nr:Datum:Temp:Feuchte:
Aussen-T/F 826 07-12-2019 17:31:18 8.2 C 28 %
827 07-12-2019 17:41:18 8.3 C 27 %
828 07-12-2019 17:51:17 8.1 C 27 %
829 07-12-2019 18:01:18 8 C 28 %
830 07-12-2019 18:11:18 8 C 27 %
831 07-12-2019 18:21:17 7.8 C 28 %
832 07-12-2019 18:31:17 7.7 C 29 %
833 07-12-2019 18:41:17 7.6 C 30 %
834 07-12-2019 18:51:17 7.6 C 30 %
835 07-12-2019 19:01:17 7.5 C 31 %
836 07-12-2019 19:11:17 7.5 C 31 %
837 07-12-2019 19:21:17 7.5 C 32 %
838 07-12-2019 19:31:17 7.7 C 31 %
839 07-12-2019 19:41:17 7.6 C 30 %
840 07-12-2019 19:51:17 7.7 C 30 %
841 07-12-2019 20:01:18 7.4 C 30 %
842 07-12-2019 20:11:18 7.3 C 31 %
843 07-12-2019 20:21:17 7.3 C 31 %
844 07-12-2019 20:31:17 7.4 C 30 %
845 07-12-2019 20:41:17 7.6 C 30 %
846 07-12-2019 20:51:17 7.6 C 30 %
847 07-12-2019 21:01:17 7.5 C 30 %
848 07-12-2019 21:11:17 7.6 C 30 %
849 07-12-2019 21:21:17 8 C 28 %
850 07-12-2019 21:31:17 8.1 C 28 %
Sensor: Nr:Datum:Temp:Feuchte:
Aussen-T/F 851 07-12-2019 21:41:17 8.2 C 28 %
852 07-12-2019 21:51:17 7.9 C 28 %
853 07-12-2019 22:01:17 8.2 C 28 %
854 07-12-2019 22:11:17 8.1 C 27 %
855 07-12-2019 22:21:17 7.8 C 28 %
856 07-12-2019 22:31:18 7.7 C 30 %
857 07-12-2019 22:41:18 7.6 C 30 %
858 07-12-2019 22:51:17 7.5 C 31 %
859 07-12-2019 23:01:17 7.4 C 32 %
860 07-12-2019 23:11:17 7.6 C 31 %
861 07-12-2019 23:21:17 7.6 C 32 %
862 07-12-2019 23:31:17 7.5 C 32 %
863 07-12-2019 23:41:17 7.7 C 31 %
864 07-12-2019 23:51:18 7.9 C 28 %
865 08-12-2019 00:01:17 8.1 C 27 %
866 08-12-2019 00:11:17 8.9 C 23 %
867 08-12-2019 00:21:17 8.9 C 21 %
868 08-12-2019 00:31:18 9 C 21 %
869 08-12-2019 00:41:18 8.9 C 23 %
870 08-12-2019 00:51:17 8.5 C 25 %
871 08-12-2019 01:01:18 8.3 C 25 %
872 08-12-2019 01:11:18 8.5 C 25 %
873 08-12-2019 01:21:17 8.4 C 26 %
874 08-12-2019 01:31:17 8.9 C 25 %
875 08-12-2019 01:41:17 8.8 C 25 %
Sensor: Nr:Datum:Temp:Feuchte:
Aussen-T/F 876 08-12-2019 01:51:18 9.2 C 20 %
877 08-12-2019 02:01:17 9.2 C 20 %
878 08-12-2019 02:11:17 8.9 C 20 %
879 08-12-2019 02:21:17 9 C 20 %
880 08-12-2019 02:31:17 9.1 C 20 %
881 08-12-2019 02:41:18 9 C 20 %
882 08-12-2019 02:51:17 9.1 C 20 %
883 08-12-2019 03:01:17 9 C 20 %
884 08-12-2019 03:11:17 9.1 C 20 %
885 08-12-2019 03:21:17 9.1 C 20 %
886 08-12-2019 03:31:17 9.3 C 20 %
887 08-12-2019 03:41:17 9.3 C 20 %
888 08-12-2019 03:51:17 9.4 C 20 %
889 08-12-2019 04:01:17 9.7 C 20 %
890 08-12-2019 04:11:18 9.6 C 20 %
891 08-12-2019 04:21:17 9.5 C 20 %
892 08-12-2019 04:31:17 9.6 C 20 %
893 08-12-2019 04:41:17 9.6 C 20 %
894 08-12-2019 04:51:17 9.5 C 20 %
895 08-12-2019 05:01:17 9.6 C 20 %
896 08-12-2019 05:11:17 9.5 C 21 %
897 08-12-2019 05:21:17 9.5 C 21 %
898 08-12-2019 05:31:17 9.4 C 23 %
899 08-12-2019 05:41:17 9.5 C 23 %
900 08-12-2019 05:51:17 9.2 C 25 %
Sensor: Nr:Datum:Temp:Feuchte:
Aussen-T/F 901 08-12-2019 06:01:17 9.3 C 25 %
902 08-12-2019 06:11:18 9.5 C 25 %
903 08-12-2019 06:21:17 9.9 C 21 %
904 08-12-2019 06:31:17 9.8 C 23 %
905 08-12-2019 06:41:17 9.7 C 25 %
906 08-12-2019 06:51:17 9.9 C 23 %
907 08-12-2019 07:01:18 10 C 21 %
908 08-12-2019 07:11:18 10.1 C 20 %
909 08-12-2019 07:21:17 9.9 C 21 %
910 08-12-2019 07:31:17 10 C 21 %
911 08-12-2019 07:41:17 10.1 C 20 %
912 08-12-2019 07:51:17 10 C 20 %
913 08-12-2019 08:01:17 10 C 20 %
914 08-12-2019 08:11:17 10.2 C 20 %
915 08-12-2019 08:21:17 10.1 C 20 %
916 08-12-2019 08:31:17 10.3 C 21 %
917 08-12-2019 08:41:17 10.1 C 21 %
918 08-12-2019 08:51:17 10.3 C 21 %
919 08-12-2019 09:01:17 10.3 C 21 %
920 08-12-2019 09:11:17 10.1 C 21 %
921 08-12-2019 09:21:17 10.2 C 21 %
922 08-12-2019 09:31:17 10.3 C 21 %
923 08-12-2019 09:41:17 10.4 C 21 %
924 08-12-2019 09:51:17 10.4 C 21 %
925 08-12-2019 10:01:17 10.4 C 21 %
Sensor: Nr:Datum:Temp:Feuchte:
Aussen-T/F 926 08-12-2019 10:11:17 10.5 C 21 %
927 08-12-2019 10:21:17 10.5 C 22 %
928 08-12-2019 10:31:17 10.5 C 22 %
929 08-12-2019 10:41:17 10.1 C 25 %
930 08-12-2019 10:51:17 10.2 C 25 %
931 08-12-2019 11:01:17 10.5 C 25 %
932 08-12-2019 11:11:17 10.6 C 23 %
933 08-12-2019 11:21:17 10.8 C 23 %
934 08-12-2019 11:31:17 10.8 C 23 %
935 08-12-2019 11:41:17 10.8 C 22 %
936 08-12-2019 11:51:17 11 C 22 %
937 08-12-2019 12:01:18 11.1 C 22 %
938 08-12-2019 12:11:18 11.3 C 22 %
939 08-12-2019 12:21:17 11.4 C 22 %
940 08-12-2019 12:31:17 11.4 C 22 %
941 08-12-2019 12:41:17 11.4 C 23 %
942 08-12-2019 12:51:17 11.3 C 24 %
943 08-12-2019 13:01:18 11.5 C 24 %
944 08-12-2019 13:11:18 11.5 C 22 %
945 08-12-2019 13:21:17 11.3 C 25 %
946 08-12-2019 13:31:17 11.1 C 25 %
947 08-12-2019 13:41:17 11.4 C 25 %
948 08-12-2019 13:51:17 11.4 C 25 %
949 08-12-2019 14:01:17 11.5 C 25 %
950 08-12-2019 14:11:17 11.5 C 25 %
Sensor: Nr:Datum:Temp:Feuchte:
Aussen-T/F 951 08-12-2019 14:21:17 11.5 C 25 %
952 08-12-2019 14:31:18 11.7 C 25 %
953 08-12-2019 14:41:18 11.7 C 25 %
954 08-12-2019 14:51:17 11.7 C 25 %
955 08-12-2019 15:01:18 11.8 C 25 %
956 08-12-2019 15:11:18 11.8 C 25 %
957 08-12-2019 15:21:18 11.7 C 25 %
958 08-12-2019 15:31:18 11.7 C 25 %
959 08-12-2019 15:41:18 11.8 C 25 %
960 08-12-2019 15:51:17 11.8 C 25 %
961 08-12-2019 16:01:17 11.7 C 25 %
962 08-12-2019 16:11:17 11.8 C 25 %
963 08-12-2019 16:21:18 11.7 C 25 %
964 08-12-2019 16:31:18 11.6 C 26 %
965 08-12-2019 16:41:18 11.4 C 27 %
966 08-12-2019 16:51:17 9.4 C 31 %
967 08-12-2019 17:01:17 8.9 C 33 %
968 08-12-2019 17:11:17 8.8 C 33 %
969 08-12-2019 17:21:17 8.7 C 34 %
970 08-12-2019 17:31:17 9.2 C 27 %
971 08-12-2019 17:41:17 8.5 C 33 %
972 08-12-2019 17:51:17 8.5 C 33 %
973 08-12-2019 18:01:17 8.5 C 32 %
974 08-12-2019 18:11:17 8.6 C 31 %
975 08-12-2019 18:21:17 8.2 C 33 %
Sensor: Nr:Datum:Temp:Feuchte:
Aussen-T/F 976 08-12-2019 18:31:18 8.5 C 29 %
977 08-12-2019 18:41:18 8.5 C 29 %
978 08-12-2019 18:51:17 8.6 C 28 %
979 08-12-2019 19:01:17 8.9 C 27 %
980 08-12-2019 19:11:17 8.5 C 28 %
981 08-12-2019 19:21:17 8.5 C 28 %
982 08-12-2019 19:31:17 8.6 C 27 %
983 08-12-2019 19:41:17 8 C 31 %
984 08-12-2019 19:51:18 7.8 C 33 %
985 08-12-2019 20:01:17 7.5 C 36 %
986 08-12-2019 20:11:17 8.1 C 33 %
987 08-12-2019 20:21:17 8.2 C 30 %
988 08-12-2019 20:31:17 8.3 C 29 %
989 08-12-2019 20:41:17 8.5 C 28 %
990 08-12-2019 20:51:17 8.6 C 26 %
991 08-12-2019 21:01:18 8.8 C 26 %
992 08-12-2019 21:11:18 8.9 C 25 %
993 08-12-2019 21:21:17 8.4 C 26 %
994 08-12-2019 21:31:17 8.7 C 26 %
995 08-12-2019 21:41:17 8.4 C 26 %
996 08-12-2019 21:51:18 8.4 C 26 %
997 08-12-2019 22:01:17 8.5 C 26 %
998 08-12-2019 22:11:17 7.9 C 27 %
999 08-12-2019 22:21:17 8.1 C 26 %
1000 08-12-2019 22:31:17 8.6 C 26 %
Sensor: Nr:Datum:Temp:Feuchte:
Aussen-T/F 1001 08-12-2019 22:41:17 8.8 C 26 %
1002 08-12-2019 22:51:17 8.7 C 25 %
1003 08-12-2019 23:01:17 8.8 C 25 %
1004 08-12-2019 23:11:17 8.7 C 26 %
1005 08-12-2019 23:21:17 8.8 C 25 %
1006 08-12-2019 23:31:18 8.7 C 25 %
1007 08-12-2019 23:41:18 8.5 C 25 %
1008 08-12-2019 23:51:17 8.4 C 21 %
1009 09-12-2019 00:01:18 8.7 C 20 %
1010 09-12-2019 00:11:18 8.1 C 21 %
1011 09-12-2019 00:21:17 8.4 C 21 %
1012 09-12-2019 00:31:17 8.4 C 21 %
1013 09-12-2019 00:41:17 8.5 C 20 %
1014 09-12-2019 00:51:17 8.4 C 20 %
1015 09-12-2019 01:01:17 8.4 C 20 %
1016 09-12-2019 01:11:17 8.5 C 20 %
1017 09-12-2019 01:21:18 8.1 C 20 %
1018 09-12-2019 01:31:17 8 C 20 %
1019 09-12-2019 01:41:17 8.3 C 20 %
1020 09-12-2019 01:51:17 8.2 C 20 %
1021 09-12-2019 02:01:17 7.8 C 20 %
1022 09-12-2019 02:11:17 7.6 C 20 %
1023 09-12-2019 02:21:17 7.4 C 21 %
1024 09-12-2019 02:31:18 7.4 C 21 %
1025 09-12-2019 02:41:18 7.1 C 23 %
Sensor: Nr:Datum:Temp:Feuchte:
Aussen-T/F 1026 09-12-2019 02:51:18 7.5 C 20 %
1027 09-12-2019 03:01:17 7.5 C 20 %
1028 09-12-2019 03:11:17 7.5 C 20 %
1029 09-12-2019 03:21:17 7.5 C 20 %
1030 09-12-2019 03:31:17 7.3 C 20 %
1031 09-12-2019 03:41:17 6.8 C 23 %
1032 09-12-2019 03:51:17 7.3 C 21 %
1033 09-12-2019 04:01:17 7.3 C 20 %
1034 09-12-2019 04:11:17 7.9 C 20 %
1035 09-12-2019 04:21:18 8 C 20 %
1036 09-12-2019 04:31:18 7.6 C 20 %
1037 09-12-2019 04:41:18 7.4 C 21 %
1038 09-12-2019 04:51:17 6.9 C 25 %
1039 09-12-2019 05:01:17 6.9 C 25 %
1040 09-12-2019 05:11:17 7.4 C 20 %
1041 09-12-2019 05:21:17 7.5 C 20 %
1042 09-12-2019 05:31:17 7.4 C 20 %
1043 09-12-2019 05:41:18 7.1 C 20 %
1044 09-12-2019 05:51:17 7.2 C 20 %
1045 09-12-2019 06:01:17 7.4 C 20 %
1046 09-12-2019 06:11:17 7.4 C 20 %
1047 09-12-2019 06:21:17 7.4 C 20 %
1048 09-12-2019 06:31:17 7.6 C 20 %
1049 09-12-2019 06:41:17 7.8 C 20 %
1050 09-12-2019 06:51:18 7.7 C 20 %
Sensor: Nr:Datum:Temp:Feuchte:
Aussen-T/F 1051 09-12-2019 07:01:17 7.6 C 20 %
1052 09-12-2019 07:11:18 7.5 C 20 %
1053 09-12-2019 07:21:17 7.2 C 20 %
1054 09-12-2019 07:31:17 7.2 C 20 %
1055 09-12-2019 07:41:17 7.6 C 20 %
1056 09-12-2019 07:51:18 7.5 C 20 %
1057 09-12-2019 08:01:17 7.9 C 20 %
1058 09-12-2019 08:11:17 7.8 C 20 %
1059 09-12-2019 08:21:17 7.9 C 20 %
1060 09-12-2019 08:31:17 8 C 20 %
1061 09-12-2019 08:41:17 7.9 C 20 %
1062 09-12-2019 08:51:17 7.9 C 20 %
1063 09-12-2019 09:01:17 7.8 C 20 %
1064 09-12-2019 09:11:17 7.9 C 20 %
1065 09-12-2019 09:21:17 7.5 C 20 %
1066 09-12-2019 09:31:17 7.4 C 23 %
1067 09-12-2019 09:41:17 7.5 C 21 %
1068 09-12-2019 09:51:17 7.7 C 21 %
1069 09-12-2019 10:01:17 7.9 C 21 %
1070 09-12-2019 10:11:17 7.9 C 21 %
1071 09-12-2019 10:21:17 7.9 C 20 %
1072 09-12-2019 10:31:18 7.9 C 21 %
1073 09-12-2019 10:41:18 7.9 C 21 %
1074 09-12-2019 10:51:17 8.1 C 20 %
1075 09-12-2019 11:01:17 8 C 20 %
Sensor: Nr:Datum:Temp:Feuchte:
Aussen-T/F 1076 09-12-2019 11:11:17 8.2 C 20 %
1077 09-12-2019 11:21:17 8.4 C 20 %
1078 09-12-2019 11:31:18 8.4 C 20 %
1079 09-12-2019 11:41:18 8.3 C 20 %
1080 09-12-2019 11:51:17 8.1 C 20 %
1081 09-12-2019 12:01:17 8.2 C 20 %
1082 09-12-2019 12:11:17 8 C 20 %
1083 09-12-2019 12:21:18 8.1 C 20 %
1084 09-12-2019 12:31:17 8.3 C 20 %
1085 09-12-2019 12:41:17 8.2 C 20 %
1086 09-12-2019 12:51:17 8.3 C 20 %
1087 09-12-2019 13:01:18 8.3 C 20 %
1088 09-12-2019 13:11:18 8.3 C 20 %
1089 09-12-2019 13:21:17 8.2 C 20 %
1090 09-12-2019 13:31:17 8.1 C 20 %
1091 09-12-2019 13:41:17 8.5 C 20 %
1092 09-12-2019 13:51:17 8.8 C 20 %
1093 09-12-2019 14:01:17 8.6 C 20 %
1094 09-12-2019 14:11:17 8.5 C 20 %
1095 09-12-2019 14:21:17 8.6 C 20 %
1096 09-12-2019 14:31:17 8.4 C 20 %
1097 09-12-2019 14:41:17 7.9 C 20 %
1098 09-12-2019 14:51:18 8.4 C 20 %
1099 09-12-2019 15:01:17 7.9 C 20 %
1100 09-12-2019 15:11:17 7.3 C 25 %
Sensor: Nr:Datum:Temp:Feuchte:
Aussen-T/F 1101 09-12-2019 15:21:17 7 C 27 %
1102 09-12-2019 15:31:18 7.1 C 26 %
1103 09-12-2019 15:41:18 7.1 C 25 %
1104 09-12-2019 15:51:17 7.4 C 23 %
1105 09-12-2019 16:01:18 7.5 C 20 %
1106 09-12-2019 16:11:18 7.5 C 20 %
1107 09-12-2019 16:21:17 7.6 C 20 %
1108 09-12-2019 16:31:18 7.3 C 20 %
1109 09-12-2019 16:41:18 7.4 C 20 %
1110 09-12-2019 16:51:17 7.3 C 20 %
1111 09-12-2019 17:01:18 7.1 C 20 %
1112 09-12-2019 17:11:18 7.2 C 20 %
1113 09-12-2019 17:21:17 6.7 C 25 %
1114 09-12-2019 17:31:17 6.1 C 32 %
1115 09-12-2019 17:41:17 5.9 C 36 %
1116 09-12-2019 17:51:17 6 C 34 %
1117 09-12-2019 18:01:18 6 C 30 %
1118 09-12-2019 18:11:18 6.1 C 31 %
1119 09-12-2019 18:21:17 6 C 33 %
1120 09-12-2019 18:31:17 5.8 C 35 %
1121 09-12-2019 18:41:17 5.7 C 37 %
1122 09-12-2019 18:51:18 5.7 C 38 %
1123 09-12-2019 19:01:17 5.6 C 35 %
1124 09-12-2019 19:11:17 5.5 C 38 %
1125 09-12-2019 19:21:17 5.6 C 39 %
Sensor: Nr:Datum:Temp:Feuchte:
Aussen-T/F 1126 09-12-2019 19:31:17 5.6 C 38 %
1127 09-12-2019 19:41:17 5.6 C 38 %
1128 09-12-2019 19:51:17 5.6 C 37 %
1129 09-12-2019 20:01:17 5.6 C 35 %
1130 09-12-2019 20:11:17 5.6 C 34 %
1131 09-12-2019 20:21:17 5.6 C 35 %
1132 09-12-2019 20:31:17 5.6 C 32 %
1133 09-12-2019 20:41:17 5.4 C 33 %
1134 09-12-2019 20:51:17 5.3 C 34 %
1135 09-12-2019 21:01:17 5.2 C 33 %
1136 09-12-2019 21:11:18 5.1 C 34 %
1137 09-12-2019 21:21:17 5.2 C 35 %
1138 09-12-2019 21:31:17 5.3 C 32 %
1139 09-12-2019 21:41:17 5.1 C 31 %
1140 09-12-2019 21:51:17 5 C 31 %
1141 09-12-2019 22:01:17 4.8 C 32 %
1142 09-12-2019 22:11:17 4.7 C 31 %
1143 09-12-2019 22:21:17 4.9 C 30 %
1144 09-12-2019 22:31:17 4.9 C 30 %
1145 09-12-2019 22:41:17 4.9 C 30 %
1146 09-12-2019 22:51:18 4.7 C 30 %
1147 09-12-2019 23:01:17 4.6 C 29 %
1148 09-12-2019 23:11:17 4.5 C 29 %
1149 09-12-2019 23:21:17 4.1 C 30 %
1150 09-12-2019 23:31:18 4 C 30 %
Sensor: Nr:Datum:Temp:Feuchte:
Aussen-T/F 1151 09-12-2019 23:41:18 4.1 C 29 %
1152 09-12-2019 23:51:17 4.1 C 29 %
1153 10-12-2019 00:01:17 3.7 C 30 %
1154 10-12-2019 00:11:17 4.1 C 28 %
1155 10-12-2019 00:21:17 3.4 C 30 %
1156 10-12-2019 00:31:17 3.6 C 30 %
1157 10-12-2019 00:41:17 3.1 C 31 %
1158 10-12-2019 00:51:17 3 C 31 %
1159 10-12-2019 01:01:17 2.4 C 33 %
1160 10-12-2019 01:11:17 2.4 C 36 %
1161 10-12-2019 01:21:17 2.5 C 36 %
1162 10-12-2019 01:31:18 2.8 C 34 %
1163 10-12-2019 01:41:18 2.4 C 34 %
1164 10-12-2019 01:51:17 2.4 C 33 %
1165 10-12-2019 02:01:18 2.7 C 33 %
1166 10-12-2019 02:11:18 2.9 C 32 %
1167 10-12-2019 02:21:17 2.3 C 33 %
1168 10-12-2019 02:31:17 2.1 C 35 %
1169 10-12-2019 02:41:17 1.7 C 37 %
1170 10-12-2019 02:51:17 1.6 C 39 %
1171 10-12-2019 03:01:17 1.8 C 40 %
1172 10-12-2019 03:11:17 1.8 C 40 %
1173 10-12-2019 03:21:17 1.8 C 40 %
1174 10-12-2019 03:31:17 2 C 40 %
1175 10-12-2019 03:41:17 1.4 C 41 %
Sensor: Nr:Datum:Temp:Feuchte:
Aussen-T/F 1176 10-12-2019 03:51:17 1.4 C 43 %
1177 10-12-2019 04:01:17 1.1 C 43 %
1178 10-12-2019 04:11:17 1.3 C 41 %
1179 10-12-2019 04:21:17 0.6 C 41 %
1180 10-12-2019 04:31:18 0.6 C 44 %
1181 10-12-2019 04:41:18 0.7 C 45 %
1182 10-12-2019 04:51:17 0.9 C 46 %
1183 10-12-2019 05:01:17 1.1 C 44 %
1184 10-12-2019 05:11:17 1.8 C 41 %
1185 10-12-2019 05:21:18 2.2 C 35 %
1186 10-12-2019 05:31:18 2 C 35 %
1187 10-12-2019 05:41:18 2 C 35 %
1188 10-12-2019 05:51:17 1.8 C 36 %
1189 10-12-2019 06:01:17 1.5 C 36 %
1190 10-12-2019 06:11:17 1.6 C 37 %
1191 10-12-2019 06:21:18 1.4 C 36 %
1192 10-12-2019 06:31:17 1.1 C 38 %
1193 10-12-2019 06:41:17 0.9 C 42 %
1194 10-12-2019 06:51:17 1.2 C 42 %
1195 10-12-2019 07:01:18 1.3 C 40 %
1196 10-12-2019 07:11:18 1.5 C 40 %
1197 10-12-2019 07:21:17 1.7 C 36 %
1198 10-12-2019 07:31:17 1.2 C 37 %
1199 10-12-2019 07:41:17 0.8 C 41 %
1200 10-12-2019 07:51:17 0.8 C 41 %
Sensor: Nr:Datum:Temp:Feuchte:
Aussen-T/F 1201 10-12-2019 08:01:17 0.7 C 41 %
1202 10-12-2019 08:11:17 0.8 C 41 %
1203 10-12-2019 08:21:17 0.4 C 42 %
1204 10-12-2019 08:31:18 0.6 C 42 %
1205 10-12-2019 08:41:18 0.4 C 42 %
1206 10-12-2019 08:51:17 0.4 C 43 %
1207 10-12-2019 09:01:17 0.1 C 42 %
1208 10-12-2019 09:11:17 0.5 C 44 %
1209 10-12-2019 09:21:17 0.8 C 44 %
1210 10-12-2019 09:31:17 1.4 C 42 %
1211 10-12-2019 09:41:17 1.7 C 39 %
1212 10-12-2019 09:51:17 1.8 C 39 %
1213 10-12-2019 10:01:17 2.2 C 36 %
1214 10-12-2019 10:11:17 2.5 C 35 %
1215 10-12-2019 10:21:17 2.7 C 33 %
1216 10-12-2019 10:31:17 2.7 C 33 %
1217 10-12-2019 10:41:17 2.5 C 33 %
1218 10-12-2019 10:51:17 2.4 C 35 %
1219 10-12-2019 11:01:17 2.4 C 34 %
1220 10-12-2019 11:11:17 2.5 C 34 %
1221 10-12-2019 11:21:17 2.3 C 35 %
1222 10-12-2019 11:31:18 2.2 C 36 %
1223 10-12-2019 11:41:18 2.9 C 34 %
1224 10-12-2019 11:51:17 3.5 C 30 %
1225 10-12-2019 12:01:17 3.7 C 30 %
Sensor: Nr:Datum:Temp:Feuchte:
Aussen-T/F 1226 10-12-2019 12:11:17 3.8 C 30 %
1227 10-12-2019 12:21:17 3.9 C 30 %
1228 10-12-2019 12:31:17 3.9 C 30 %
1229 10-12-2019 12:41:17 4.3 C 27 %
1230 10-12-2019 12:51:17 4.5 C 27 %
1231 10-12-2019 13:01:17 4.6 C 27 %
1232 10-12-2019 13:11:17 4.7 C 27 %
1233 10-12-2019 13:21:17 4.7 C 27 %
1234 10-12-2019 13:31:17 4.9 C 27 %
1235 10-12-2019 13:41:17 5.1 C 25 %
1236 10-12-2019 13:51:17 5 C 25 %
1237 10-12-2019 14:01:17 4.6 C 27 %
1238 10-12-2019 14:11:17 4.2 C 28 %
1239 10-12-2019 14:21:17 3.8 C 30 %
1240 10-12-2019 14:31:18 3.9 C 30 %
1241 10-12-2019 14:41:18 3.8 C 30 %
1242 10-12-2019 14:51:17 3.5 C 30 %
1243 10-12-2019 15:01:17 3.5 C 30 %
1244 10-12-2019 15:11:17 3.3 C 31 %
1245 10-12-2019 15:21:17 3.2 C 31 %
1246 10-12-2019 15:31:17 3.1 C 31 %
1247 10-12-2019 15:41:18 3.2 C 31 %
1248 10-12-2019 15:51:17 2.9 C 31 %
1249 10-12-2019 16:01:17 2.4 C 32 %
1250 10-12-2019 16:11:17 3.1 C 31 %
Sensor: Nr:Datum:Temp:Feuchte:
Aussen-T/F 1251 10-12-2019 16:21:17 3.4 C 30 %
1252 10-12-2019 16:31:17 3.5 C 28 %
1253 10-12-2019 16:41:17 3.3 C 28 %
1254 10-12-2019 16:51:17 3.3 C 26 %
1255 10-12-2019 17:01:17 2.8 C 27 %
1256 10-12-2019 17:11:17 2.7 C 27 %
1257 10-12-2019 17:21:18 2.7 C 27 %
1258 10-12-2019 17:31:17 2.7 C 27 %
1259 10-12-2019 17:41:17 2.6 C 27 %
1260 10-12-2019 17:51:17 2.4 C 28 %
1261 10-12-2019 18:01:17 2.3 C 27 %
1262 10-12-2019 18:11:17 1.7 C 31 %
1263 10-12-2019 18:21:17 1.9 C 32 %
1264 10-12-2019 18:31:17 1.8 C 33 %
1265 10-12-2019 18:41:17 1.7 C 34 %
1266 10-12-2019 18:51:17 1.6 C 35 %
1267 10-12-2019 19:01:17 1.5 C 36 %
1268 10-12-2019 19:11:17 1.5 C 36 %
1269 10-12-2019 19:21:17 1.6 C 36 %
1270 10-12-2019 19:31:17 1.5 C 36 %
1271 10-12-2019 19:41:18 1.7 C 36 %
1272 10-12-2019 19:51:17 1.7 C 35 %
1273 10-12-2019 20:01:17 2.2 C 32 %
1274 10-12-2019 20:11:17 2.1 C 32 %
1275 10-12-2019 20:21:17 2.7 C 29 %
Sensor: Nr:Datum:Temp:Feuchte:
Aussen-T/F 1276 10-12-2019 20:31:18 2.9 C 28 %
1277 10-12-2019 20:41:18 2.6 C 30 %
1278 10-12-2019 20:51:17 2.3 C 30 %
1279 10-12-2019 21:01:17 2.5 C 31 %
1280 10-12-2019 21:11:17 2.3 C 31 %
1281 10-12-2019 21:21:17 2.1 C 32 %
1282 10-12-2019 21:31:17 2 C 33 %
1283 10-12-2019 21:41:18 1.8 C 35 %
1284 10-12-2019 21:51:17 1.8 C 36 %
1285 10-12-2019 22:01:17 1.8 C 36 %
1286 10-12-2019 22:11:17 2.1 C 35 %
1287 10-12-2019 22:21:17 2.2 C 34 %
1288 10-12-2019 22:31:17 2.4 C 32 %
1289 10-12-2019 22:41:17 2.5 C 33 %
1290 10-12-2019 22:51:18 2.8 C 31 %
1291 10-12-2019 23:01:17 2.9 C 30 %
1292 10-12-2019 23:11:17 3 C 30 %
1293 10-12-2019 23:21:17 3 C 30 %
1294 10-12-2019 23:31:17 2.9 C 31 %
1295 10-12-2019 23:41:17 3.3 C 28 %
1296 10-12-2019 23:51:17 3.3 C 30 %
1297 11-12-2019 00:01:18 3.2 C 30 %
1298 11-12-2019 00:11:18 3.3 C 29 %
1299 11-12-2019 00:21:17 3.4 C 28 %
1300 11-12-2019 00:31:17 3.4 C 29 %
Sensor: Nr:Datum:Temp:Feuchte:
Aussen-T/F 1301 11-12-2019 00:41:17 3.5 C 27 %
1302 11-12-2019 00:51:17 3.4 C 27 %
1303 11-12-2019 01:01:17 3.5 C 25 %
1304 11-12-2019 01:11:17 3.4 C 27 %
1305 11-12-2019 01:21:18 3.4 C 28 %
1306 11-12-2019 01:31:17 3.4 C 29 %
1307 11-12-2019 01:41:17 3.2 C 30 %
1308 11-12-2019 01:51:17 3.1 C 32 %
1309 11-12-2019 02:01:17 3 C 33 %
1310 11-12-2019 02:11:17 2.9 C 33 %
1311 11-12-2019 02:21:17 2.9 C 32 %
1312 11-12-2019 02:31:18 2.8 C 34 %
1313 11-12-2019 02:41:18 2.9 C 31 %
1314 11-12-2019 02:51:17 3 C 30 %
1315 11-12-2019 03:01:18 3.1 C 30 %
1316 11-12-2019 03:11:18 3 C 32 %
1317 11-12-2019 03:21:17 2.9 C 30 %
1318 11-12-2019 03:31:17 3 C 30 %
1319 11-12-2019 03:41:17 3 C 35 %
1320 11-12-2019 03:51:17 2.8 C 36 %
1321 11-12-2019 04:01:17 2.7 C 35 %
1322 11-12-2019 04:11:17 2.8 C 35 %
1323 11-12-2019 04:21:17 2.8 C 35 %
1324 11-12-2019 04:31:18 2.8 C 38 %
1325 11-12-2019 04:41:18 2.7 C 38 %
Sensor: Nr:Datum:Temp:Feuchte:
Aussen-T/F 1326 11-12-2019 04:51:17 2.7 C 39 %
1327 11-12-2019 05:01:17 2.7 C 39 %
1328 11-12-2019 05:11:17 2.7 C 39 %
1329 11-12-2019 05:21:18 2.7 C 40 %
1330 11-12-2019 05:31:17 2.6 C 42 %
1331 11-12-2019 05:41:17 2.6 C 43 %
1332 11-12-2019 05:51:17 2.5 C 44 %
1333 11-12-2019 06:01:18 2.5 C 44 %
1334 11-12-2019 06:11:18 2.5 C 44 %
1335 11-12-2019 06:21:17 2.5 C 44 %
1336 11-12-2019 06:31:17 2.5 C 44 %
1337 11-12-2019 06:41:17 2.5 C 44 %
1338 11-12-2019 06:51:17 2.5 C 44 %
1339 11-12-2019 07:01:17 2.4 C 44 %
1340 11-12-2019 07:11:17 2.5 C 44 %
1341 11-12-2019 07:21:17 2.4 C 44 %
1342 11-12-2019 07:31:17 2.4 C 44 %
1343 11-12-2019 07:41:18 2.4 C 43 %
1344 11-12-2019 07:51:17 2.4 C 43 %
1345 11-12-2019 08:01:17 2.4 C 43 %
1346 11-12-2019 08:11:17 2.4 C 43 %
1347 11-12-2019 08:21:17 2.4 C 43 %
1348 11-12-2019 08:31:18 2.3 C 43 %
1349 11-12-2019 08:41:18 2.3 C 43 %
1350 11-12-2019 08:51:17 2.3 C 43 %
Sensor: Nr:Datum:Temp:Feuchte:
Aussen-T/F 1351 11-12-2019 09:01:18 2.3 C 43 %
1352 11-12-2019 09:11:18 2.4 C 43 %
1353 11-12-2019 09:21:17 2.5 C 43 %
1354 11-12-2019 09:31:17 2.5 C 43 %
1355 11-12-2019 09:41:17 2.5 C 43 %
1356 11-12-2019 09:51:17 2.5 C 43 %
1357 11-12-2019 10:01:17 2.6 C 43 %
1358 11-12-2019 10:11:17 2.7 C 43 %
1359 11-12-2019 10:21:17 2.7 C 42 %
1360 11-12-2019 10:31:17 2.7 C 42 %
1361 11-12-2019 10:41:17 2.8 C 41 %
1362 11-12-2019 10:51:17 3.1 C 40 %
1363 11-12-2019 11:01:17 3 C 39 %
1364 11-12-2019 11:11:17 3.1 C 39 %
1365 11-12-2019 11:21:17 3.2 C 39 %
1366 11-12-2019 11:31:17 3.1 C 38 %
1367 11-12-2019 11:41:17 3.1 C 38 %
1368 11-12-2019 11:51:17 3.2 C 39 %
1369 11-12-2019 12:01:18 3.2 C 39 %
1370 11-12-2019 12:11:18 3.1 C 39 %
1371 11-12-2019 12:21:17 3.1 C 39 %
1372 11-12-2019 12:31:17 3.1 C 40 %
1373 11-12-2019 12:41:17 3.1 C 40 %
1374 11-12-2019 12:51:17 3.1 C 40 %
1375 11-12-2019 13:01:18 3.2 C 40 %
Sensor: Nr:Datum:Temp:Feuchte:
Aussen-T/F 1376 11-12-2019 13:11:18 3.2 C 40 %
1377 11-12-2019 13:21:17 3.2 C 40 %
1378 11-12-2019 13:31:17 3.2 C 40 %
1379 11-12-2019 13:41:17 3.2 C 40 %
1380 11-12-2019 13:51:17 3.2 C 40 %
1381 11-12-2019 14:01:17 3.2 C 41 %
1382 11-12-2019 14:11:18 3.2 C 41 %
1383 11-12-2019 14:21:17 3.2 C 41 %
1384 11-12-2019 14:31:17 3.3 C 41 %
1385 11-12-2019 14:41:17 3.3 C 42 %
1386 11-12-2019 14:51:17 3.3 C 42 %
1387 11-12-2019 15:01:17 3.3 C 42 %
1388 11-12-2019 15:11:17 3.4 C 42 %
1389 11-12-2019 15:21:17 3.3 C 42 %
1390 11-12-2019 15:31:18 3.3 C 42 %
1391 11-12-2019 15:41:18 3.3 C 42 %
1392 11-12-2019 15:51:17 3.3 C 42 %
1393 11-12-2019 16:01:17 3.2 C 42 %
1394 11-12-2019 16:11:17 3.2 C 42 %
1395 11-12-2019 16:21:17 3.2 C 42 %
1396 11-12-2019 16:31:17 3.2 C 42 %
1397 11-12-2019 16:41:17 3.1 C 42 %
1398 11-12-2019 16:51:17 3.1 C 42 %
1399 11-12-2019 17:01:17 3.1 C 43 %
1400 11-12-2019 17:11:17 3.1 C 42 %
Sensor: Nr:Datum:Temp:Feuchte:
Aussen-T/F 1401 11-12-2019 17:21:17 3.1 C 42 %
1402 11-12-2019 17:31:17 3.1 C 42 %
1403 11-12-2019 17:41:17 3.1 C 42 %
1404 11-12-2019 17:51:18 3.2 C 43 %
1405 11-12-2019 18:01:17 3.2 C 43 %
1406 11-12-2019 18:11:17 3.3 C 43 %
1407 11-12-2019 18:21:17 3.3 C 43 %
1408 11-12-2019 18:31:18 3.4 C 43 %
1409 11-12-2019 18:41:18 3.4 C 43 %
1410 11-12-2019 18:51:17 3.5 C 43 %
1411 11-12-2019 19:01:17 3.5 C 42 %
1412 11-12-2019 19:11:17 3.5 C 42 %
1413 11-12-2019 19:21:18 3.5 C 42 %
1414 11-12-2019 19:31:17 3.5 C 42 %
1415 11-12-2019 19:41:17 3.6 C 42 %
1416 11-12-2019 19:51:18 3.6 C 42 %
1417 11-12-2019 20:01:17 3.6 C 42 %
1418 11-12-2019 20:11:17 3.7 C 42 %
1419 11-12-2019 20:21:17 3.8 C 42 %
1420 11-12-2019 20:31:18 3.8 C 42 %
1421 11-12-2019 20:41:18 3.9 C 42 %
1422 11-12-2019 20:51:17 4.1 C 41 %
1423 11-12-2019 21:01:17 4.1 C 40 %
1424 11-12-2019 21:11:17 4.3 C 39 %
1425 11-12-2019 21:21:17 4.4 C 37 %
Sensor: Nr:Datum:Temp:Feuchte:
Aussen-T/F 1426 11-12-2019 21:31:17 4.1 C 37 %
1427 11-12-2019 21:41:17 4.3 C 37 %
1428 11-12-2019 21:51:17 4.3 C 36 %
1429 11-12-2019 22:01:17 4.5 C 35 %
1430 11-12-2019 22:11:17 4.1 C 35 %
1431 11-12-2019 22:21:17 3.9 C 37 %
1432 11-12-2019 22:31:17 3.6 C 39 %
1433 11-12-2019 22:41:17 3.8 C 39 %
1434 11-12-2019 22:51:18 3.5 C 40 %
1435 11-12-2019 23:01:17 3.8 C 40 %
1436 11-12-2019 23:11:17 3.8 C 40 %
1437 11-12-2019 23:21:17 3.4 C 40 %
1438 11-12-2019 23:31:17 3 C 41 %
1439 11-12-2019 23:41:17 3.4 C 43 %
1440 11-12-2019 23:51:18 3.2 C 42 %
1441 12-12-2019 00:01:17 3 C 42 %
1442 12-12-2019 00:11:17 2.9 C 43 %
1443 12-12-2019 00:21:17 2.8 C 43 %
1444 12-12-2019 00:31:17 2.5 C 43 %
1445 12-12-2019 00:41:17 2.4 C 43 %
1446 12-12-2019 00:51:17 2.3 C 43 %
1447 12-12-2019 01:01:17 2.7 C 44 %
1448 12-12-2019 01:11:17 2.8 C 44 %
1449 12-12-2019 01:21:18 2.6 C 43 %
1450 12-12-2019 01:31:17 2.2 C 43 %
Sensor: Nr:Datum:Temp:Feuchte:
Aussen-T/F 1451 12-12-2019 01:41:17 2.5 C 43 %
1452 12-12-2019 01:51:18 2.1 C 43 %
1453 12-12-2019 02:01:17 1.8 C 44 %
1454 12-12-2019 02:11:17 1.6 C 44 %
1455 12-12-2019 02:21:17 1.7 C 44 %
1456 12-12-2019 02:31:18 1.6 C 44 %
1457 12-12-2019 02:41:18 2 C 43 %
1458 12-12-2019 02:51:17 2 C 43 %
1459 12-12-2019 03:01:17 2.3 C 43 %
1460 12-12-2019 03:11:17 2.4 C 43 %
1461 12-12-2019 03:21:17 2.5 C 43 %
1462 12-12-2019 03:31:17 2.4 C 43 %
1463 12-12-2019 03:41:17 2.5 C 43 %
1464 12-12-2019 03:51:17 2.7 C 43 %
1465 12-12-2019 04:01:17 2.6 C 43 %
1466 12-12-2019 04:11:17 2.7 C 43 %
1467 12-12-2019 04:21:17 2.8 C 43 %
1468 12-12-2019 04:31:17 2.8 C 43 %
1469 12-12-2019 04:41:17 2.9 C 43 %
1470 12-12-2019 04:51:17 2.4 C 42 %
1471 12-12-2019 05:01:17 2 C 42 %
1472 12-12-2019 05:11:17 2.1 C 42 %
1473 12-12-2019 05:21:17 2.2 C 42 %
1474 12-12-2019 05:31:18 2.1 C 42 %
1475 12-12-2019 05:41:18 2.1 C 42 %
Sensor: Nr:Datum:Temp:Feuchte:
Aussen-T/F 1476 12-12-2019 05:51:17 2.1 C 42 %
1477 12-12-2019 06:01:17 1.9 C 43 %
1478 12-12-2019 06:11:17 2 C 42 %
1479 12-12-2019 06:21:17 2.1 C 42 %
1480 12-12-2019 06:31:17 2.1 C 42 %
1481 12-12-2019 06:41:17 2.3 C 42 %
1482 12-12-2019 06:51:17 2.7 C 43 %
1483 12-12-2019 07:01:17 3 C 42 %
1484 12-12-2019 07:11:17 3 C 42 %
1485 12-12-2019 07:21:17 3 C 42 %
1486 12-12-2019 07:31:17 3 C 42 %
1487 12-12-2019 07:41:17 2.8 C 42 %
1488 12-12-2019 07:51:17 2.9 C 42 %
1489 12-12-2019 08:01:17 2.9 C 42 %
1490 12-12-2019 08:11:17 3.1 C 42 %
1491 12-12-2019 08:21:17 3.2 C 42 %
1492 12-12-2019 08:31:18 3.3 C 42 %
1493 12-12-2019 08:41:18 3.5 C 42 %
1494 12-12-2019 08:51:17 3.5 C 42 %
1495 12-12-2019 09:01:18 3.5 C 42 %
1496 12-12-2019 09:11:18 3.6 C 42 %
1497 12-12-2019 09:21:17 3.9 C 42 %
1498 12-12-2019 09:31:17 3.9 C 42 %
1499 12-12-2019 09:41:17 3.7 C 41 %
1500 12-12-2019 09:51:17 3.5 C 41 %
Sensor: Nr:Datum:Temp:Feuchte:
Aussen-T/F 1501 12-12-2019 10:01:17 3.9 C 41 %
1502 12-12-2019 10:11:17 4 C 40 %
1503 12-12-2019 10:21:18 4.4 C 37 %
1504 12-12-2019 10:31:17 4.6 C 35 %
1505 12-12-2019 10:41:17 4.7 C 32 %
1506 12-12-2019 10:51:17 4.8 C 31 %
1507 12-12-2019 11:01:18 4.7 C 32 %
1508 12-12-2019 11:11:18 4.6 C 31 %
1509 12-12-2019 11:21:17 4.4 C 31 %
1510 12-12-2019 11:31:17 4.4 C 32 %
1511 12-12-2019 11:41:17 4.7 C 31 %
1512 12-12-2019 11:51:18 4.9 C 29 %
1513 12-12-2019 12:01:17 5.1 C 29 %
1514 12-12-2019 12:11:17 5.1 C 27 %
1515 12-12-2019 12:21:17 5 C 26 %
1516 12-12-2019 12:31:18 4.7 C 27 %
1517 12-12-2019 12:41:18 4.7 C 28 %
1518 12-12-2019 12:51:17 4.7 C 27 %
1519 12-12-2019 13:01:17 4.6 C 28 %
1520 12-12-2019 13:11:18 5 C 26 %
1521 12-12-2019 13:21:17 4.8 C 27 %
1522 12-12-2019 13:31:17 4.6 C 26 %
1523 12-12-2019 13:41:17 4.2 C 26 %
1524 12-12-2019 13:51:17 4.6 C 25 %
1525 12-12-2019 14:01:17 4.6 C 25 %
Sensor: Nr:Datum:Temp:Feuchte:
Aussen-T/F 1526 12-12-2019 14:11:17 4.3 C 25 %
1527 12-12-2019 14:21:17 4 C 27 %
1528 12-12-2019 14:31:18 4.5 C 25 %
1529 12-12-2019 14:41:18 4.8 C 25 %
1530 12-12-2019 14:51:17 4.7 C 25 %
1531 12-12-2019 15:01:18 4 C 26 %
1532 12-12-2019 15:11:18 4.2 C 26 %
1533 12-12-2019 15:21:17 3.6 C 29 %
1534 12-12-2019 15:31:17 3.5 C 29 %
1535 12-12-2019 15:41:17 3.8 C 28 %
1536 12-12-2019 15:51:17 3.7 C 28 %
1537 12-12-2019 16:01:17 3.6 C 28 %
1538 12-12-2019 16:11:17 3.7 C 26 %
1539 12-12-2019 16:21:18 3.5 C 27 %
1540 12-12-2019 16:31:17 3.4 C 26 %
1541 12-12-2019 16:41:17 3.3 C 28 %
1542 12-12-2019 16:51:17 3.1 C 30 %
1543 12-12-2019 17:01:17 2.6 C 30 %
1544 12-12-2019 17:11:17 1.7 C 35 %
1545 12-12-2019 17:21:17 1.2 C 36 %
1546 12-12-2019 17:31:17 1.1 C 38 %
1547 12-12-2019 17:41:17 0.9 C 41 %
1548 12-12-2019 17:51:17 1 C 40 %
1549 12-12-2019 18:01:17 1.1 C 40 %
1550 12-12-2019 18:11:17 1.1 C 40 %
Sensor: Nr:Datum:Temp:Feuchte:
Aussen-T/F 1551 12-12-2019 18:21:17 1.1 C 40 %
1552 12-12-2019 18:31:17 1 C 40 %
1553 12-12-2019 18:41:17 0.9 C 41 %
1554 12-12-2019 18:51:17 0.7 C 41 %
1555 12-12-2019 19:01:17 0.7 C 41 %
1556 12-12-2019 19:11:17 0.6 C 41 %
1557 12-12-2019 19:21:17 0.6 C 42 %
1558 12-12-2019 19:31:17 0.6 C 42 %
1559 12-12-2019 19:41:17 0.7 C 42 %
1560 12-12-2019 19:51:17 0.7 C 41 %
1561 12-12-2019 20:01:17 0.6 C 41 %
1562 12-12-2019 20:11:17 0.6 C 41 %
1563 12-12-2019 20:21:17 0.6 C 41 %
1564 12-12-2019 20:31:17 0.6 C 41 %
1565 12-12-2019 20:41:17 0.6 C 41 %
1566 12-12-2019 20:51:17 1.3 C 42 %
1567 12-12-2019 21:01:17 1.6 C 38 %
1568 12-12-2019 21:11:17 1.6 C 36 %
1569 12-12-2019 21:21:17 1.3 C 36 %
1570 12-12-2019 21:31:17 1.3 C 35 %
1571 12-12-2019 21:41:17 1 C 35 %
1572 12-12-2019 21:51:17 0.7 C 37 %
1573 12-12-2019 22:01:17 1.2 C 37 %
1574 12-12-2019 22:11:17 0.9 C 37 %
1575 12-12-2019 22:21:18 0.4 C 38 %
Sensor: Nr:Datum:Temp:Feuchte:
Aussen-T/F 1576 12-12-2019 22:31:17 0.3 C 39 %
1577 12-12-2019 22:41:17 0.2 C 40 %
1578 12-12-2019 22:51:17 0.4 C 39 %
1579 12-12-2019 23:01:18 1.1 C 37 %
1580 12-12-2019 23:11:18 1.5 C 35 %
1581 12-12-2019 23:21:17 1.9 C 32 %
1582 12-12-2019 23:31:17 1.6 C 31 %
1583 12-12-2019 23:41:17 1.4 C 32 %
1584 12-12-2019 23:51:17 1.5 C 31 %
1585 13-12-2019 00:01:17 0.9 C 33 %
1586 13-12-2019 00:11:17 0.6 C 35 %
1587 13-12-2019 00:21:17 1 C 33 %
1588 13-12-2019 00:31:18 0.7 C 34 %
1589 13-12-2019 00:41:18 0.9 C 35 %
1590 13-12-2019 00:51:17 1.3 C 32 %
1591 13-12-2019 01:01:18 1.7 C 30 %
1592 13-12-2019 01:11:18 1.8 C 29 %
1593 13-12-2019 01:21:17 2 C 27 %
1594 13-12-2019 01:31:17 1.9 C 28 %
1595 13-12-2019 01:41:17 2 C 27 %
1596 13-12-2019 01:51:17 2 C 27 %
1597 13-12-2019 02:01:18 1.9 C 29 %
1598 13-12-2019 02:11:18 2 C 27 %
1599 13-12-2019 02:21:17 2 C 27 %
1600 13-12-2019 02:31:17 2 C 27 %
Sensor: Nr:Datum:Temp:Feuchte:
Aussen-T/F 1601 13-12-2019 02:41:17 2 C 27 %
1602 13-12-2019 02:51:17 2 C 27 %
1603 13-12-2019 03:01:17 1.8 C 29 %
1604 13-12-2019 03:11:17 1.8 C 30 %
1605 13-12-2019 03:21:17 1.7 C 30 %
1606 13-12-2019 03:31:17 1.6 C 30 %
1607 13-12-2019 03:41:17 1.7 C 30 %
1608 13-12-2019 03:51:17 1.6 C 31 %
1609 13-12-2019 04:01:17 1.4 C 32 %
1610 13-12-2019 04:11:17 1.5 C 32 %
1611 13-12-2019 04:21:17 1.6 C 32 %
1612 13-12-2019 04:31:17 1.6 C 32 %
1613 13-12-2019 04:41:17 1.6 C 32 %
1614 13-12-2019 04:51:17 1.4 C 34 %
1615 13-12-2019 05:01:17 1.4 C 35 %
1616 13-12-2019 05:11:17 1.5 C 34 %
1617 13-12-2019 05:21:17 1.5 C 34 %
1618 13-12-2019 05:31:18 1.7 C 33 %
1619 13-12-2019 05:41:18 1.7 C 32 %
1620 13-12-2019 05:51:17 1.8 C 33 %
1621 13-12-2019 06:01:17 1.9 C 32 %
1622 13-12-2019 06:11:17 2 C 31 %
1623 13-12-2019 06:21:17 2 C 31 %
1624 13-12-2019 06:31:17 2 C 32 %
1625 13-12-2019 06:41:17 1.7 C 35 %
Sensor: Nr:Datum:Temp:Feuchte:
Aussen-T/F 1626 13-12-2019 06:51:17 1.8 C 37 %
1627 13-12-2019 07:01:17 1.8 C 37 %
1628 13-12-2019 07:11:18 1.7 C 39 %
1629 13-12-2019 07:21:17 1.8 C 38 %
1630 13-12-2019 07:31:17 1.8 C 40 %
1631 13-12-2019 07:41:17 1.8 C 39 %
1632 13-12-2019 07:51:17 1.9 C 38 %
1633 13-12-2019 08:01:17 1.8 C 38 %
1634 13-12-2019 08:11:17 1.8 C 39 %
1635 13-12-2019 08:21:17 1.7 C 40 %
1636 13-12-2019 08:31:17 1.7 C 41 %
1637 13-12-2019 08:41:17 1.6 C 41 %
1638 13-12-2019 08:51:17 1.7 C 41 %
1639 13-12-2019 09:01:17 1.9 C 40 %
1640 13-12-2019 09:11:17 1.9 C 40 %
1641 13-12-2019 09:21:17 1.9 C 40 %
1642 13-12-2019 09:31:17 1.7 C 42 %
1643 13-12-2019 09:41:17 1.7 C 42 %
1644 13-12-2019 09:51:18 1.9 C 43 %
1645 13-12-2019 10:01:17 1.8 C 43 %
1646 13-12-2019 10:11:17 1.9 C 43 %
1647 13-12-2019 10:21:18 2 C 41 %
1648 13-12-2019 10:31:17 2.2 C 41 %
1649 13-12-2019 10:41:17 2.3 C 41 %
1650 13-12-2019 10:51:18 2.3 C 41 %
Sensor: Nr:Datum:Temp:Feuchte:
Aussen-T/F 1651 13-12-2019 11:01:17 2.4 C 41 %
1652 13-12-2019 11:11:17 2.3 C 40 %
1653 13-12-2019 11:21:17 2.3 C 40 %
1654 13-12-2019 11:31:17 2.4 C 41 %
1655 13-12-2019 11:41:17 2.5 C 41 %
1656 13-12-2019 11:51:18 2.8 C 42 %
1657 13-12-2019 12:01:17 3 C 41 %
1658 13-12-2019 12:11:17 3.1 C 39 %
1659 13-12-2019 12:21:17 3.2 C 38 %
1660 13-12-2019 12:31:17 3.5 C 38 %
1661 13-12-2019 12:41:17 3.5 C 38 %
1662 13-12-2019 12:51:18 3.6 C 38 %
1663 13-12-2019 13:01:18 3.8 C 39 %
1664 13-12-2019 13:11:18 4.1 C 37 %
1665 13-12-2019 13:21:17 4.6 C 38 %
1666 13-12-2019 13:31:17 5.2 C 35 %
1667 13-12-2019 13:41:17 5.7 C 35 %
1668 13-12-2019 13:51:17 6.4 C 31 %
1669 13-12-2019 14:01:17 6.7 C 30 %
1670 13-12-2019 14:11:17 7 C 28 %
1671 13-12-2019 14:21:17 6.8 C 29 %
1672 13-12-2019 14:31:17 6.8 C 28 %
1673 13-12-2019 14:41:17 6.7 C 28 %
1674 13-12-2019 14:51:18 6.4 C 29 %
1675 13-12-2019 15:01:18 6.3 C 29 %
Sensor: Nr:Datum:Temp:Feuchte:
Aussen-T/F 1676 13-12-2019 15:11:18 6.3 C 29 %
1677 13-12-2019 15:21:17 6.2 C 30 %
1678 13-12-2019 15:31:17 5.9 C 30 %
1679 13-12-2019 15:41:17 5.8 C 31 %
1680 13-12-2019 15:51:17 5.5 C 31 %
1681 13-12-2019 16:01:18 5.3 C 30 %
1682 13-12-2019 16:11:18 5.4 C 30 %
1683 13-12-2019 16:21:17 5.3 C 30 %
1684 13-12-2019 16:31:17 5.1 C 30 %
1685 13-12-2019 16:41:17 4.8 C 31 %
1686 13-12-2019 16:51:17 4.5 C 31 %
1687 13-12-2019 17:01:17 4.6 C 31 %
1688 13-12-2019 17:11:17 4.5 C 31 %
1689 13-12-2019 17:21:17 4.3 C 34 %
1690 13-12-2019 17:31:18 4.3 C 34 %
1691 13-12-2019 17:41:18 4.2 C 33 %
1692 13-12-2019 17:51:17 4 C 33 %
1693 13-12-2019 18:01:17 3.8 C 36 %
1694 13-12-2019 18:11:17 3.7 C 40 %
1695 13-12-2019 18:21:17 3.8 C 39 %
1696 13-12-2019 18:31:17 3.8 C 40 %
1697 13-12-2019 18:41:18 3.8 C 39 %
1698 13-12-2019 18:51:17 3.9 C 36 %
1699 13-12-2019 19:01:17 3.9 C 36 %
1700 13-12-2019 19:11:17 3.9 C 35 %
Sensor: Nr:Datum:Temp:Feuchte:
Aussen-T/F 1701 13-12-2019 19:21:17 4 C 34 %
1702 13-12-2019 19:31:17 4.1 C 35 %
1703 13-12-2019 19:41:17 4 C 36 %
1704 13-12-2019 19:51:17 4.6 C 32 %
1705 13-12-2019 20:01:17 4.6 C 32 %
1706 13-12-2019 20:11:17 4.8 C 31 %
1707 13-12-2019 20:21:17 4.7 C 31 %
1708 13-12-2019 20:31:17 4.7 C 31 %
1709 13-12-2019 20:41:17 4.7 C 32 %
1710 13-12-2019 20:51:17 4.5 C 32 %
1711 13-12-2019 21:01:17 4.3 C 34 %
1712 13-12-2019 21:11:17 4 C 36 %
1713 13-12-2019 21:21:17 4.5 C 35 %
1714 13-12-2019 21:31:18 4.4 C 33 %
1715 13-12-2019 21:41:18 4.4 C 35 %
1716 13-12-2019 21:51:17 4.6 C 32 %
1717 13-12-2019 22:01:17 4.6 C 31 %
1718 13-12-2019 22:11:17 4.6 C 30 %
1719 13-12-2019 22:21:17 4.7 C 30 %
1720 13-12-2019 22:31:18 4.7 C 30 %
1721 13-12-2019 22:41:18 3.8 C 34 %
1722 13-12-2019 22:51:17 3.8 C 36 %
1723 13-12-2019 23:01:17 4.5 C 32 %
1724 13-12-2019 23:11:17 5.1 C 29 %
1725 13-12-2019 23:21:17 5.2 C 28 %
Sensor: Nr:Datum:Temp:Feuchte:
Aussen-T/F 1726 13-12-2019 23:31:17 5.2 C 28 %
1727 13-12-2019 23:41:17 5 C 30 %
1728 13-12-2019 23:51:17 5 C 30 %
1729 14-12-2019 00:01:17 4.4 C 32 %
1730 14-12-2019 00:11:17 4.5 C 30 %
1731 14-12-2019 00:21:17 4.6 C 30 %
1732 14-12-2019 00:31:18 4.3 C 33 %
1733 14-12-2019 00:41:18 4.7 C 32 %
1734 14-12-2019 00:51:17 5.1 C 28 %
1735 14-12-2019 01:01:17 5.4 C 27 %
1736 14-12-2019 01:11:17 5.3 C 27 %
1737 14-12-2019 01:21:17 5.2 C 26 %
1738 14-12-2019 01:31:17 5.1 C 26 %
1739 14-12-2019 01:41:17 5.3 C 25 %
1740 14-12-2019 01:51:17 5.2 C 25 %
1741 14-12-2019 02:01:17 5 C 26 %
1742 14-12-2019 02:11:17 4.5 C 30 %
1743 14-12-2019 02:21:17 4.6 C 29 %
1744 14-12-2019 02:31:18 4.7 C 29 %
1745 14-12-2019 02:41:18 4.8 C 28 %
1746 14-12-2019 02:51:17 4.5 C 30 %
1747 14-12-2019 03:01:18 4.2 C 33 %
1748 14-12-2019 03:11:18 4.1 C 36 %
1749 14-12-2019 03:21:17 3.9 C 38 %
1750 14-12-2019 03:31:17 3.9 C 39 %
Sensor: Nr:Datum:Temp:Feuchte:
Aussen-T/F 1751 14-12-2019 03:41:17 3.9 C 36 %
1752 14-12-2019 03:51:18 3.8 C 36 %
1753 14-12-2019 04:01:17 3.8 C 40 %
1754 14-12-2019 04:11:17 3.8 C 41 %
1755 14-12-2019 04:21:17 3.7 C 42 %
1756 14-12-2019 04:31:18 3.5 C 42 %
1757 14-12-2019 04:41:18 3.5 C 42 %
1758 14-12-2019 04:51:17 3.4 C 42 %
1759 14-12-2019 05:01:17 3.4 C 41 %
1760 14-12-2019 05:11:17 3.4 C 41 %
1761 14-12-2019 05:21:17 3.4 C 42 %
1762 14-12-2019 05:31:18 3.4 C 42 %
1763 14-12-2019 05:41:18 3.4 C 43 %
1764 14-12-2019 05:51:17 3.4 C 43 %
1765 14-12-2019 06:01:18 3.4 C 42 %
1766 14-12-2019 06:11:18 3.7 C 43 %
1767 14-12-2019 06:21:17 4 C 42 %
1768 14-12-2019 06:31:17 5 C 40 %
1769 14-12-2019 06:41:17 5.2 C 39 %
1770 14-12-2019 06:51:18 5.6 C 36 %
1771 14-12-2019 07:01:17 5.6 C 36 %
1772 14-12-2019 07:11:18 5.7 C 36 %
1773 14-12-2019 07:21:17 5.8 C 36 %
1774 14-12-2019 07:31:17 5.8 C 36 %
1775 14-12-2019 07:41:17 6.3 C 37 %
Sensor: Nr:Datum:Temp:Feuchte:
Aussen-T/F 1776 14-12-2019 07:51:17 6.5 C 36 %
1777 14-12-2019 08:01:17 6.8 C 35 %
1778 14-12-2019 08:11:17 7 C 28 %
1779 14-12-2019 08:21:17 7.2 C 26 %
1780 14-12-2019 08:31:18 7.1 C 25 %
1781 14-12-2019 08:41:18 6.9 C 25 %
1782 14-12-2019 08:51:17 6.7 C 25 %
1783 14-12-2019 09:01:17 6.9 C 23 %
1784 14-12-2019 09:11:17 6.7 C 23 %
1785 14-12-2019 09:21:18 6.5 C 23 %
1786 14-12-2019 09:31:18 6.7 C 20 %
1787 14-12-2019 09:41:18 6.5 C 21 %
1788 14-12-2019 09:51:17 6.7 C 21 %
1789 14-12-2019 10:01:17 6.7 C 21 %
1790 14-12-2019 10:11:17 6.6 C 23 %
1791 14-12-2019 10:21:17 6.6 C 25 %
1792 14-12-2019 10:31:17 6.7 C 25 %
1793 14-12-2019 10:41:17 6.4 C 26 %
1794 14-12-2019 10:51:17 5.9 C 29 %
1795 14-12-2019 11:01:18 5.9 C 29 %
1796 14-12-2019 11:11:18 6.4 C 27 %
1797 14-12-2019 11:21:17 6.7 C 26 %
1798 14-12-2019 11:31:17 6.3 C 26 %
1799 14-12-2019 11:41:17 6.4 C 25 %
1800 14-12-2019 11:51:17 6.9 C 20 %
Sensor: Nr:Datum:Temp:Feuchte:
Aussen-T/F 1801 14-12-2019 12:01:17 7 C 20 %
1802 14-12-2019 12:11:17 7.2 C 20 %
1803 14-12-2019 12:21:18 7 C 20 %
1804 14-12-2019 12:31:17 7.3 C 20 %
1805 14-12-2019 12:41:17 7.6 C 20 %
1806 14-12-2019 12:51:17 7.8 C 20 %
1807 14-12-2019 13:01:17 7.9 C 20 %
1808 14-12-2019 13:11:17 8 C 20 %
1809 14-12-2019 13:21:17 8.4 C 20 %
1810 14-12-2019 13:31:17 8.4 C 20 %
1811 14-12-2019 13:41:17 8.3 C 20 %
1812 14-12-2019 13:51:17 8.4 C 20 %
1813 14-12-2019 14:01:18 8.5 C 20 %
1814 14-12-2019 14:11:18 8.4 C 20 %
1815 14-12-2019 14:21:17 8.4 C 20 %
1816 14-12-2019 14:31:18 8.7 C 20 %
1817 14-12-2019 14:41:18 8.8 C 20 %
1818 14-12-2019 14:51:18 8.6 C 20 %
1819 14-12-2019 15:01:17 7.3 C 23 %
1820 14-12-2019 15:11:17 6.8 C 28 %
1821 14-12-2019 15:21:17 6.6 C 30 %
1822 14-12-2019 15:31:17 6.7 C 28 %
1823 14-12-2019 15:41:18 6.8 C 28 %
1824 14-12-2019 15:51:17 7.1 C 26 %
1825 14-12-2019 16:01:17 7 C 26 %
Sensor: Nr:Datum:Temp:Feuchte:
Aussen-T/F 1826 14-12-2019 16:11:17 6.9 C 26 %
1827 14-12-2019 16:21:17 6.9 C 27 %
1828 14-12-2019 16:31:18 7.2 C 25 %
1829 14-12-2019 16:41:18 7.6 C 25 %
1830 14-12-2019 16:51:17 7.5 C 25 %
1831 14-12-2019 17:01:17 7.6 C 25 %
1832 14-12-2019 17:11:17 7.6 C 25 %
1833 14-12-2019 17:21:17 7.4 C 25 %
1834 14-12-2019 17:31:18 7.2 C 26 %
1835 14-12-2019 17:41:18 6.9 C 27 %
1836 14-12-2019 17:51:17 7.1 C 26 %
1837 14-12-2019 18:01:17 7.1 C 26 %
1838 14-12-2019 18:11:17 7.3 C 26 %
1839 14-12-2019 18:22:17 7.6 C 25 %
1840 14-12-2019 18:31:17 7.8 C 25 %
1841 14-12-2019 18:41:17 7.4 C 25 %
1842 14-12-2019 18:52:17 7 C 26 %
1843 14-12-2019 19:01:18 6.7 C 27 %
1844 14-12-2019 19:11:18 6.2 C 28 %
1845 14-12-2019 19:21:17 6.4 C 26 %
1846 14-12-2019 19:31:17 6.1 C 26 %
1847 14-12-2019 19:41:17 6.4 C 25 %
1848 14-12-2019 19:52:17 6.4 C 25 %
1849 14-12-2019 20:01:18 6.6 C 25 %
1850 14-12-2019 20:11:18 6.7 C 25 %
Sensor: Nr:Datum:Temp:Feuchte:
Aussen-T/F 1851 14-12-2019 20:21:17 6.9 C 25 %
1852 14-12-2019 20:31:17 5.8 C 27 %
1853 14-12-2019 20:41:17 5.9 C 27 %
1854 14-12-2019 20:52:17 7 C 25 %
1855 14-12-2019 21:01:17 7.2 C 25 %
1856 14-12-2019 21:11:17 7 C 25 %
1857 14-12-2019 21:22:17 7.1 C 25 %
1858 14-12-2019 21:31:18 6.7 C 26 %
1859 14-12-2019 21:41:18 6.8 C 26 %
1860 14-12-2019 21:52:17 6.9 C 26 %
1861 14-12-2019 22:02:17 7.1 C 25 %
1862 14-12-2019 22:11:17 6.8 C 26 %
1863 14-12-2019 22:22:17 6.9 C 26 %
1864 14-12-2019 22:31:17 7.3 C 25 %
1865 14-12-2019 22:41:17 7 C 26 %
1866 14-12-2019 22:52:17 7.3 C 25 %
1867 14-12-2019 23:02:17 7.1 C 25 %
1868 14-12-2019 23:12:17 7.3 C 25 %
1869 14-12-2019 23:22:17 7 C 26 %
1870 14-12-2019 23:31:18 7 C 26 %
1871 14-12-2019 23:41:18 7.4 C 25 %
1872 14-12-2019 23:51:18 7 C 25 %
1873 15-12-2019 00:02:17 6.4 C 27 %
1874 15-12-2019 00:11:17 6 C 28 %
1875 15-12-2019 00:22:17 5.6 C 30 %
Sensor: Nr:Datum:Temp:Feuchte:
Aussen-T/F 1876 15-12-2019 00:31:18 5.3 C 31 %
1877 15-12-2019 00:41:18 5.1 C 32 %
1878 15-12-2019 00:52:17 5.2 C 32 %
1879 15-12-2019 01:02:17 5.2 C 32 %
1880 15-12-2019 01:12:17 5.3 C 33 %
1881 15-12-2019 01:22:17 5.5 C 33 %
1882 15-12-2019 01:31:18 5.7 C 31 %
1883 15-12-2019 01:41:18 5.6 C 31 %
1884 15-12-2019 01:52:17 5.6 C 31 %
1885 15-12-2019 02:02:17 5.9 C 31 %
1886 15-12-2019 02:12:17 5.8 C 32 %
1887 15-12-2019 02:22:17 5.9 C 32 %
1888 15-12-2019 02:32:18 5.7 C 35 %
1889 15-12-2019 02:42:18 5.8 C 37 %
1890 15-12-2019 02:52:17 5.9 C 39 %
1891 15-12-2019 03:02:18 5.9 C 40 %
1892 15-12-2019 03:12:18 5.9 C 41 %
1893 15-12-2019 03:22:17 6 C 41 %
1894 15-12-2019 03:32:17 6 C 42 %
1895 15-12-2019 03:42:17 6.3 C 42 %
1896 15-12-2019 03:52:17 6.4 C 42 %
1897 15-12-2019 04:02:17 6.8 C 42 %
1898 15-12-2019 04:12:17 7.3 C 41 %
1899 15-12-2019 04:22:17 7.3 C 41 %
1900 15-12-2019 04:32:17 7.5 C 41 %
Sensor: Nr:Datum:Temp:Feuchte:
Aussen-T/F 1901 15-12-2019 04:42:17 7.9 C 40 %
1902 15-12-2019 04:52:17 8 C 39 %
1903 15-12-2019 05:02:17 8.2 C 38 %
1904 15-12-2019 05:12:17 8.2 C 37 %
1905 15-12-2019 05:22:17 8.4 C 37 %
1906 15-12-2019 05:32:18 9 C 34 %
1907 15-12-2019 05:42:18 10 C 30 %
1908 15-12-2019 05:52:17 10.2 C 30 %
1909 15-12-2019 06:02:17 10.3 C 29 %
1910 15-12-2019 06:12:17 10.3 C 29 %
1911 15-12-2019 06:22:17 10.1 C 29 %
1912 15-12-2019 06:32:17 10.5 C 28 %
1913 15-12-2019 06:42:17 10.8 C 27 %
1914 15-12-2019 06:52:17 10.7 C 27 %
1915 15-12-2019 07:02:17 10.5 C 27 %
1916 15-12-2019 07:12:17 10.9 C 27 %
1917 15-12-2019 07:22:17 10.3 C 27 %
1918 15-12-2019 07:32:17 10.6 C 27 %
1919 15-12-2019 07:42:17 10.5 C 27 %
1920 15-12-2019 07:52:17 10.7 C 27 %
1921 15-12-2019 08:02:17 10.7 C 27 %
1922 15-12-2019 08:12:17 11 C 26 %
1923 15-12-2019 08:22:17 10.9 C 27 %
1924 15-12-2019 08:32:18 10.6 C 27 %
1925 15-12-2019 08:42:18 10.2 C 28 %
Sensor: Nr:Datum:Temp:Feuchte:
Aussen-T/F 1926 15-12-2019 08:52:17 9.5 C 34 %
1927 15-12-2019 09:02:17 9.2 C 34 %
1928 15-12-2019 09:12:17 8.9 C 35 %
1929 15-12-2019 09:22:17 8.7 C 33 %
1930 15-12-2019 09:32:17 8.5 C 34 %
1931 15-12-2019 09:42:17 8.2 C 35 %
1932 15-12-2019 09:52:18 8 C 36 %
1933 15-12-2019 10:02:18 8.1 C 34 %
1934 15-12-2019 10:12:18 8.2 C 32 %
1935 15-12-2019 10:22:18 8.2 C 34 %
1936 15-12-2019 10:32:17 8.1 C 33 %
1937 15-12-2019 10:42:17 8.5 C 31 %
1938 15-12-2019 10:52:17 8.7 C 30 %
1939 15-12-2019 11:02:17 8.4 C 30 %
1940 15-12-2019 11:12:17 8.5 C 30 %
1941 15-12-2019 11:22:17 8.5 C 28 %
1942 15-12-2019 11:32:17 8.6 C 28 %
1943 15-12-2019 11:42:17 8.6 C 28 %
1944 15-12-2019 11:52:17 8.3 C 27 %
1945 15-12-2019 12:02:17 8.3 C 27 %
1946 15-12-2019 12:12:17 8.1 C 27 %
1947 15-12-2019 12:22:17 8.1 C 28 %
1948 15-12-2019 12:32:17 7.9 C 29 %
1949 15-12-2019 12:42:17 8.2 C 28 %
1950 15-12-2019 12:52:18 8.4 C 28 %
Sensor: Nr:Datum:Temp:Feuchte:
Aussen-T/F 1951 15-12-2019 13:02:18 8.7 C 27 %
1952 15-12-2019 13:12:18 9.1 C 25 %
1953 15-12-2019 13:22:17 9.3 C 23 %
1954 15-12-2019 13:32:17 9.2 C 21 %
1955 15-12-2019 13:42:17 9.2 C 20 %
1956 15-12-2019 13:52:18 9.2 C 20 %
1957 15-12-2019 14:02:17 9.2 C 20 %
1958 15-12-2019 14:12:17 9.3 C 20 %
1959 15-12-2019 14:22:17 9.3 C 20 %
1960 15-12-2019 14:32:17 9.1 C 20 %
1961 15-12-2019 14:42:17 9.1 C 20 %
1962 15-12-2019 14:52:17 9 C 20 %
1963 15-12-2019 15:02:17 9 C 20 %
1964 15-12-2019 15:12:17 8.9 C 20 %
1965 15-12-2019 15:22:17 8.9 C 20 %
1966 15-12-2019 15:32:17 8.8 C 20 %
1967 15-12-2019 15:42:17 8.7 C 20 %
1968 15-12-2019 15:52:17 8.7 C 20 %
1969 15-12-2019 16:02:17 8.4 C 20 %
1970 15-12-2019 16:12:17 8.2 C 20 %
1971 15-12-2019 16:22:18 8.4 C 20 %
1972 15-12-2019 16:32:17 7.9 C 20 %
1973 15-12-2019 16:42:17 7.6 C 20 %
1974 15-12-2019 16:52:17 8 C 20 %
1975 15-12-2019 17:02:17 7.4 C 20 %
Sensor: Nr:Datum:Temp:Feuchte:
Aussen-T/F 1976 15-12-2019 17:12:17 7.4 C 20 %
1977 15-12-2019 17:22:17 7.8 C 20 %
1978 15-12-2019 17:32:17 7.2 C 21 %
1979 15-12-2019 17:42:17 7.6 C 20 %
1980 15-12-2019 17:52:17 7.7 C 20 %
1981 15-12-2019 18:02:17 7.5 C 20 %
1982 15-12-2019 18:12:17 8.2 C 20 %
1983 15-12-2019 18:22:17 7.5 C 20 %
1984 15-12-2019 18:32:17 6.9 C 25 %
1985 15-12-2019 18:42:17 6.2 C 27 %
1986 15-12-2019 18:52:18 5.9 C 29 %
1987 15-12-2019 19:02:17 5.4 C 30 %
1988 15-12-2019 19:12:17 5.3 C 31 %
1989 15-12-2019 19:22:17 4.9 C 32 %
1990 15-12-2019 19:32:18 5.3 C 32 %
1991 15-12-2019 19:42:18 5 C 33 %
1992 15-12-2019 19:52:17 5.4 C 33 %
1993 15-12-2019 20:02:17 5.2 C 33 %
1994 15-12-2019 20:12:17 4.7 C 35 %
1995 15-12-2019 20:22:17 4.4 C 36 %
1996 15-12-2019 20:32:17 4.3 C 37 %
1997 15-12-2019 20:42:17 3.9 C 39 %
1998 15-12-2019 20:52:17 3.7 C 40 %
1999 15-12-2019 21:02:17 3.5 C 41 %
2000 15-12-2019 21:12:17 3.3 C 41 %
Sensor: Nr:Datum:Temp:Feuchte:
Aussen-T/F 2001 15-12-2019 21:22:17 3.1 C 41 %
2002 15-12-2019 21:32:18 2.8 C 42 %
2003 15-12-2019 21:42:18 2.9 C 43 %
2004 15-12-2019 21:52:17 3.3 C 43 %
2005 15-12-2019 22:02:17 3.3 C 44 %
2006 15-12-2019 22:12:17 3.3 C 43 %
2007 15-12-2019 22:22:17 3.5 C 43 %
2008 15-12-2019 22:32:17 3.5 C 43 %
2009 15-12-2019 22:42:17 3.4 C 43 %
2010 15-12-2019 22:52:18 3.3 C 43 %
2011 15-12-2019 23:02:17 3.5 C 43 %
2012 15-12-2019 23:12:18 3.6 C 43 %
2013 15-12-2019 23:22:17 3.7 C 43 %
2014 15-12-2019 23:32:18 3.5 C 42 %
2015 15-12-2019 23:42:18 3.3 C 42 %
2016 15-12-2019 23:52:17 3.8 C 43 %
2017 16-12-2019 00:02:17 4 C 42 %
2018 16-12-2019 00:12:17 4.4 C 42 %
2019 16-12-2019 00:22:17 4.4 C 42 %
2020 16-12-2019 00:32:17 4.5 C 42 %
2021 16-12-2019 00:42:17 4.5 C 42 %
2022 16-12-2019 00:52:18 4.7 C 42 %
2023 16-12-2019 01:02:17 5.1 C 41 %
2024 16-12-2019 01:12:17 5 C 41 %
2025 16-12-2019 01:22:17 5.2 C 42 %
Sensor: Nr:Datum:Temp:Feuchte:
Aussen-T/F 2026 16-12-2019 01:32:17 5.2 C 41 %
2027 16-12-2019 01:42:18 5.3 C 42 %
2028 16-12-2019 01:52:17 5.5 C 42 %
2029 16-12-2019 02:02:18 5.4 C 42 %
2030 16-12-2019 02:12:18 5.5 C 42 %
2031 16-12-2019 02:22:17 5.7 C 42 %
2032 16-12-2019 02:32:17 5.7 C 42 %
2033 16-12-2019 02:42:17 5.9 C 42 %
2034 16-12-2019 02:52:18 5.8 C 41 %
2035 16-12-2019 03:02:17 5.8 C 41 %
2036 16-12-2019 03:12:17 5.9 C 41 %
2037 16-12-2019 03:22:17 5.9 C 41 %
2038 16-12-2019 03:32:18 5.9 C 41 %
2039 16-12-2019 03:42:18 5.8 C 41 %
2040 16-12-2019 03:52:17 6 C 41 %
2041 16-12-2019 04:02:17 6 C 41 %
2042 16-12-2019 04:12:17 6 C 41 %
2043 16-12-2019 04:22:17 5.9 C 41 %
2044 16-12-2019 04:32:17 6.1 C 41 %
2045 16-12-2019 04:42:17 6.2 C 41 %
2046 16-12-2019 04:52:17 6.3 C 41 %
2047 16-12-2019 05:02:17 6.4 C 41 %
2048 16-12-2019 05:12:17 6.4 C 41 %
2049 16-12-2019 05:22:17 6.5 C 41 %
2050 16-12-2019 05:32:17 6.6 C 41 %
Sensor: Nr:Datum:Temp:Feuchte:
Aussen-T/F 2051 16-12-2019 05:42:17 6.6 C 41 %
2052 16-12-2019 05:52:17 6.8 C 41 %
2053 16-12-2019 06:02:17 6.9 C 41 %
2054 16-12-2019 06:12:17 6.9 C 41 %
2055 16-12-2019 06:22:17 6.8 C 40 %
2056 16-12-2019 06:32:17 6.7 C 40 %
2057 16-12-2019 06:42:17 6.8 C 40 %
2058 16-12-2019 06:52:17 6.8 C 40 %
2059 16-12-2019 07:02:17 6.8 C 40 %
2060 16-12-2019 07:12:17 6.7 C 40 %
2061 16-12-2019 07:22:17 6.8 C 40 %
2062 16-12-2019 07:32:18 6.9 C 41 %
2063 16-12-2019 07:42:18 6.9 C 41 %
2064 16-12-2019 07:52:17 7 C 40 %
2065 16-12-2019 08:02:17 7.1 C 40 %
2066 16-12-2019 08:12:17 7 C 40 %
2067 16-12-2019 08:22:17 7.1 C 40 %
2068 16-12-2019 08:32:17 7.1 C 40 %
2069 16-12-2019 08:42:17 7.1 C 40 %
2070 16-12-2019 08:52:17 7.2 C 40 %
2071 16-12-2019 09:02:17 7.3 C 40 %
2072 16-12-2019 09:12:17 7.5 C 40 %
2073 16-12-2019 09:22:18 7.4 C 40 %
2074 16-12-2019 09:32:17 7.5 C 40 %
2075 16-12-2019 09:42:17 7.5 C 40 %
Sensor: Nr:Datum:Temp:Feuchte:
Aussen-T/F 2076 16-12-2019 09:52:17 7.6 C 40 %
2077 16-12-2019 10:02:18 7.6 C 40 %
2078 16-12-2019 10:12:18 7.7 C 40 %
2079 16-12-2019 10:22:17 7.8 C 40 %
2080 16-12-2019 10:32:17 7.9 C 40 %
2081 16-12-2019 10:42:17 8.1 C 40 %
2082 16-12-2019 10:52:17 8.2 C 40 %
2083 16-12-2019 11:02:17 8.3 C 40 %
2084 16-12-2019 11:12:17 8.5 C 40 %
2085 16-12-2019 11:22:17 8.9 C 40 %
2086 16-12-2019 11:32:18 8.8 C 39 %
2087 16-12-2019 11:42:18 9.1 C 39 %
2088 16-12-2019 11:52:17 9.4 C 39 %
2089 16-12-2019 12:02:17 9.3 C 38 %
2090 16-12-2019 12:12:17 9.3 C 37 %
2091 16-12-2019 12:22:17 9.3 C 37 %
2092 16-12-2019 12:32:17 9.4 C 37 %
2093 16-12-2019 12:42:17 9.4 C 38 %
2094 16-12-2019 12:52:17 9.8 C 38 %
2095 16-12-2019 13:02:17 9.9 C 36 %
2096 16-12-2019 13:12:17 9.9 C 36 %
2097 16-12-2019 13:22:17 10 C 35 %
2098 16-12-2019 13:32:17 10.2 C 34 %
2099 16-12-2019 13:42:17 10.2 C 35 %
2100 16-12-2019 13:52:18 10.3 C 34 %
Sensor: Nr:Datum:Temp:Feuchte:
Aussen-T/F 2101 16-12-2019 14:02:17 10.1 C 34 %
2102 16-12-2019 14:12:17 10.2 C 34 %
2103 16-12-2019 14:22:17 10.3 C 34 %
2104 16-12-2019 14:32:17 10.2 C 33 %
2105 16-12-2019 14:42:17 10.1 C 34 %
2106 16-12-2019 14:52:18 10.1 C 34 %
2107 16-12-2019 15:02:17 9.9 C 35 %
2108 16-12-2019 15:12:17 9.8 C 35 %
2109 16-12-2019 15:22:17 9.6 C 36 %
2110 16-12-2019 15:32:18 9.3 C 37 %
2111 16-12-2019 15:42:18 9.1 C 39 %
2112 16-12-2019 15:52:17 9 C 40 %
2113 16-12-2019 16:02:17 8.7 C 40 %
2114 16-12-2019 16:12:17 8.5 C 40 %
2115 16-12-2019 16:22:17 8.4 C 40 %
2116 16-12-2019 16:32:18 8.2 C 41 %
2117 16-12-2019 16:42:18 8 C 40 %
2118 16-12-2019 16:52:17 7.7 C 41 %
2119 16-12-2019 17:02:17 7.4 C 41 %
2120 16-12-2019 17:12:17 7.3 C 41 %
2121 16-12-2019 17:22:17 7.5 C 41 %
2122 16-12-2019 17:32:17 7.3 C 41 %
2123 16-12-2019 17:42:17 7.2 C 41 %
2124 16-12-2019 17:52:17 7 C 41 %
2125 16-12-2019 18:02:17 7.1 C 41 %
Sensor: Nr:Datum:Temp:Feuchte:
Aussen-T/F 2126 16-12-2019 18:12:17 7.4 C 41 %
2127 16-12-2019 18:22:17 7.5 C 41 %
2128 16-12-2019 18:32:17 8.2 C 40 %
2129 16-12-2019 18:42:17 8.1 C 38 %
2130 16-12-2019 18:52:17 8.7 C 37 %
2131 16-12-2019 19:02:18 8.5 C 35 %
2132 16-12-2019 19:12:18 7.9 C 36 %
2133 16-12-2019 19:22:17 7.7 C 37 %
2134 16-12-2019 19:32:17 8.5 C 40 %
2135 16-12-2019 19:42:17 7.9 C 37 %
2136 16-12-2019 19:52:18 8 C 37 %
2137 16-12-2019 20:02:17 7.9 C 37 %
2138 16-12-2019 20:12:17 8.1 C 36 %
2139 16-12-2019 20:22:17 7.7 C 37 %
2140 16-12-2019 20:32:17 8 C 39 %
2141 16-12-2019 20:42:17 7.9 C 36 %
2142 16-12-2019 20:52:17 7.8 C 36 %
2143 16-12-2019 21:02:17 7.3 C 37 %
2144 16-12-2019 21:12:17 7.2 C 40 %
2145 16-12-2019 21:22:17 7.5 C 39 %
2146 16-12-2019 21:32:17 7.2 C 38 %
2147 16-12-2019 21:42:17 7 C 40 %
2148 16-12-2019 21:52:17 6.7 C 41 %
2149 16-12-2019 22:02:17 6.9 C 41 %
2150 16-12-2019 22:12:17 7.5 C 40 %
Sensor: Nr:Datum:Temp:Feuchte:
Aussen-T/F 2151 16-12-2019 22:22:17 7.4 C 38 %
2152 16-12-2019 22:32:17 7.9 C 37 %
2153 16-12-2019 22:42:17 7.8 C 36 %
2154 16-12-2019 22:52:18 7.3 C 37 %
2155 16-12-2019 23:02:17 7.3 C 39 %
2156 16-12-2019 23:12:17 7.3 C 39 %
2157 16-12-2019 23:22:17 7.5 C 40 %
2158 16-12-2019 23:32:17 7.6 C 39 %
2159 16-12-2019 23:42:17 7.6 C 39 %
2160 16-12-2019 23:52:18 7.8 C 39 %
2161 17-12-2019 00:02:17 7.6 C 37 %
2162 17-12-2019 00:12:17 7.5 C 38 %
2163 17-12-2019 00:22:17 7.6 C 38 %
2164 17-12-2019 00:32:18 7.3 C 39 %
2165 17-12-2019 00:42:18 7.2 C 40 %
2166 17-12-2019 00:52:17 7.4 C 39 %
2167 17-12-2019 01:02:17 7.2 C 39 %
2168 17-12-2019 01:12:17 7.4 C 40 %
2169 17-12-2019 01:22:17 7.8 C 39 %
2170 17-12-2019 01:32:17 7.3 C 37 %
2171 17-12-2019 01:42:17 7.4 C 38 %
2172 17-12-2019 01:52:17 7.4 C 37 %
2173 17-12-2019 02:02:18 7.4 C 37 %
2174 17-12-2019 02:12:18 7.6 C 37 %
2175 17-12-2019 02:22:17 7.3 C 37 %
Sensor: Nr:Datum:Temp:Feuchte:
Aussen-T/F 2176 17-12-2019 02:32:17 7.1 C 37 %
2177 17-12-2019 02:42:17 7.5 C 36 %
2178 17-12-2019 02:52:18 7.6 C 36 %
2179 17-12-2019 03:02:17 8 C 35 %
2180 17-12-2019 03:12:17 8.1 C 35 %
2181 17-12-2019 03:22:17 8.4 C 35 %
2182 17-12-2019 03:32:17 8.8 C 32 %
2183 17-12-2019 03:42:17 8.9 C 32 %
2184 17-12-2019 03:52:18 8.8 C 32 %
2185 17-12-2019 04:02:17 8.5 C 32 %
2186 17-12-2019 04:12:17 8.5 C 32 %
2187 17-12-2019 04:22:17 8.4 C 32 %
2188 17-12-2019 04:32:17 8.4 C 32 %
2189 17-12-2019 04:42:17 8 C 32 %
2190 17-12-2019 04:52:18 8.3 C 33 %
2191 17-12-2019 05:02:17 8.5 C 33 %
2192 17-12-2019 05:12:17 8.5 C 33 %
2193 17-12-2019 05:22:17 8.2 C 33 %
2194 17-12-2019 05:32:17 8.1 C 34 %
2195 17-12-2019 05:42:17 7.9 C 35 %
2196 17-12-2019 05:52:17 7.9 C 36 %
2197 17-12-2019 06:02:17 7.8 C 36 %
2198 17-12-2019 06:12:17 7.3 C 36 %
2199 17-12-2019 06:22:18 7.3 C 38 %
2200 17-12-2019 06:32:17 7.5 C 38 %
Sensor: Nr:Datum:Temp:Feuchte:
Aussen-T/F 2201 17-12-2019 06:42:17 7.6 C 36 %
2202 17-12-2019 06:52:17 7.6 C 38 %
2203 17-12-2019 07:02:17 7.7 C 36 %
2204 17-12-2019 07:12:17 7.6 C 37 %
2205 17-12-2019 07:22:17 7.5 C 36 %
2206 17-12-2019 07:32:18 7 C 37 %
2207 17-12-2019 07:42:18 7.4 C 38 %
2208 17-12-2019 07:52:17 7.2 C 36 %
2209 17-12-2019 08:02:17 7.2 C 36 %
2210 17-12-2019 08:12:17 6.9 C 37 %
2211 17-12-2019 08:22:17 6.9 C 38 %
2212 17-12-2019 08:32:17 7 C 38 %
2213 17-12-2019 08:42:18 6.9 C 37 %
2214 17-12-2019 08:52:17 6.9 C 37 %
2215 17-12-2019 09:02:17 6.5 C 38 %
2216 17-12-2019 09:12:17 6.4 C 39 %
2217 17-12-2019 09:22:18 6.5 C 40 %
2218 17-12-2019 09:32:17 6.4 C 40 %
2219 17-12-2019 09:42:17 6.6 C 40 %
2220 17-12-2019 09:52:17 6.3 C 39 %
2221 17-12-2019 10:02:18 6.4 C 40 %
2222 17-12-2019 10:12:18 6.4 C 40 %
2223 17-12-2019 10:22:17 6.4 C 39 %
2224 17-12-2019 10:32:17 6.8 C 40 %
2225 17-12-2019 10:42:17 7.2 C 37 %
Sensor: Nr:Datum:Temp:Feuchte:
Aussen-T/F 2226 17-12-2019 10:52:17 8 C 36 %
2227 17-12-2019 11:02:17 8.6 C 34 %
2228 17-12-2019 11:12:17 8.5 C 32 %
2229 17-12-2019 11:22:17 8.7 C 32 %
2230 17-12-2019 11:32:17 9 C 32 %
2231 17-12-2019 11:42:17 9.1 C 32 %
2232 17-12-2019 11:52:17 9 C 32 %
2233 17-12-2019 12:02:17 9 C 34 %
2234 17-12-2019 12:12:17 9.2 C 34 %
2235 17-12-2019 12:22:17 9.5 C 33 %
2236 17-12-2019 12:32:17 9.7 C 32 %
2237 17-12-2019 12:42:17 9.8 C 32 %
2238 17-12-2019 12:52:17 9.6 C 32 %
2239 17-12-2019 13:02:17 10.1 C 31 %
2240 17-12-2019 13:12:17 10.4 C 30 %
2241 17-12-2019 13:22:17 10.6 C 30 %
2242 17-12-2019 13:32:17 11 C 29 %
2243 17-12-2019 13:42:17 11.6 C 28 %
2244 17-12-2019 13:52:18 12.3 C 26 %
2245 17-12-2019 14:02:17 12.5 C 26 %
2246 17-12-2019 14:12:17 12.4 C 26 %
2247 17-12-2019 14:22:17 11.6 C 27 %
2248 17-12-2019 14:32:17 11.4 C 27 %
2249 17-12-2019 14:42:17 11.5 C 27 %
2250 17-12-2019 14:52:17 11.8 C 27 %
Sensor: Nr:Datum:Temp:Feuchte:
Aussen-T/F 2251 17-12-2019 15:02:17 12 C 26 %
2252 17-12-2019 15:12:17 12 C 26 %
2253 17-12-2019 15:22:17 11.8 C 27 %
2254 17-12-2019 15:32:17 11.8 C 27 %
2255 17-12-2019 15:42:17 12.3 C 25 %
2256 17-12-2019 15:52:18 12.2 C 25 %
2257 17-12-2019 16:02:17 12.4 C 25 %
2258 17-12-2019 16:12:17 12.4 C 25 %
2259 17-12-2019 16:22:17 12.5 C 25 %
2260 17-12-2019 16:32:18 12.6 C 25 %
2261 17-12-2019 16:42:18 12.2 C 25 %
2262 17-12-2019 16:52:17 11.8 C 25 %
2263 17-12-2019 17:02:17 11.2 C 26 %
2264 17-12-2019 17:12:18 11.5 C 25 %
2265 17-12-2019 17:22:17 12 C 24 %
2266 17-12-2019 17:32:18 13.1 C 20 %
2267 17-12-2019 17:42:18 13.4 C 20 %
2268 17-12-2019 17:52:17 13.8 C 20 %
2269 17-12-2019 18:02:17 13.4 C 20 %
2270 17-12-2019 18:12:17 13.2 C 20 %
2271 17-12-2019 18:22:17 13.6 C 20 %
2272 17-12-2019 18:32:17 13.7 C 20 %
2273 17-12-2019 18:42:17 13.1 C 21 %
2274 17-12-2019 18:52:17 12.7 C 25 %
2275 17-12-2019 19:02:17 12.8 C 25 %
Sensor: Nr:Datum:Temp:Feuchte:
Aussen-T/F 2276 17-12-2019 19:12:17 13.1 C 22 %
2277 17-12-2019 19:22:17 12.8 C 25 %
2278 17-12-2019 19:32:18 11.7 C 29 %
2279 17-12-2019 19:42:18 11.6 C 29 %
2280 17-12-2019 19:52:17 11.6 C 30 %
2281 17-12-2019 20:02:18 11.6 C 30 %
2282 17-12-2019 20:12:18 11.5 C 31 %
2283 17-12-2019 20:22:17 11.6 C 31 %
2284 17-12-2019 20:32:17 11.3 C 33 %
2285 17-12-2019 20:42:17 11.2 C 35 %
2286 17-12-2019 20:52:17 11 C 36 %
2287 17-12-2019 21:02:17 10.9 C 36 %
2288 17-12-2019 21:12:17 10.5 C 38 %
2289 17-12-2019 21:22:17 10.3 C 39 %
2290 17-12-2019 21:32:17 10.4 C 38 %
2291 17-12-2019 21:42:17 11.5 C 31 %
2292 17-12-2019 21:52:17 11.3 C 31 %
2293 17-12-2019 22:02:17 13 C 25 %
2294 17-12-2019 22:12:17 12.5 C 26 %
2295 17-12-2019 22:22:17 13.1 C 25 %
2296 17-12-2019 22:32:17 13.4 C 25 %
2297 17-12-2019 22:42:17 13.2 C 25 %
2298 17-12-2019 22:52:17 13.1 C 25 %
2299 17-12-2019 23:02:17 12.4 C 26 %
2300 17-12-2019 23:12:17 11.9 C 29 %
Sensor: Nr:Datum:Temp:Feuchte:
Aussen-T/F 2301 17-12-2019 23:22:17 11.3 C 30 %
2302 17-12-2019 23:32:17 11.1 C 31 %
2303 17-12-2019 23:42:17 11 C 30 %
2304 17-12-2019 23:52:17 10.8 C 33 %
2305 18-12-2019 00:02:17 10.4 C 35 %
2306 18-12-2019 00:12:17 10.4 C 34 %
2307 18-12-2019 00:22:17 10.5 C 34 %
2308 18-12-2019 00:32:18 10.9 C 31 %
2309 18-12-2019 00:42:18 11 C 30 %
2310 18-12-2019 00:52:17 11 C 30 %
2311 18-12-2019 01:02:17 10.8 C 30 %
2312 18-12-2019 01:12:17 11 C 29 %
2313 18-12-2019 01:22:17 11.1 C 29 %
2314 18-12-2019 01:32:18 10.9 C 30 %
2315 18-12-2019 01:42:18 10.4 C 30 %
2316 18-12-2019 01:52:17 10.8 C 30 %
2317 18-12-2019 02:02:17 11.1 C 30 %
2318 18-12-2019 02:12:17 11.1 C 29 %
2319 18-12-2019 02:22:17 11.2 C 30 %
2320 18-12-2019 02:32:17 11.3 C 29 %
2321 18-12-2019 02:42:18 10.9 C 30 %
2322 18-12-2019 02:52:17 10.9 C 31 %
2323 18-12-2019 03:02:17 10.6 C 33 %
2324 18-12-2019 03:12:17 10.3 C 35 %
2325 18-12-2019 03:22:18 10.3 C 37 %
Sensor: Nr:Datum:Temp:Feuchte:
Aussen-T/F 2326 18-12-2019 03:32:17 10.1 C 37 %
2327 18-12-2019 03:42:17 10 C 38 %
2328 18-12-2019 03:52:18 10.1 C 38 %
2329 18-12-2019 04:02:18 10 C 38 %
2330 18-12-2019 04:12:18 9.9 C 38 %
2331 18-12-2019 04:22:17 9.8 C 35 %
2332 18-12-2019 04:32:18 9.6 C 34 %
2333 18-12-2019 04:42:18 9.5 C 33 %
2334 18-12-2019 04:52:17 9.3 C 33 %
2335 18-12-2019 05:02:18 9.2 C 33 %
2336 18-12-2019 05:12:18 9.1 C 33 %
2337 18-12-2019 05:22:17 8.8 C 35 %
2338 18-12-2019 05:32:17 8.7 C 36 %
2339 18-12-2019 05:42:17 8.2 C 36 %
2340 18-12-2019 05:52:17 8.2 C 39 %
2341 18-12-2019 06:02:18 8.1 C 39 %
2342 18-12-2019 06:12:18 8 C 37 %
2343 18-12-2019 06:22:17 8 C 37 %
2344 18-12-2019 06:32:18 7.9 C 37 %
2345 18-12-2019 06:42:18 7.5 C 37 %
2346 18-12-2019 06:52:17 7.4 C 39 %
2347 18-12-2019 07:02:17 7.2 C 40 %
2348 18-12-2019 07:12:17 7.3 C 40 %
2349 18-12-2019 07:22:17 7.3 C 40 %
2350 18-12-2019 07:32:17 7.1 C 39 %
Sensor: Nr:Datum:Temp:Feuchte:
Aussen-T/F 2351 18-12-2019 07:42:17 6.8 C 40 %
2352 18-12-2019 07:52:17 6.9 C 41 %
2353 18-12-2019 08:02:17 6.7 C 41 %
2354 18-12-2019 08:12:17 6.5 C 41 %
2355 18-12-2019 08:22:17 6.5 C 41 %
2356 18-12-2019 08:32:17 6.3 C 41 %
2357 18-12-2019 08:42:17 6.4 C 42 %
2358 18-12-2019 08:52:17 6.6 C 42 %
2359 18-12-2019 09:02:17 6.5 C 41 %
2360 18-12-2019 09:12:17 6.1 C 40 %
2361 18-12-2019 09:22:17 6 C 41 %
2362 18-12-2019 09:32:17 6.5 C 42 %
2363 18-12-2019 09:42:17 6.7 C 42 %
2364 18-12-2019 09:52:17 6.9 C 41 %
2365 18-12-2019 10:02:17 7 C 40 %
2366 18-12-2019 10:12:18 7.1 C 40 %
2367 18-12-2019 10:22:17 7.5 C 38 %
2368 18-12-2019 10:32:17 7.5 C 36 %
2369 18-12-2019 10:42:17 7.4 C 36 %
2370 18-12-2019 10:52:17 6.9 C 38 %
2371 18-12-2019 11:02:17 6.8 C 38 %
2372 18-12-2019 11:12:17 6.8 C 38 %
2373 18-12-2019 11:22:17 6.6 C 38 %
2374 18-12-2019 11:32:18 6.7 C 39 %
2375 18-12-2019 11:42:18 6.9 C 38 %
Sensor: Nr:Datum:Temp:Feuchte:
Aussen-T/F 2376 18-12-2019 11:52:17 7.6 C 35 %
2377 18-12-2019 12:02:17 8.1 C 33 %
2378 18-12-2019 12:12:17 8 C 32 %
2379 18-12-2019 12:22:17 8.3 C 31 %
2380 18-12-2019 12:32:17 8.6 C 30 %
2381 18-12-2019 12:42:17 8.8 C 29 %
2382 18-12-2019 12:52:17 8.7 C 29 %
2383 18-12-2019 13:02:17 8.4 C 30 %
2384 18-12-2019 13:12:17 8.2 C 30 %
2385 18-12-2019 13:22:17 7.9 C 31 %
2386 18-12-2019 13:32:18 7.8 C 32 %
2387 18-12-2019 13:42:18 7.7 C 33 %
2388 18-12-2019 13:52:17 7.8 C 32 %
2389 18-12-2019 14:02:18 7.8 C 33 %
2390 18-12-2019 14:12:18 7.7 C 33 %
2391 18-12-2019 14:22:17 7.5 C 34 %
2392 18-12-2019 14:32:17 7.3 C 35 %
2393 18-12-2019 14:42:17 7.2 C 35 %
2394 18-12-2019 14:52:17 7.2 C 35 %
2395 18-12-2019 15:02:17 7.2 C 35 %
2396 18-12-2019 15:12:17 7 C 36 %
2397 18-12-2019 15:22:17 7 C 36 %
2398 18-12-2019 15:32:17 6.7 C 37 %
2399 18-12-2019 15:42:17 6.8 C 37 %
2400 18-12-2019 15:52:17 6.7 C 36 %
Sensor: Nr:Datum:Temp:Feuchte:
Aussen-T/F 2401 18-12-2019 16:02:17 6.6 C 36 %
2402 18-12-2019 16:12:17 6.5 C 36 %
2403 18-12-2019 16:22:17 6.4 C 36 %
2404 18-12-2019 16:32:17 6 C 36 %
2405 18-12-2019 16:42:17 5.8 C 37 %
2406 18-12-2019 16:52:17 5.7 C 39 %
2407 18-12-2019 17:02:17 5.3 C 38 %
2408 18-12-2019 17:12:17 4.9 C 40 %
2409 18-12-2019 17:22:17 5 C 42 %
2410 18-12-2019 17:32:17 4.4 C 41 %
2411 18-12-2019 17:42:17 4.2 C 42 %
2412 18-12-2019 17:52:18 4.1 C 42 %
2413 18-12-2019 18:02:17 4.1 C 43 %
2414 18-12-2019 18:12:17 4.1 C 43 %
2415 18-12-2019 18:22:17 4.4 C 43 %
2416 18-12-2019 18:32:17 4.5 C 43 %
2417 18-12-2019 18:42:17 4.3 C 42 %
2418 18-12-2019 18:52:17 4.6 C 43 %
2419 18-12-2019 19:02:17 5 C 42 %
2420 18-12-2019 19:12:17 4.7 C 42 %
2421 18-12-2019 19:22:17 4.3 C 42 %
2422 18-12-2019 19:32:18 4.9 C 43 %
2423 18-12-2019 19:42:18 4.7 C 42 %
2424 18-12-2019 19:52:17 4.6 C 42 %
2425 18-12-2019 20:02:17 5 C 42 %
Sensor: Nr:Datum:Temp:Feuchte:
Aussen-T/F 2426 18-12-2019 20:12:17 5 C 41 %
2427 18-12-2019 20:22:17 4.5 C 41 %
2428 18-12-2019 20:32:17 4.5 C 41 %
2429 18-12-2019 20:42:18 4.1 C 41 %
2430 18-12-2019 20:52:17 3.9 C 42 %
2431 18-12-2019 21:02:17 3.7 C 43 %
2432 18-12-2019 21:12:17 3.6 C 42 %
2433 18-12-2019 21:22:17 3.6 C 43 %
2434 18-12-2019 21:32:17 3.7 C 43 %
2435 18-12-2019 21:42:17 3.6 C 43 %
2436 18-12-2019 21:52:17 3.4 C 43 %
2437 18-12-2019 22:02:17 3.1 C 43 %
2438 18-12-2019 22:12:17 3.1 C 43 %
2439 18-12-2019 22:22:17 2.7 C 43 %
2440 18-12-2019 22:32:17 2.6 C 43 %
2441 18-12-2019 22:42:17 2.5 C 43 %
2442 18-12-2019 22:52:17 2.4 C 43 %
2443 18-12-2019 23:02:17 2.4 C 43 %
2444 18-12-2019 23:12:17 2.3 C 43 %
2445 18-12-2019 23:22:18 2.3 C 43 %
2446 18-12-2019 23:32:17 2 C 43 %
2447 18-12-2019 23:42:17 2 C 43 %
2448 18-12-2019 23:52:17 2 C 43 %
2449 19-12-2019 00:02:18 2.3 C 44 %
2450 19-12-2019 00:12:18 2 C 43 %
Sensor: Nr:Datum:Temp:Feuchte:
Aussen-T/F 2451 19-12-2019 00:22:17 2 C 43 %
2452 19-12-2019 00:32:17 2.1 C 43 %
2453 19-12-2019 00:42:17 2.4 C 44 %
2454 19-12-2019 00:52:18 2.3 C 43 %
2455 19-12-2019 01:02:17 2.1 C 43 %
2456 19-12-2019 01:12:17 2 C 43 %
2457 19-12-2019 01:22:17 2 C 43 %
2458 19-12-2019 01:32:18 1.6 C 44 %
2459 19-12-2019 01:42:18 1.9 C 44 %
2460 19-12-2019 01:52:17 2.3 C 43 %
2461 19-12-2019 02:02:17 2.2 C 43 %
2462 19-12-2019 02:12:17 2 C 43 %
2463 19-12-2019 02:22:17 2 C 43 %
2464 19-12-2019 02:32:18 2 C 43 %
2465 19-12-2019 02:42:18 1.8 C 44 %
2466 19-12-2019 02:52:17 2.1 C 43 %
2467 19-12-2019 03:02:18 1.5 C 44 %
2468 19-12-2019 03:12:18 1.6 C 44 %
2469 19-12-2019 03:22:17 1.6 C 44 %
2470 19-12-2019 03:32:17 1.8 C 44 %
2471 19-12-2019 03:42:17 1.7 C 44 %
2472 19-12-2019 03:52:17 1.7 C 44 %
2473 19-12-2019 04:02:17 1.6 C 44 %
2474 19-12-2019 04:12:17 1.5 C 44 %
2475 19-12-2019 04:22:18 1.5 C 44 %
Sensor: Nr:Datum:Temp:Feuchte:
Aussen-T/F 2476 19-12-2019 04:32:17 1.5 C 44 %
2477 19-12-2019 04:42:17 1.4 C 44 %
2478 19-12-2019 04:52:18 1.6 C 44 %
2479 19-12-2019 05:02:17 1.4 C 44 %
2480 19-12-2019 05:12:17 1.5 C 44 %
2481 19-12-2019 05:22:17 1.4 C 44 %
2482 19-12-2019 05:32:17 1.3 C 44 %
2483 19-12-2019 05:42:17 1.3 C 44 %
2484 19-12-2019 05:52:17 1.1 C 44 %
2485 19-12-2019 06:02:17 1.1 C 44 %
2486 19-12-2019 06:12:17 1.2 C 44 %
2487 19-12-2019 06:22:17 1 C 44 %
2488 19-12-2019 06:32:17 1.1 C 44 %
2489 19-12-2019 06:42:18 1 C 43 %
2490 19-12-2019 06:52:17 0.7 C 45 %
2491 19-12-2019 07:02:17 1 C 44 %
2492 19-12-2019 07:12:17 0.9 C 45 %
2493 19-12-2019 07:22:17 1.7 C 44 %
2494 19-12-2019 07:32:17 3.5 C 43 %
2495 19-12-2019 07:42:18 3.2 C 42 %
2496 19-12-2019 07:52:17 3.1 C 42 %
2497 19-12-2019 08:02:18 4.6 C 42 %
2498 19-12-2019 08:12:18 3.8 C 42 %
2499 19-12-2019 08:22:17 3.7 C 42 %
2500 19-12-2019 08:32:18 4.6 C 41 %
Sensor: Nr:Datum:Temp:Feuchte:
Aussen-T/F 2501 19-12-2019 08:42:18 4 C 41 %
2502 19-12-2019 08:52:17 3.3 C 41 %
2503 19-12-2019 09:02:17 4 C 41 %
2504 19-12-2019 09:12:17 4.4 C 41 %
2505 19-12-2019 09:22:17 4.1 C 41 %
2506 19-12-2019 09:32:17 4.6 C 41 %
2507 19-12-2019 09:42:17 4.4 C 41 %
2508 19-12-2019 09:52:17 4.5 C 41 %
2509 19-12-2019 10:02:17 4.7 C 41 %
2510 19-12-2019 10:12:17 4.9 C 41 %
2511 19-12-2019 10:22:17 5.2 C 41 %
2512 19-12-2019 10:32:17 7 C 40 %
2513 19-12-2019 10:42:17 7.2 C 40 %
2514 19-12-2019 10:52:18 6.7 C 40 %
2515 19-12-2019 11:02:17 6.4 C 39 %
2516 19-12-2019 11:12:17 6.3 C 39 %
2517 19-12-2019 11:22:17 6.3 C 40 %
2518 19-12-2019 11:32:17 6.4 C 40 %
2519 19-12-2019 11:42:17 6.6 C 40 %
2520 19-12-2019 11:52:18 6.7 C 40 %
2521 19-12-2019 12:02:17 6.6 C 40 %
2522 19-12-2019 12:12:17 6.7 C 40 %
2523 19-12-2019 12:22:17 6.7 C 40 %
2524 19-12-2019 12:32:17 7 C 39 %
2525 19-12-2019 12:42:17 7 C 39 %
Sensor: Nr:Datum:Temp:Feuchte:
Aussen-T/F 2526 19-12-2019 12:52:17 7.1 C 39 %
2527 19-12-2019 13:02:17 7.3 C 39 %
2528 19-12-2019 13:12:17 7.1 C 38 %
2529 19-12-2019 13:22:17 7.2 C 39 %
2530 19-12-2019 13:32:17 7.2 C 39 %
2531 19-12-2019 13:42:17 7.3 C 38 %
2532 19-12-2019 13:52:17 7.3 C 38 %
2533 19-12-2019 14:02:17 7.3 C 38 %
2534 19-12-2019 14:12:17 7.1 C 38 %
2535 19-12-2019 14:22:17 7.1 C 38 %
2536 19-12-2019 14:32:17 7.2 C 38 %
2537 19-12-2019 14:42:17 7.3 C 37 %
2538 19-12-2019 14:52:17 7.9 C 36 %
2539 19-12-2019 15:02:17 8.1 C 34 %
2540 19-12-2019 15:12:17 8.1 C 33 %
2541 19-12-2019 15:22:17 8.4 C 32 %
2542 19-12-2019 15:32:18 8.6 C 32 %
2543 19-12-2019 15:42:18 8.7 C 31 %
2544 19-12-2019 15:52:17 8.8 C 31 %
2545 19-12-2019 16:02:17 8.7 C 30 %
2546 19-12-2019 16:12:17 8.3 C 31 %
2547 19-12-2019 16:22:18 8.1 C 31 %
2548 19-12-2019 16:32:17 7.9 C 32 %
2549 19-12-2019 16:42:17 7.9 C 31 %
2550 19-12-2019 16:52:17 7.6 C 32 %
Sensor: Nr:Datum:Temp:Feuchte:
Aussen-T/F 2551 19-12-2019 17:02:17 7.4 C 32 %
2552 19-12-2019 17:12:17 6 C 35 %
2553 19-12-2019 17:22:17 5.7 C 37 %
2554 19-12-2019 17:32:17 5.5 C 39 %
2555 19-12-2019 17:42:17 5 C 39 %
2556 19-12-2019 17:52:17 4.9 C 41 %
2557 19-12-2019 18:02:17 5.2 C 42 %
2558 19-12-2019 18:12:18 4.9 C 42 %
2559 19-12-2019 18:22:17 5.2 C 42 %
2560 19-12-2019 18:32:17 5 C 41 %
2561 19-12-2019 18:42:17 5 C 41 %
2562 19-12-2019 18:52:18 5.8 C 42 %
2563 19-12-2019 19:02:17 5.7 C 41 %
2564 19-12-2019 19:12:17 5.2 C 39 %
2565 19-12-2019 19:22:18 4.7 C 40 %
2566 19-12-2019 19:32:17 4.9 C 42 %
2567 19-12-2019 19:42:17 4.7 C 42 %
2568 19-12-2019 19:52:17 4.8 C 42 %
2569 19-12-2019 20:02:17 5 C 42 %
2570 19-12-2019 20:12:17 5 C 41 %
2571 19-12-2019 20:22:17 4.8 C 42 %
2572 19-12-2019 20:32:17 5.1 C 42 %
2573 19-12-2019 20:42:17 6 C 41 %
2574 19-12-2019 20:52:17 6 C 38 %
2575 19-12-2019 21:02:17 5.8 C 38 %
Sensor: Nr:Datum:Temp:Feuchte:
Aussen-T/F 2576 19-12-2019 21:12:18 5.8 C 39 %
2577 19-12-2019 21:22:17 5.7 C 39 %
2578 19-12-2019 21:32:17 5.8 C 40 %
2579 19-12-2019 21:42:17 6 C 40 %
2580 19-12-2019 21:52:17 5.7 C 40 %
2581 19-12-2019 22:02:17 5.6 C 40 %
2582 19-12-2019 22:12:17 5.8 C 41 %
2583 19-12-2019 22:22:18 6.2 C 41 %
2584 19-12-2019 22:32:18 5.9 C 40 %
2585 19-12-2019 22:42:18 5.1 C 38 %
2586 19-12-2019 22:52:17 5 C 41 %
2587 19-12-2019 23:02:17 5.4 C 43 %
2588 19-12-2019 23:12:17 5.5 C 42 %
2589 19-12-2019 23:22:17 5.5 C 42 %
2590 19-12-2019 23:32:17 5.4 C 42 %
2591 19-12-2019 23:42:17 5.4 C 42 %
2592 19-12-2019 23:52:17 5.1 C 41 %
2593 20-12-2019 00:02:17 4.8 C 42 %
2594 20-12-2019 00:12:17 4.3 C 41 %
2595 20-12-2019 00:22:17 4 C 41 %
2596 20-12-2019 00:32:17 3.9 C 43 %
2597 20-12-2019 00:42:17 3.7 C 42 %
2598 20-12-2019 00:52:17 3.4 C 43 %
2599 20-12-2019 01:02:17 3.1 C 42 %
2600 20-12-2019 01:12:17 3 C 43 %
Sensor: Nr:Datum:Temp:Feuchte:
Aussen-T/F 2601 20-12-2019 01:22:17 3.3 C 44 %
2602 20-12-2019 01:32:17 3.1 C 43 %
2603 20-12-2019 01:42:17 3.1 C 43 %
2604 20-12-2019 01:52:17 2.8 C 44 %
2605 20-12-2019 02:02:17 2.8 C 44 %
2606 20-12-2019 02:12:17 2.6 C 44 %
2607 20-12-2019 02:22:17 2.5 C 44 %
2608 20-12-2019 02:32:18 3.2 C 44 %
2609 20-12-2019 02:42:18 3.4 C 44 %
2610 20-12-2019 02:52:17 3.8 C 44 %
2611 20-12-2019 03:02:17 4.7 C 42 %
2612 20-12-2019 03:12:17 4.2 C 41 %
2613 20-12-2019 03:22:17 4.6 C 41 %
2614 20-12-2019 03:32:17 4.4 C 40 %
2615 20-12-2019 03:42:17 4.4 C 40 %
2616 20-12-2019 03:52:17 4.6 C 41 %
2617 20-12-2019 04:02:17 4.4 C 40 %
2618 20-12-2019 04:12:17 4.2 C 40 %
2619 20-12-2019 04:22:17 4 C 41 %
2620 20-12-2019 04:32:18 4.8 C 42 %
2621 20-12-2019 04:42:18 4.5 C 41 %
2622 20-12-2019 04:52:17 4.7 C 40 %
2623 20-12-2019 05:02:17 4.7 C 40 %
2624 20-12-2019 05:12:17 5.3 C 38 %
2625 20-12-2019 05:22:17 5.2 C 36 %
Sensor: Nr:Datum:Temp:Feuchte:
Aussen-T/F 2626 20-12-2019 05:32:17 5.3 C 36 %
2627 20-12-2019 05:42:17 5.4 C 35 %
2628 20-12-2019 05:52:18 5.5 C 35 %
2629 20-12-2019 06:02:18 5.2 C 35 %
2630 20-12-2019 06:12:18 5.3 C 35 %
2631 20-12-2019 06:22:17 5.6 C 35 %
2632 20-12-2019 06:32:17 6 C 32 %
2633 20-12-2019 06:42:17 6 C 31 %
2634 20-12-2019 06:52:17 5.7 C 32 %
2635 20-12-2019 07:02:17 5.8 C 31 %
2636 20-12-2019 07:12:17 5.9 C 31 %
2637 20-12-2019 07:22:17 6.1 C 31 %
2638 20-12-2019 07:32:17 5.9 C 33 %
2639 20-12-2019 07:42:17 6.4 C 31 %
2640 20-12-2019 07:52:17 6.8 C 30 %
2641 20-12-2019 08:02:17 7.1 C 27 %
2642 20-12-2019 08:12:17 6.4 C 31 %
2643 20-12-2019 08:22:17 6.4 C 32 %
2644 20-12-2019 08:32:18 6.5 C 32 %
2645 20-12-2019 08:42:18 6.3 C 32 %
2646 20-12-2019 08:52:17 6.3 C 33 %
2647 20-12-2019 09:02:17 6.5 C 33 %
2648 20-12-2019 09:12:17 6.7 C 31 %
2649 20-12-2019 09:22:17 6.5 C 33 %
2650 20-12-2019 09:32:17 6.4 C 35 %
Sensor: Nr:Datum:Temp:Feuchte:
Aussen-T/F 2651 20-12-2019 09:42:17 6.5 C 35 %
2652 20-12-2019 09:52:17 6.5 C 34 %
2653 20-12-2019 10:02:17 6.2 C 31 %
2654 20-12-2019 10:12:17 6 C 33 %
2655 20-12-2019 10:22:17 5.7 C 35 %
2656 20-12-2019 10:32:17 5.8 C 40 %
2657 20-12-2019 10:42:17 5.9 C 42 %
2658 20-12-2019 10:52:17 6 C 42 %
2659 20-12-2019 11:02:17 6.1 C 42 %
2660 20-12-2019 11:12:17 6 C 42 %
2661 20-12-2019 11:22:17 6.3 C 42 %
2662 20-12-2019 11:32:17 6.5 C 42 %
2663 20-12-2019 11:42:17 6.7 C 41 %
2664 20-12-2019 11:52:17 6.8 C 40 %
2665 20-12-2019 12:02:18 7 C 39 %
2666 20-12-2019 12:12:18 7.3 C 39 %
2667 20-12-2019 12:22:18 7.5 C 39 %
2668 20-12-2019 12:32:17 7.7 C 39 %
2669 20-12-2019 12:42:18 8 C 39 %
2670 20-12-2019 12:52:17 8.1 C 38 %
2671 20-12-2019 13:02:18 8.1 C 39 %
2672 20-12-2019 13:12:18 8.2 C 39 %
2673 20-12-2019 13:22:17 8.3 C 37 %
2674 20-12-2019 13:32:17 8.4 C 36 %
2675 20-12-2019 13:42:17 8.6 C 37 %
Sensor: Nr:Datum:Temp:Feuchte:
Aussen-T/F 2676 20-12-2019 13:52:17 8.5 C 36 %
2677 20-12-2019 14:02:17 8.6 C 36 %
2678 20-12-2019 14:12:17 8.6 C 35 %
2679 20-12-2019 14:22:17 8.7 C 36 %
2680 20-12-2019 14:32:17 8.7 C 36 %
2681 20-12-2019 14:42:17 8.5 C 35 %
2682 20-12-2019 14:52:18 8.3 C 36 %
2683 20-12-2019 15:02:17 8.2 C 37 %
2684 20-12-2019 15:12:17 8.3 C 38 %
2685 20-12-2019 15:22:17 8.3 C 39 %
2686 20-12-2019 15:32:17 8.2 C 40 %
2687 20-12-2019 15:42:17 8.3 C 41 %
2688 20-12-2019 15:52:17 8.2 C 40 %
2689 20-12-2019 16:02:17 8.2 C 40 %
2690 20-12-2019 16:12:18 8.3 C 40 %
2691 20-12-2019 16:22:17 8.3 C 41 %
2692 20-12-2019 16:32:17 8.4 C 41 %
2693 20-12-2019 16:42:17 8.4 C 41 %
2694 20-12-2019 16:52:18 8.6 C 41 %
2695 20-12-2019 17:02:17 9 C 41 %
2696 20-12-2019 17:12:18 9 C 40 %
2697 20-12-2019 17:22:17 9.1 C 36 %
2698 20-12-2019 17:32:17 8.7 C 38 %
2699 20-12-2019 17:42:17 8.8 C 37 %
2700 20-12-2019 17:52:18 8.7 C 38 %
Sensor: Nr:Datum:Temp:Feuchte:
Aussen-T/F 2701 20-12-2019 18:02:17 8.9 C 37 %
2702 20-12-2019 18:12:17 8.9 C 36 %
2703 20-12-2019 18:22:17 8.9 C 37 %
2704 20-12-2019 18:32:17 8.9 C 37 %
2705 20-12-2019 18:42:17 9.7 C 33 %
2706 20-12-2019 18:52:18 9.5 C 31 %
2707 20-12-2019 19:02:17 9.8 C 30 %
2708 20-12-2019 19:12:17 10.1 C 28 %
2709 20-12-2019 19:22:17 9.9 C 29 %
2710 20-12-2019 19:32:17 9.8 C 29 %
2711 20-12-2019 19:42:17 10 C 27 %
2712 20-12-2019 19:52:18 9.7 C 29 %
2713 20-12-2019 20:02:18 9.6 C 28 %
2714 20-12-2019 20:12:18 9.5 C 28 %
2715 20-12-2019 20:22:17 9.5 C 27 %
2716 20-12-2019 20:32:18 9 C 28 %
2717 20-12-2019 20:42:18 9 C 27 %
2718 20-12-2019 20:52:17 8.9 C 28 %
2719 20-12-2019 21:02:18 8.5 C 28 %
2720 20-12-2019 21:12:18 8.6 C 28 %
2721 20-12-2019 21:22:17 8.9 C 27 %
2722 20-12-2019 21:32:17 8.7 C 27 %
2723 20-12-2019 21:42:17 8.3 C 28 %
2724 20-12-2019 21:52:17 8.3 C 28 %
2725 20-12-2019 22:02:17 8.3 C 28 %
Sensor: Nr:Datum:Temp:Feuchte:
Aussen-T/F 2726 20-12-2019 22:12:17 8.1 C 28 %
2727 20-12-2019 22:22:17 8.7 C 27 %
2728 20-12-2019 22:32:17 8.9 C 26 %
2729 20-12-2019 22:42:17 8.7 C 27 %
2730 20-12-2019 22:52:17 8.7 C 27 %
2731 20-12-2019 23:02:17 8.5 C 27 %
2732 20-12-2019 23:12:17 8.4 C 27 %
2733 20-12-2019 23:22:17 8.2 C 28 %
2734 20-12-2019 23:32:17 8 C 28 %
2735 20-12-2019 23:42:17 8.3 C 27 %
2736 20-12-2019 23:52:18 8.1 C 27 %
2737 21-12-2019 00:02:17 7.9 C 28 %
2738 21-12-2019 00:12:17 7.7 C 28 %
2739 21-12-2019 00:22:17 7.5 C 30 %
2740 21-12-2019 00:32:17 7.5 C 30 %
2741 21-12-2019 00:42:17 7.2 C 30 %
2742 21-12-2019 00:52:18 7 C 30 %
2743 21-12-2019 01:02:17 6.9 C 32 %
2744 21-12-2019 01:12:17 7.3 C 31 %
2745 21-12-2019 01:22:17 7.4 C 31 %
2746 21-12-2019 01:32:17 7.3 C 32 %
2747 21-12-2019 01:42:17 7.5 C 31 %
2748 21-12-2019 01:52:17 7.5 C 32 %
2749 21-12-2019 02:02:17 7.9 C 30 %
2750 21-12-2019 02:12:17 8 C 29 %
Sensor: Nr:Datum:Temp:Feuchte:
Aussen-T/F 2751 21-12-2019 02:22:17 8.2 C 28 %
2752 21-12-2019 02:32:18 7.8 C 30 %
2753 21-12-2019 02:42:18 7.8 C 30 %
2754 21-12-2019 02:52:17 7.8 C 30 %
2755 21-12-2019 03:02:17 7.5 C 30 %
2756 21-12-2019 03:12:17 7.5 C 31 %
2757 21-12-2019 03:22:17 7.4 C 31 %
2758 21-12-2019 03:32:18 7.3 C 31 %
2759 21-12-2019 03:42:18 7.1 C 31 %
2760 21-12-2019 03:52:17 7.1 C 32 %
2761 21-12-2019 04:02:17 6.9 C 33 %
2762 21-12-2019 04:12:17 6.7 C 36 %
2763 21-12-2019 04:22:17 6.4 C 37 %
2764 21-12-2019 04:32:18 6 C 38 %
2765 21-12-2019 04:42:18 5.9 C 38 %
2766 21-12-2019 04:52:17 5.7 C 40 %
2767 21-12-2019 05:02:17 6 C 40 %
2768 21-12-2019 05:12:17 5.6 C 39 %
2769 21-12-2019 05:22:17 5.4 C 38 %
2770 21-12-2019 05:32:18 5.4 C 38 %
2771 21-12-2019 05:42:18 5.1 C 38 %
2772 21-12-2019 05:52:17 5.3 C 40 %
2773 21-12-2019 06:02:17 4.9 C 41 %
2774 21-12-2019 06:12:17 4.8 C 41 %
2775 21-12-2019 06:22:18 4.3 C 40 %
Sensor: Nr:Datum:Temp:Feuchte:
Aussen-T/F 2776 21-12-2019 06:32:17 4.3 C 42 %
2777 21-12-2019 06:42:17 5 C 40 %
2778 21-12-2019 06:52:18 3.8 C 41 %
2779 21-12-2019 07:02:17 3.8 C 43 %
2780 21-12-2019 07:12:18 3.5 C 42 %
2781 21-12-2019 07:22:17 3.4 C 43 %
2782 21-12-2019 07:32:17 3.3 C 43 %
2783 21-12-2019 07:42:17 3 C 42 %
2784 21-12-2019 07:52:17 3 C 43 %
2785 21-12-2019 08:02:17 3.1 C 44 %
2786 21-12-2019 08:12:17 3.6 C 44 %
2787 21-12-2019 08:22:17 3.7 C 44 %
2788 21-12-2019 08:32:17 3.9 C 43 %
2789 21-12-2019 08:42:17 4.6 C 43 %
2790 21-12-2019 08:52:17 4.9 C 42 %
2791 21-12-2019 09:02:17 5 C 39 %
2792 21-12-2019 09:12:17 4.5 C 38 %
2793 21-12-2019 09:22:17 4.4 C 38 %
2794 21-12-2019 09:32:17 4.4 C 39 %
2795 21-12-2019 09:42:17 4.6 C 40 %
2796 21-12-2019 09:52:17 4.6 C 38 %
2797 21-12-2019 10:02:17 4.8 C 38 %
2798 21-12-2019 10:12:17 4.8 C 37 %
2799 21-12-2019 10:22:17 5.1 C 37 %
2800 21-12-2019 10:32:17 5.2 C 36 %
Sensor: Nr:Datum:Temp:Feuchte:
Aussen-T/F 2801 21-12-2019 10:42:17 5.1 C 37 %
2802 21-12-2019 10:52:17 5.2 C 37 %
2803 21-12-2019 11:02:17 5.3 C 37 %
2804 21-12-2019 11:12:17 5.3 C 37 %
2805 21-12-2019 11:22:17 5.4 C 37 %
2806 21-12-2019 11:32:17 5.8 C 37 %
2807 21-12-2019 11:42:17 5.9 C 37 %
2808 21-12-2019 11:52:17 5.8 C 37 %
2809 21-12-2019 12:02:17 5.8 C 36 %
2810 21-12-2019 12:12:17 6.2 C 36 %
2811 21-12-2019 12:22:17 6.2 C 35 %
2812 21-12-2019 12:32:17 7 C 32 %
2813 21-12-2019 12:42:17 6.8 C 33 %
2814 21-12-2019 12:52:17 8 C 30 %
2815 21-12-2019 13:02:17 7.8 C 30 %
2816 21-12-2019 13:12:17 7.1 C 30 %
2817 21-12-2019 13:22:17 6.9 C 31 %
2818 21-12-2019 13:32:17 7.2 C 30 %
2819 21-12-2019 13:42:17 8 C 28 %
2820 21-12-2019 13:52:18 7.7 C 28 %
2821 21-12-2019 14:02:17 8.3 C 27 %
2822 21-12-2019 14:12:17 8.8 C 26 %
2823 21-12-2019 14:22:17 8.2 C 27 %
2824 21-12-2019 14:32:18 8.2 C 27 %
2825 21-12-2019 14:42:18 8.5 C 27 %
Sensor: Nr:Datum:Temp:Feuchte:
Aussen-T/F 2826 21-12-2019 14:52:17 8.8 C 26 %
2827 21-12-2019 15:02:18 9 C 25 %
2828 21-12-2019 15:12:18 8.7 C 26 %
2829 21-12-2019 15:22:18 8.8 C 25 %
2830 21-12-2019 15:32:17 8.7 C 25 %
2831 21-12-2019 15:42:17 8 C 26 %
2832 21-12-2019 15:52:17 7.5 C 28 %
2833 21-12-2019 16:02:17 7.7 C 27 %
2834 21-12-2019 16:12:17 7.6 C 29 %
2835 21-12-2019 16:22:17 7.4 C 30 %
2836 21-12-2019 16:32:17 7.4 C 30 %
2837 21-12-2019 16:42:17 7.7 C 28 %
2838 21-12-2019 16:52:17 7.9 C 27 %
2839 21-12-2019 17:02:17 7.6 C 29 %
2840 21-12-2019 17:12:17 7.3 C 30 %
2841 21-12-2019 17:22:17 7.2 C 30 %
2842 21-12-2019 17:32:17 7.3 C 30 %
2843 21-12-2019 17:42:17 7.3 C 29 %
2844 21-12-2019 17:52:17 7.2 C 29 %
2845 21-12-2019 18:02:17 7.6 C 27 %
2846 21-12-2019 18:12:17 7.6 C 27 %
2847 21-12-2019 18:22:17 7.6 C 26 %
2848 21-12-2019 18:32:18 7.9 C 25 %
2849 21-12-2019 18:42:18 7.7 C 26 %
2850 21-12-2019 18:52:17 7.5 C 26 %
Sensor: Nr:Datum:Temp:Feuchte:
Aussen-T/F 2851 21-12-2019 19:02:17 7.3 C 27 %
2852 21-12-2019 19:12:17 7 C 27 %
2853 21-12-2019 19:22:17 7 C 27 %
2854 21-12-2019 19:32:17 6.9 C 30 %
2855 21-12-2019 19:42:17 6.8 C 30 %
2856 21-12-2019 19:52:17 7 C 27 %
2857 21-12-2019 20:02:17 7.1 C 26 %
2858 21-12-2019 20:12:17 7.1 C 26 %
2859 21-12-2019 20:22:17 7.1 C 26 %
2860 21-12-2019 20:32:17 6.9 C 28 %
2861 21-12-2019 20:42:17 7 C 27 %
2862 21-12-2019 20:52:17 6.8 C 27 %
2863 21-12-2019 21:02:18 6.4 C 29 %
2864 21-12-2019 21:12:18 6.1 C 30 %
2865 21-12-2019 21:22:17 6.1 C 31 %
2866 21-12-2019 21:32:17 6.3 C 31 %
2867 21-12-2019 21:42:17 5.9 C 31 %
2868 21-12-2019 21:52:18 5.1 C 34 %
2869 21-12-2019 22:02:18 4.9 C 36 %
2870 21-12-2019 22:12:18 5.2 C 34 %
2871 21-12-2019 22:22:17 5.7 C 30 %
2872 21-12-2019 22:32:17 6.1 C 27 %
2873 21-12-2019 22:42:17 6.1 C 27 %
2874 21-12-2019 22:52:17 6 C 27 %
2875 21-12-2019 23:02:17 5.8 C 27 %
Sensor: Nr:Datum:Temp:Feuchte:
Aussen-T/F 2876 21-12-2019 23:12:17 5.8 C 27 %
2877 21-12-2019 23:22:17 6.3 C 26 %
2878 21-12-2019 23:32:18 6.5 C 25 %
2879 21-12-2019 23:42:18 6.7 C 25 %
2880 21-12-2019 23:52:17 6.3 C 26 %
2881 22-12-2019 00:02:17 6.8 C 26 %
2882 22-12-2019 00:12:17 6.9 C 26 %
2883 22-12-2019 00:22:17 6.8 C 26 %
2884 22-12-2019 00:32:17 6.8 C 26 %
2885 22-12-2019 00:42:17 6.7 C 27 %
2886 22-12-2019 00:52:17 6.3 C 30 %
2887 22-12-2019 01:02:17 6.2 C 30 %
2888 22-12-2019 01:12:18 5.8 C 35 %
2889 22-12-2019 01:22:17 5.8 C 36 %
2890 22-12-2019 01:32:17 5.8 C 39 %
2891 22-12-2019 01:42:17 5.7 C 40 %
2892 22-12-2019 01:52:17 5.7 C 40 %
2893 22-12-2019 02:02:17 5.7 C 38 %
2894 22-12-2019 02:12:18 5.7 C 38 %
2895 22-12-2019 02:22:17 5.8 C 38 %
2896 22-12-2019 02:32:17 5.9 C 37 %
2897 22-12-2019 02:42:17 5.9 C 36 %
2898 22-12-2019 02:52:18 6 C 35 %
2899 22-12-2019 03:02:17 6.1 C 35 %
2900 22-12-2019 03:12:17 6.2 C 34 %
Sensor: Nr:Datum:Temp:Feuchte:
Aussen-T/F 2901 22-12-2019 03:22:17 6.2 C 35 %
2902 22-12-2019 03:32:17 6.2 C 34 %
2903 22-12-2019 03:42:17 6.1 C 35 %
2904 22-12-2019 03:52:17 6.2 C 35 %
2905 22-12-2019 04:02:18 6.2 C 35 %
2906 22-12-2019 04:12:18 6 C 35 %
2907 22-12-2019 04:22:17 6.2 C 34 %
2908 22-12-2019 04:32:17 6.2 C 34 %
2909 22-12-2019 04:42:17 6.3 C 33 %
2910 22-12-2019 04:52:17 6.3 C 33 %
2911 22-12-2019 05:02:17 6.2 C 34 %
2912 22-12-2019 05:12:17 5.8 C 34 %
2913 22-12-2019 05:22:17 5.4 C 36 %
2914 22-12-2019 05:32:17 5.7 C 40 %
2915 22-12-2019 05:42:17 6.1 C 38 %
2916 22-12-2019 05:52:17 5.5 C 35 %
2917 22-12-2019 06:02:17 5.1 C 39 %
2918 22-12-2019 06:12:17 5.3 C 41 %
2919 22-12-2019 06:22:17 4.9 C 41 %
2920 22-12-2019 06:32:17 5.4 C 42 %
2921 22-12-2019 06:42:17 5.9 C 41 %
2922 22-12-2019 06:52:17 6.2 C 39 %
2923 22-12-2019 07:02:17 6.2 C 38 %
2924 22-12-2019 07:12:17 6 C 38 %
2925 22-12-2019 07:22:17 5.7 C 38 %
Sensor: Nr:Datum:Temp:Feuchte:
Aussen-T/F 2926 22-12-2019 07:32:17 5.4 C 39 %
2927 22-12-2019 07:42:17 6 C 42 %
2928 22-12-2019 07:52:17 6.1 C 41 %
2929 22-12-2019 08:02:18 6.3 C 41 %
2930 22-12-2019 08:12:18 6.2 C 40 %
2931 22-12-2019 08:22:17 5.9 C 40 %
2932 22-12-2019 08:32:17 5.8 C 41 %
2933 22-12-2019 08:42:17 6.3 C 41 %
2934 22-12-2019 08:52:18 6.2 C 39 %
2935 22-12-2019 09:02:17 6 C 39 %
2936 22-12-2019 09:12:17 6.2 C 40 %
2937 22-12-2019 09:22:17 6.4 C 39 %
2938 22-12-2019 09:32:17 6.3 C 39 %
2939 22-12-2019 09:42:17 6.8 C 39 %
2940 22-12-2019 09:52:17 7 C 37 %
2941 22-12-2019 10:02:17 7.1 C 37 %
2942 22-12-2019 10:12:17 7.9 C 33 %
2943 22-12-2019 10:22:17 8.1 C 33 %
2944 22-12-2019 10:32:17 8.8 C 30 %
2945 22-12-2019 10:42:17 9 C 29 %
2946 22-12-2019 10:52:17 9.3 C 28 %
2947 22-12-2019 11:02:17 9.5 C 28 %
2948 22-12-2019 11:12:17 10 C 26 %
2949 22-12-2019 11:22:17 10 C 26 %
2950 22-12-2019 11:32:18 10.4 C 26 %
Sensor: Nr:Datum:Temp:Feuchte:
Aussen-T/F 2951 22-12-2019 11:42:18 10.2 C 26 %
2952 22-12-2019 11:52:17 10.4 C 26 %
2953 22-12-2019 12:02:17 10.5 C 25 %
2954 22-12-2019 12:12:17 10.5 C 26 %
2955 22-12-2019 12:22:17 10.5 C 25 %
2956 22-12-2019 12:32:17 10.7 C 26 %
2957 22-12-2019 12:42:17 10.8 C 26 %
2958 22-12-2019 12:52:17 11.2 C 25 %
2959 22-12-2019 13:02:17 11.1 C 25 %
2960 22-12-2019 13:12:17 10.8 C 25 %
2961 22-12-2019 13:22:17 10.7 C 25 %
2962 22-12-2019 13:32:17 10.7 C 25 %
2963 22-12-2019 13:42:17 10.7 C 25 %
2964 22-12-2019 13:52:17 10.8 C 25 %
2965 22-12-2019 14:02:17 11.1 C 23 %
2966 22-12-2019 14:12:17 11 C 23 %
2967 22-12-2019 14:22:17 10.8 C 23 %
2968 22-12-2019 14:32:17 10.9 C 23 %
2969 22-12-2019 14:42:17 10.8 C 23 %
2970 22-12-2019 14:52:17 10.7 C 25 %
2971 22-12-2019 15:02:17 10.6 C 25 %
2972 22-12-2019 15:12:17 10.3 C 25 %
2973 22-12-2019 15:22:17 10.1 C 25 %
2974 22-12-2019 15:32:17 9.9 C 26 %
2975 22-12-2019 15:42:17 9.7 C 26 %
Sensor: Nr:Datum:Temp:Feuchte:
Aussen-T/F 2976 22-12-2019 15:52:18 9.6 C 25 %
2977 22-12-2019 16:02:18 9.6 C 25 %
2978 22-12-2019 16:12:18 9.3 C 25 %
2979 22-12-2019 16:22:17 8.9 C 26 %
2980 22-12-2019 16:32:17 8.3 C 26 %
2981 22-12-2019 16:42:17 8.4 C 27 %
2982 22-12-2019 16:52:17 7.9 C 28 %
2983 22-12-2019 17:02:18 7.5 C 30 %
2984 22-12-2019 17:12:18 7.5 C 30 %
2985 22-12-2019 17:22:17 7.4 C 30 %
2986 22-12-2019 17:32:17 7.5 C 29 %
2987 22-12-2019 17:42:17 7.5 C 28 %
2988 22-12-2019 17:52:17 7.2 C 28 %
2989 22-12-2019 18:02:17 7.2 C 30 %
2990 22-12-2019 18:12:17 7.1 C 30 %
2991 22-12-2019 18:22:17 7.3 C 30 %
2992 22-12-2019 18:32:17 7.4 C 29 %
2993 22-12-2019 18:42:17 7.5 C 29 %
2994 22-12-2019 18:52:17 7.2 C 29 %
2995 22-12-2019 19:02:17 7.1 C 30 %
2996 22-12-2019 19:12:17 7 C 31 %
2997 22-12-2019 19:22:17 7 C 32 %
2998 22-12-2019 19:32:17 7.1 C 31 %
2999 22-12-2019 19:42:17 7.5 C 30 %
3000 22-12-2019 19:52:17 8 C 27 %
Sensor: Nr:Datum:Temp:Feuchte:
Aussen-T/F 3001 22-12-2019 20:02:17 7.9 C 27 %
3002 22-12-2019 20:12:17 8.1 C 26 %
3003 22-12-2019 20:22:17 8.3 C 25 %
3004 22-12-2019 20:32:17 8.2 C 25 %
3005 22-12-2019 20:42:17 8 C 25 %
3006 22-12-2019 20:52:17 8 C 25 %
3007 22-12-2019 21:02:17 8.1 C 25 %
3008 22-12-2019 21:12:17 8.1 C 25 %
3009 22-12-2019 21:22:17 7.8 C 25 %
3010 22-12-2019 21:32:17 8.1 C 25 %
3011 22-12-2019 21:42:17 7.8 C 26 %
3012 22-12-2019 21:52:17 7.7 C 26 %
3013 22-12-2019 22:02:17 7.9 C 26 %
3014 22-12-2019 22:12:17 7.6 C 26 %
3015 22-12-2019 22:22:17 7.5 C 26 %
3016 22-12-2019 22:32:17 7.1 C 27 %
3017 22-12-2019 22:42:17 6.9 C 28 %
3018 22-12-2019 22:52:17 6.7 C 29 %
3019 22-12-2019 23:02:17 6.2 C 31 %
3020 22-12-2019 23:12:17 6.4 C 31 %
3021 22-12-2019 23:22:17 6.6 C 31 %
3022 22-12-2019 23:32:17 6.6 C 31 %
3023 22-12-2019 23:42:17 6.7 C 31 %
3024 22-12-2019 23:52:17 6.7 C 31 %
3025 23-12-2019 00:02:17 6.6 C 32 %
Sensor: Nr:Datum:Temp:Feuchte:
Aussen-T/F 3026 23-12-2019 00:12:17 6.5 C 31 %
3027 23-12-2019 00:22:17 6.4 C 32 %
3028 23-12-2019 00:32:17 6.6 C 31 %
3029 23-12-2019 00:42:17 7 C 30 %
3030 23-12-2019 00:52:17 6.9 C 30 %
3031 23-12-2019 01:02:17 6.8 C 30 %
3032 23-12-2019 01:12:17 7.1 C 28 %
3033 23-12-2019 01:22:17 7 C 28 %
3034 23-12-2019 01:32:17 7.1 C 28 %
3035 23-12-2019 01:42:17 7.4 C 27 %
3036 23-12-2019 01:52:17 7.4 C 27 %
3037 23-12-2019 02:02:17 6.8 C 29 %
3038 23-12-2019 02:12:17 6.5 C 30 %
3039 23-12-2019 02:22:17 6.8 C 29 %
3040 23-12-2019 02:32:17 6.9 C 29 %
3041 23-12-2019 02:42:17 7.3 C 28 %
3042 23-12-2019 02:52:17 6.9 C 30 %
3043 23-12-2019 03:02:17 6.8 C 31 %
3044 23-12-2019 03:12:17 6.4 C 31 %
3045 23-12-2019 03:22:17 6.5 C 30 %
3046 23-12-2019 03:32:17 7 C 28 %
3047 23-12-2019 03:42:17 6.6 C 29 %
3048 23-12-2019 03:52:17 7 C 28 %
3049 23-12-2019 04:02:17 6.9 C 30 %
3050 23-12-2019 04:12:17 7.1 C 28 %
Sensor: Nr:Datum:Temp:Feuchte:
Aussen-T/F 3051 23-12-2019 04:22:17 6.8 C 30 %
3052 23-12-2019 04:32:17 6.9 C 31 %
3053 23-12-2019 04:42:17 6.5 C 31 %
3054 23-12-2019 04:52:17 6.1 C 31 %
3055 23-12-2019 05:02:17 6.4 C 32 %
3056 23-12-2019 05:12:17 7 C 30 %
3057 23-12-2019 05:22:17 7.1 C 30 %
3058 23-12-2019 05:32:17 7 C 30 %
3059 23-12-2019 05:42:17 6.8 C 31 %
3060 23-12-2019 05:52:17 6.3 C 32 %
3061 23-12-2019 06:02:18 6.3 C 34 %
3062 23-12-2019 06:12:18 6.6 C 33 %
3063 23-12-2019 06:22:17 6.9 C 31 %
3064 23-12-2019 06:32:18 7.1 C 30 %
3065 23-12-2019 06:42:18 6.9 C 31 %
3066 23-12-2019 06:52:17 6.9 C 31 %
3067 23-12-2019 07:02:17 6.8 C 32 %
3068 23-12-2019 07:12:17 6.8 C 34 %
3069 23-12-2019 07:22:17 6.8 C 32 %
3070 23-12-2019 07:32:17 7.1 C 30 %
3071 23-12-2019 07:42:17 7.4 C 29 %
3072 23-12-2019 07:52:17 7.1 C 30 %
3073 23-12-2019 08:02:17 7.3 C 30 %
3074 23-12-2019 08:12:17 7.4 C 28 %
3075 23-12-2019 08:22:17 7.5 C 28 %
Sensor: Nr:Datum:Temp:Feuchte:
Aussen-T/F 3076 23-12-2019 08:32:18 7.5 C 28 %
3077 23-12-2019 08:42:18 7.6 C 28 %
3078 23-12-2019 08:52:17 7.6 C 27 %
3079 23-12-2019 09:02:17 7.6 C 27 %
3080 23-12-2019 09:12:18 7.7 C 27 %
3081 23-12-2019 09:22:17 7.8 C 27 %
3082 23-12-2019 09:32:18 7.8 C 27 %
3083 23-12-2019 09:42:18 7.8 C 27 %
3084 23-12-2019 09:52:18 7.9 C 26 %
3085 23-12-2019 10:02:17 7.3 C 30 %
3086 23-12-2019 10:12:18 7 C 33 %
3087 23-12-2019 10:22:17 7 C 35 %
3088 23-12-2019 10:32:18 6.8 C 35 %
3089 23-12-2019 10:42:18 6.9 C 34 %
3090 23-12-2019 10:52:17 7.4 C 30 %
3091 23-12-2019 11:02:18 7.8 C 28 %
3092 23-12-2019 11:12:18 8.1 C 28 %
3093 23-12-2019 11:22:17 8.4 C 26 %
3094 23-12-2019 11:32:18 8.3 C 26 %
3095 23-12-2019 11:42:18 8.6 C 26 %
3096 23-12-2019 11:52:17 8.9 C 25 %
3097 23-12-2019 12:02:18 9.1 C 25 %
3098 23-12-2019 12:12:18 9.1 C 25 %
3099 23-12-2019 12:22:17 8.9 C 25 %
3100 23-12-2019 12:32:17 9 C 25 %
Sensor: Nr:Datum:Temp:Feuchte:
Aussen-T/F 3101 23-12-2019 12:42:17 9.3 C 25 %
3102 23-12-2019 12:52:17 8.4 C 26 %
3103 23-12-2019 13:02:17 8.4 C 26 %
3104 23-12-2019 13:12:17 8.3 C 27 %
3105 23-12-2019 13:22:17 8.2 C 27 %
3106 23-12-2019 13:32:18 8.1 C 29 %
3107 23-12-2019 13:42:18 8.2 C 28 %
3108 23-12-2019 13:52:17 8.5 C 28 %
3109 23-12-2019 14:02:17 8.9 C 27 %
3110 23-12-2019 14:12:17 8.9 C 26 %
3111 23-12-2019 14:22:18 9 C 25 %
3112 23-12-2019 14:32:17 9.1 C 25 %
3113 23-12-2019 14:42:17 9.1 C 25 %
3114 23-12-2019 14:52:17 8.9 C 25 %
3115 23-12-2019 15:02:18 8.7 C 26 %
3116 23-12-2019 15:12:18 9.1 C 25 %
3117 23-12-2019 15:22:17 9.1 C 25 %
3118 23-12-2019 15:32:17 9 C 25 %
3119 23-12-2019 15:42:17 9 C 25 %
3120 23-12-2019 15:52:17 8.8 C 25 %
3121 23-12-2019 16:02:17 8.8 C 25 %
3122 23-12-2019 16:12:17 8.6 C 26 %
3123 23-12-2019 16:22:18 8.5 C 25 %
3124 23-12-2019 16:32:17 8.4 C 25 %
3125 23-12-2019 16:42:17 8.5 C 25 %
Sensor: Nr:Datum:Temp:Feuchte:
Aussen-T/F 3126 23-12-2019 16:52:18 8.5 C 25 %
3127 23-12-2019 17:02:17 8.2 C 25 %
3128 23-12-2019 17:12:17 8.4 C 25 %
3129 23-12-2019 17:22:17 8 C 25 %
3130 23-12-2019 17:32:17 7.9 C 25 %
3131 23-12-2019 17:42:18 7.8 C 25 %
3132 23-12-2019 17:52:17 7.8 C 25 %
3133 23-12-2019 18:02:17 7.9 C 25 %
3134 23-12-2019 18:12:17 8 C 23 %
3135 23-12-2019 18:22:17 7.9 C 23 %
3136 23-12-2019 18:32:17 7.9 C 25 %
3137 23-12-2019 18:42:17 7.6 C 25 %
3138 23-12-2019 18:52:17 7.5 C 26 %
3139 23-12-2019 19:02:17 7.3 C 26 %
3140 23-12-2019 19:12:17 6.7 C 29 %
3141 23-12-2019 19:22:17 6.4 C 30 %
3142 23-12-2019 19:32:17 7.4 C 26 %
3143 23-12-2019 19:42:17 7 C 26 %
3144 23-12-2019 19:52:17 7 C 27 %
3145 23-12-2019 20:02:17 7 C 28 %
3146 23-12-2019 20:12:17 6.5 C 30 %
3147 23-12-2019 20:22:17 6.8 C 30 %
3148 23-12-2019 20:32:18 6.8 C 30 %
3149 23-12-2019 20:42:18 6.9 C 30 %
3150 23-12-2019 20:52:17 6.9 C 30 %
Sensor: Nr:Datum:Temp:Feuchte:
Aussen-T/F 3151 23-12-2019 21:02:18 6.7 C 30 %
3152 23-12-2019 21:12:18 7.1 C 28 %
3153 23-12-2019 21:22:17 7 C 28 %
3154 23-12-2019 21:32:17 6.7 C 31 %
3155 23-12-2019 21:42:17 6.5 C 31 %
3156 23-12-2019 21:52:17 6.5 C 32 %
3157 23-12-2019 22:02:18 6.4 C 31 %
3158 23-12-2019 22:12:18 5.8 C 32 %
3159 23-12-2019 22:22:17 5.4 C 37 %
3160 23-12-2019 22:32:17 5.7 C 33 %
3161 23-12-2019 22:42:17 5.3 C 34 %
3162 23-12-2019 22:52:17 5.5 C 34 %
3163 23-12-2019 23:02:17 5.4 C 33 %
3164 23-12-2019 23:12:17 5.5 C 32 %
3165 23-12-2019 23:22:18 5.4 C 30 %
3166 23-12-2019 23:32:17 5.8 C 30 %
3167 23-12-2019 23:42:17 4.8 C 33 %
3168 23-12-2019 23:52:17 4.8 C 36 %
3169 24-12-2019 00:02:17 5.6 C 35 %
3170 24-12-2019 00:12:17 5.8 C 32 %
3171 24-12-2019 00:22:17 5.7 C 32 %
3172 24-12-2019 00:32:18 6 C 32 %
3173 24-12-2019 00:42:18 6.1 C 31 %
3174 24-12-2019 00:52:17 6.3 C 31 %
3175 24-12-2019 01:02:17 5.6 C 32 %
Sensor: Nr:Datum:Temp:Feuchte:
Aussen-T/F 3176 24-12-2019 01:12:17 5.9 C 32 %
3177 24-12-2019 01:22:17 6.1 C 30 %
3178 24-12-2019 01:32:17 6.3 C 30 %
3179 24-12-2019 01:42:17 5.9 C 31 %
3180 24-12-2019 01:52:17 5.7 C 33 %
3181 24-12-2019 02:02:17 5.7 C 35 %
3182 24-12-2019 02:12:17 5.8 C 35 %
3183 24-12-2019 02:22:17 5.6 C 35 %
3184 24-12-2019 02:32:18 5.5 C 36 %
3185 24-12-2019 02:42:18 5.5 C 36 %
3186 24-12-2019 02:52:17 6.6 C 30 %
3187 24-12-2019 03:02:18 6.7 C 29 %
3188 24-12-2019 03:12:18 6.3 C 30 %
3189 24-12-2019 03:22:17 5.7 C 31 %
3190 24-12-2019 03:32:17 5.5 C 31 %
3191 24-12-2019 03:42:17 5.7 C 31 %
3192 24-12-2019 03:52:17 5 C 32 %
3193 24-12-2019 04:02:17 5 C 38 %
3194 24-12-2019 04:12:17 5.2 C 37 %
3195 24-12-2019 04:22:17 5.2 C 36 %
3196 24-12-2019 04:32:17 4.8 C 37 %
3197 24-12-2019 04:42:17 4.8 C 39 %
3198 24-12-2019 04:52:17 5.3 C 38 %
3199 24-12-2019 05:02:18 5.4 C 35 %
3200 24-12-2019 05:12:18 5.2 C 35 %
Sensor: Nr:Datum:Temp:Feuchte:
Aussen-T/F 3201 24-12-2019 05:22:17 4.7 C 37 %
3202 24-12-2019 05:32:18 5 C 37 %
3203 24-12-2019 05:42:18 4.6 C 36 %
3204 24-12-2019 05:52:17 4.9 C 37 %
3205 24-12-2019 06:02:18 4.3 C 36 %
3206 24-12-2019 06:12:18 4.6 C 39 %
3207 24-12-2019 06:22:17 4.6 C 38 %
3208 24-12-2019 06:32:17 4.6 C 39 %
3209 24-12-2019 06:42:17 4.5 C 38 %
3210 24-12-2019 06:52:17 4.5 C 39 %
3211 24-12-2019 07:02:17 4.8 C 37 %
3212 24-12-2019 07:12:17 5 C 36 %
3213 24-12-2019 07:22:17 5.4 C 34 %
3214 24-12-2019 07:32:17 5.6 C 33 %
3215 24-12-2019 07:42:17 5.6 C 32 %
3216 24-12-2019 07:52:17 5.8 C 32 %
3217 24-12-2019 08:02:17 5.8 C 31 %
3218 24-12-2019 08:12:17 6 C 30 %
3219 24-12-2019 08:22:17 6.2 C 29 %
3220 24-12-2019 08:32:17 6.2 C 30 %
3221 24-12-2019 08:42:17 6.3 C 30 %
3222 24-12-2019 08:52:18 6.4 C 30 %
3223 24-12-2019 09:02:17 6.5 C 29 %
3224 24-12-2019 09:12:17 6.8 C 29 %
3225 24-12-2019 09:22:17 6.8 C 28 %
Sensor: Nr:Datum:Temp:Feuchte:
Aussen-T/F 3226 24-12-2019 09:32:17 6.8 C 29 %
3227 24-12-2019 09:42:17 6.8 C 28 %
3228 24-12-2019 09:52:17 6.5 C 30 %
3229 24-12-2019 10:02:17 6.4 C 30 %
3230 24-12-2019 10:12:17 6.2 C 31 %
3231 24-12-2019 10:22:17 6.2 C 33 %
3232 24-12-2019 10:32:17 6.3 C 37 %
3233 24-12-2019 10:42:17 6.8 C 37 %
3234 24-12-2019 10:52:17 6.7 C 33 %
3235 24-12-2019 11:02:17 6.8 C 35 %
3236 24-12-2019 11:12:17 6.9 C 34 %
3237 24-12-2019 11:22:17 7.5 C 32 %
3238 24-12-2019 11:32:17 8 C 30 %
3239 24-12-2019 11:42:17 8.2 C 29 %
3240 24-12-2019 11:52:18 8 C 29 %
3241 24-12-2019 12:02:17 7.8 C 30 %
3242 24-12-2019 12:12:17 7.6 C 30 %
3243 24-12-2019 12:22:17 8 C 28 %
3244 24-12-2019 12:32:17 8.2 C 27 %
3245 24-12-2019 12:42:17 8.4 C 27 %
3246 24-12-2019 12:52:18 8.9 C 27 %
3247 24-12-2019 13:02:17 9.2 C 25 %
3248 24-12-2019 13:12:17 9.3 C 25 %
3249 24-12-2019 13:22:17 9.3 C 25 %
3250 24-12-2019 13:32:17 9.2 C 26 %
Sensor: Nr:Datum:Temp:Feuchte:
Aussen-T/F 3251 24-12-2019 13:42:17 9.3 C 26 %
3252 24-12-2019 13:52:17 9.3 C 26 %
3253 24-12-2019 14:02:18 9.4 C 25 %
3254 24-12-2019 14:12:18 9.5 C 25 %
3255 24-12-2019 14:22:17 9.6 C 25 %
3256 24-12-2019 14:32:18 9.7 C 25 %
3257 24-12-2019 14:42:18 9.3 C 26 %
3258 24-12-2019 14:52:17 9.2 C 27 %
3259 24-12-2019 15:02:18 9.1 C 27 %
3260 24-12-2019 15:12:18 9.5 C 26 %
3261 24-12-2019 15:22:17 9.8 C 25 %
3262 24-12-2019 15:32:17 10 C 22 %
3263 24-12-2019 15:42:17 10.1 C 20 %
3264 24-12-2019 15:52:17 10.5 C 20 %
3265 24-12-2019 16:02:17 10.1 C 20 %
3266 24-12-2019 16:12:17 10 C 20 %
3267 24-12-2019 16:22:17 10.2 C 20 %
3268 24-12-2019 16:32:17 9.8 C 20 %
3269 24-12-2019 16:42:17 9.7 C 21 %
3270 24-12-2019 16:52:17 10.1 C 20 %
3271 24-12-2019 17:02:17 9.8 C 20 %
3272 24-12-2019 17:12:17 9.4 C 20 %
3273 24-12-2019 17:22:18 9.6 C 20 %
3274 24-12-2019 17:32:17 8.8 C 20 %
3275 24-12-2019 17:42:17 9.1 C 20 %
Sensor: Nr:Datum:Temp:Feuchte:
Aussen-T/F 3276 24-12-2019 17:52:17 9.3 C 20 %
3277 24-12-2019 18:02:17 9 C 20 %
3278 24-12-2019 18:12:17 8.5 C 26 %
3279 24-12-2019 18:22:17 8.9 C 25 %
3280 24-12-2019 18:32:17 8.2 C 28 %
3281 24-12-2019 18:42:17 7.8 C 31 %
3282 24-12-2019 18:52:17 7.5 C 35 %
3283 24-12-2019 19:02:17 7.6 C 31 %
3284 24-12-2019 19:12:17 7.3 C 31 %
3285 24-12-2019 19:22:17 6.7 C 35 %
3286 24-12-2019 19:32:17 6.5 C 40 %
3287 24-12-2019 19:42:17 6.5 C 36 %
3288 24-12-2019 19:52:17 6.2 C 36 %
3289 24-12-2019 20:02:17 6.7 C 35 %
3290 24-12-2019 20:12:17 7.3 C 30 %
3291 24-12-2019 20:22:17 7.2 C 32 %
3292 24-12-2019 20:32:18 7.1 C 30 %
3293 24-12-2019 20:42:18 7.3 C 31 %
3294 24-12-2019 20:52:17 7.3 C 30 %
3295 24-12-2019 21:02:17 7.1 C 31 %
3296 24-12-2019 21:12:17 7.7 C 30 %
3297 24-12-2019 21:22:17 7.4 C 30 %
3298 24-12-2019 21:32:17 7.6 C 30 %
3299 24-12-2019 21:42:17 7.9 C 29 %
3300 24-12-2019 21:52:17 8.1 C 28 %
Sensor: Nr:Datum:Temp:Feuchte:
Aussen-T/F 3301 24-12-2019 22:02:17 8.6 C 26 %
3302 24-12-2019 22:12:17 8.5 C 26 %
3303 24-12-2019 22:22:17 8.3 C 26 %
3304 24-12-2019 22:32:17 8.4 C 26 %
3305 24-12-2019 22:42:17 8.2 C 27 %
3306 24-12-2019 22:52:17 8 C 28 %
3307 24-12-2019 23:02:17 8.4 C 27 %
3308 24-12-2019 23:12:17 8.4 C 27 %
3309 24-12-2019 23:22:17 8.4 C 27 %
3310 24-12-2019 23:32:17 8.5 C 27 %
3311 24-12-2019 23:42:17 8.5 C 27 %
3312 24-12-2019 23:52:17 8.4 C 27 %
3313 25-12-2019 00:02:17 8.4 C 27 %
3314 25-12-2019 00:12:17 8.4 C 27 %
3315 25-12-2019 00:22:17 8.4 C 28 %
3316 25-12-2019 00:32:17 8.3 C 28 %
3317 25-12-2019 00:42:18 8.2 C 29 %
3318 25-12-2019 00:52:17 8.2 C 29 %
3319 25-12-2019 01:02:17 7.8 C 32 %
3320 25-12-2019 01:12:17 7.7 C 33 %
3321 25-12-2019 01:22:17 7.5 C 35 %
3322 25-12-2019 01:32:18 7.3 C 35 %
3323 25-12-2019 01:42:18 7.5 C 35 %
3324 25-12-2019 01:52:17 7.6 C 33 %
3325 25-12-2019 02:02:17 7.7 C 32 %
Sensor: Nr:Datum:Temp:Feuchte:
Aussen-T/F 3326 25-12-2019 02:12:17 8 C 31 %
3327 25-12-2019 02:22:17 7.9 C 31 %
3328 25-12-2019 02:32:18 7.9 C 31 %
3329 25-12-2019 02:42:18 7.9 C 31 %
3330 25-12-2019 02:52:17 7.9 C 31 %
3331 25-12-2019 03:02:17 7.8 C 31 %
3332 25-12-2019 03:12:17 7.9 C 32 %
3333 25-12-2019 03:22:17 8.1 C 31 %
3334 25-12-2019 03:32:17 8.3 C 30 %
3335 25-12-2019 03:42:17 8.2 C 30 %
3336 25-12-2019 03:52:18 8.2 C 30 %
3337 25-12-2019 04:02:17 7.9 C 34 %
3338 25-12-2019 04:12:17 8 C 34 %
3339 25-12-2019 04:22:18 7.9 C 35 %
3340 25-12-2019 04:32:17 7.9 C 36 %
3341 25-12-2019 04:42:17 7.9 C 38 %
3342 25-12-2019 04:52:17 7.9 C 36 %
3343 25-12-2019 05:02:17 7.9 C 37 %
3344 25-12-2019 05:12:17 7.8 C 37 %
3345 25-12-2019 05:22:18 7.6 C 38 %
3346 25-12-2019 05:32:17 8 C 36 %
3347 25-12-2019 05:42:17 7.9 C 35 %
3348 25-12-2019 05:52:17 7.5 C 35 %
3349 25-12-2019 06:02:18 7.5 C 35 %
3350 25-12-2019 06:12:18 7.2 C 36 %
Sensor: Nr:Datum:Temp:Feuchte:
Aussen-T/F 3351 25-12-2019 06:22:17 7.2 C 37 %
3352 25-12-2019 06:32:18 7.3 C 37 %
3353 25-12-2019 06:42:18 7.3 C 36 %
3354 25-12-2019 06:52:17 7.1 C 39 %
3355 25-12-2019 07:02:18 7.3 C 33 %
3356 25-12-2019 07:12:18 7.1 C 32 %
3357 25-12-2019 07:22:17 6.9 C 35 %
3358 25-12-2019 07:32:18 6.8 C 38 %
3359 25-12-2019 07:42:18 6.9 C 38 %
3360 25-12-2019 07:52:17 7 C 35 %
3361 25-12-2019 08:02:18 6.8 C 32 %
3362 25-12-2019 08:12:18 6.4 C 32 %
3363 25-12-2019 08:22:17 6.2 C 33 %
3364 25-12-2019 08:32:17 6.2 C 32 %
3365 25-12-2019 08:42:17 6.5 C 32 %
3366 25-12-2019 08:52:17 6.7 C 31 %
3367 25-12-2019 09:02:17 6.9 C 30 %
3368 25-12-2019 09:12:17 6.9 C 30 %
3369 25-12-2019 09:22:18 6.8 C 30 %
3370 25-12-2019 09:32:17 7.3 C 28 %
3371 25-12-2019 09:42:17 7.3 C 27 %
3372 25-12-2019 09:52:17 7.3 C 27 %
3373 25-12-2019 10:02:17 7.1 C 29 %
3374 25-12-2019 10:12:17 7.3 C 27 %
3375 25-12-2019 10:22:18 7.6 C 26 %
Sensor: Nr:Datum:Temp:Feuchte:
Aussen-T/F 3376 25-12-2019 10:32:17 7.7 C 26 %
3377 25-12-2019 10:42:17 7.8 C 25 %
3378 25-12-2019 10:52:17 7.5 C 26 %
3379 25-12-2019 11:02:17 7.5 C 26 %
3380 25-12-2019 11:12:17 7.5 C 26 %
3381 25-12-2019 11:22:17 7.7 C 26 %
3382 25-12-2019 11:32:17 7.4 C 26 %
3383 25-12-2019 11:42:17 7.4 C 27 %
3384 25-12-2019 11:52:18 7.1 C 28 %
3385 25-12-2019 12:02:17 7.1 C 29 %
3386 25-12-2019 12:12:17 7.6 C 27 %
3387 25-12-2019 12:22:17 7.6 C 27 %
3388 25-12-2019 12:32:17 7.7 C 27 %
3389 25-12-2019 12:42:17 7.8 C 27 %
3390 25-12-2019 12:52:18 7.6 C 27 %
3391 25-12-2019 13:02:17 7.1 C 29 %
3392 25-12-2019 13:12:17 7 C 31 %
3393 25-12-2019 13:22:18 6.9 C 31 %
3394 25-12-2019 13:32:17 7.1 C 30 %
3395 25-12-2019 13:42:17 7 C 30 %
3396 25-12-2019 13:52:17 6.9 C 30 %
3397 25-12-2019 14:02:17 7.1 C 30 %
3398 25-12-2019 14:12:17 7.4 C 29 %
3399 25-12-2019 14:22:18 7.6 C 28 %
3400 25-12-2019 14:32:17 7.7 C 29 %
Sensor: Nr:Datum:Temp:Feuchte:
Aussen-T/F 3401 25-12-2019 14:42:17 7.6 C 29 %
3402 25-12-2019 14:52:17 7.1 C 31 %
3403 25-12-2019 15:02:17 7.1 C 32 %
3404 25-12-2019 15:12:17 7.1 C 30 %
3405 25-12-2019 15:22:18 7.1 C 31 %
3406 25-12-2019 15:32:17 7.4 C 30 %
3407 25-12-2019 15:42:17 7.3 C 31 %
3408 25-12-2019 15:52:17 7.2 C 30 %
3409 25-12-2019 16:02:17 7.2 C 30 %
3410 25-12-2019 16:12:17 6.9 C 31 %
3411 25-12-2019 16:22:17 6.8 C 32 %
3412 25-12-2019 16:32:17 6.7 C 35 %
3413 25-12-2019 16:42:17 6.9 C 32 %
3414 25-12-2019 16:52:17 6.9 C 31 %
3415 25-12-2019 17:02:17 6.8 C 30 %
3416 25-12-2019 17:12:17 6.7 C 30 %
3417 25-12-2019 17:22:18 6.6 C 31 %
3418 25-12-2019 17:32:17 6.2 C 31 %
3419 25-12-2019 17:42:17 5.7 C 35 %
3420 25-12-2019 17:52:18 5.9 C 35 %
3421 25-12-2019 18:02:17 6 C 33 %
3422 25-12-2019 18:12:17 6.1 C 32 %
3423 25-12-2019 18:22:17 6.2 C 33 %
3424 25-12-2019 18:32:17 6.2 C 33 %
3425 25-12-2019 18:42:17 6.2 C 32 %
Sensor: Nr:Datum:Temp:Feuchte:
Aussen-T/F 3426 25-12-2019 18:52:17 6.2 C 32 %
3427 25-12-2019 19:02:17 6 C 33 %
3428 25-12-2019 19:12:17 5.9 C 33 %
3429 25-12-2019 19:22:17 6.1 C 32 %
3430 25-12-2019 19:32:18 6.1 C 32 %
3431 25-12-2019 19:42:18 6 C 33 %
3432 25-12-2019 19:52:17 5.9 C 33 %
3433 25-12-2019 20:02:17 5.8 C 35 %
3434 25-12-2019 20:12:17 5.9 C 35 %
3435 25-12-2019 20:22:18 5.9 C 34 %
3436 25-12-2019 20:32:17 5.8 C 34 %
3437 25-12-2019 20:42:17 5.6 C 37 %
3438 25-12-2019 20:52:17 5.5 C 38 %
3439 25-12-2019 21:02:18 5.5 C 38 %
3440 25-12-2019 21:12:18 5.4 C 40 %
3441 25-12-2019 21:22:17 5.3 C 41 %
3442 25-12-2019 21:32:17 5.3 C 43 %
3443 25-12-2019 21:42:17 5.3 C 42 %
3444 25-12-2019 21:52:17 5.2 C 42 %
3445 25-12-2019 22:02:18 5.2 C 42 %
3446 25-12-2019 22:12:18 5.1 C 43 %
3447 25-12-2019 22:22:17 5.2 C 42 %
3448 25-12-2019 22:32:18 5.1 C 41 %
3449 25-12-2019 22:42:18 5.1 C 42 %
3450 25-12-2019 22:52:17 5.2 C 42 %
Sensor: Nr:Datum:Temp:Feuchte:
Aussen-T/F 3451 25-12-2019 23:02:18 5.2 C 42 %
3452 25-12-2019 23:12:18 5.2 C 42 %
3453 25-12-2019 23:22:17 5.2 C 42 %
3454 25-12-2019 23:32:17 5.1 C 42 %
3455 25-12-2019 23:42:17 4.7 C 42 %
3456 25-12-2019 23:52:17 4.5 C 42 %
3457 26-12-2019 00:02:17 4.6 C 43 %
3458 26-12-2019 00:12:18 4 C 42 %
3459 26-12-2019 00:22:17 3.6 C 42 %
3460 26-12-2019 00:32:18 3.9 C 44 %
3461 26-12-2019 00:42:18 3.9 C 44 %
3462 26-12-2019 00:52:17 4.1 C 43 %
3463 26-12-2019 01:02:18 4.4 C 43 %
3464 26-12-2019 01:12:18 4.3 C 43 %
3465 26-12-2019 01:22:17 4.3 C 43 %
3466 26-12-2019 01:32:17 4.4 C 43 %
3467 26-12-2019 01:42:17 4.4 C 43 %
3468 26-12-2019 01:52:17 4.3 C 42 %
3469 26-12-2019 02:02:18 4.3 C 42 %
3470 26-12-2019 02:12:18 4.4 C 42 %
3471 26-12-2019 02:22:17 4.2 C 42 %
3472 26-12-2019 02:32:17 4 C 42 %
3473 26-12-2019 02:42:17 4 C 42 %
3474 26-12-2019 02:52:17 4.2 C 42 %
3475 26-12-2019 03:02:18 4.2 C 42 %
Sensor: Nr:Datum:Temp:Feuchte:
Aussen-T/F 3476 26-12-2019 03:12:18 4.1 C 42 %
3477 26-12-2019 03:22:17 4.1 C 42 %
3478 26-12-2019 03:32:17 4.1 C 42 %
3479 26-12-2019 03:42:17 4.1 C 42 %
3480 26-12-2019 03:52:17 3.9 C 43 %
3481 26-12-2019 04:02:17 3.6 C 42 %
3482 26-12-2019 04:12:17 3.6 C 42 %
3483 26-12-2019 04:22:18 3.4 C 42 %
3484 26-12-2019 04:32:17 3 C 42 %
3485 26-12-2019 04:42:17 3.1 C 42 %
3486 26-12-2019 04:52:17 3.1 C 43 %
3487 26-12-2019 05:02:17 3.3 C 43 %
3488 26-12-2019 05:12:17 3.5 C 43 %
3489 26-12-2019 05:22:17 3.4 C 43 %
3490 26-12-2019 05:32:18 3.5 C 43 %
3491 26-12-2019 05:42:18 3.4 C 43 %
3492 26-12-2019 05:52:17 3.5 C 43 %
3493 26-12-2019 06:02:17 3.6 C 43 %
3494 26-12-2019 06:12:18 3.6 C 43 %
3495 26-12-2019 06:22:17 3.5 C 43 %
3496 26-12-2019 06:32:18 3.6 C 43 %
3497 26-12-2019 06:42:18 3.5 C 43 %
3498 26-12-2019 06:52:17 3.5 C 43 %
3499 26-12-2019 07:02:18 3.5 C 43 %
3500 26-12-2019 07:12:18 3.5 C 43 %
Sensor: Nr:Datum:Temp:Feuchte:
Aussen-T/F 3501 26-12-2019 07:22:17 3.4 C 43 %
3502 26-12-2019 07:32:17 3.4 C 43 %
3503 26-12-2019 07:42:17 3.4 C 43 %
3504 26-12-2019 07:52:17 3.4 C 43 %
3505 26-12-2019 08:02:18 3.4 C 43 %
3506 26-12-2019 08:12:18 3.4 C 43 %
3507 26-12-2019 08:22:17 3.5 C 43 %
3508 26-12-2019 08:32:17 3.4 C 43 %
3509 26-12-2019 08:42:17 3.4 C 43 %
3510 26-12-2019 08:52:17 3.5 C 43 %
3511 26-12-2019 09:02:17 3.5 C 43 %
3512 26-12-2019 09:12:17 3.5 C 43 %
3513 26-12-2019 09:22:17 3.4 C 42 %
3514 26-12-2019 09:32:17 3.5 C 43 %
3515 26-12-2019 09:42:17 3.6 C 42 %
3516 26-12-2019 09:52:18 3.6 C 42 %
3517 26-12-2019 10:02:17 3.6 C 42 %
3518 26-12-2019 10:12:17 3.6 C 42 %
3519 26-12-2019 10:22:18 3.8 C 42 %
3520 26-12-2019 10:32:17 4 C 41 %
3521 26-12-2019 10:42:17 4.3 C 41 %
3522 26-12-2019 10:52:18 4.5 C 41 %
3523 26-12-2019 11:02:17 4.7 C 41 %
3524 26-12-2019 11:12:17 4.8 C 41 %
3525 26-12-2019 11:22:17 5 C 40 %
Sensor: Nr:Datum:Temp:Feuchte:
Aussen-T/F 3526 26-12-2019 11:32:17 5.4 C 40 %
3527 26-12-2019 11:42:17 5.5 C 39 %
3528 26-12-2019 11:52:17 5.6 C 37 %
3529 26-12-2019 12:02:17 5.7 C 36 %
3530 26-12-2019 12:12:17 5.7 C 36 %
3531 26-12-2019 12:22:17 5.7 C 35 %
3532 26-12-2019 12:32:18 5.9 C 35 %
3533 26-12-2019 12:42:18 6 C 35 %
3534 26-12-2019 12:52:17 6 C 36 %
3535 26-12-2019 13:02:18 5.9 C 36 %
3536 26-12-2019 13:12:18 5.9 C 37 %
3537 26-12-2019 13:22:17 5.8 C 36 %
3538 26-12-2019 13:32:18 5.8 C 36 %
3539 26-12-2019 13:42:18 5.7 C 36 %
3540 26-12-2019 13:52:17 5.7 C 36 %
3541 26-12-2019 14:02:18 5.7 C 36 %
3542 26-12-2019 14:12:18 5.8 C 35 %
3543 26-12-2019 14:22:17 6 C 35 %
3544 26-12-2019 14:32:17 6 C 35 %
3545 26-12-2019 14:42:17 5.7 C 35 %
3546 26-12-2019 14:52:17 5.6 C 36 %
3547 26-12-2019 15:02:17 5.5 C 36 %
3548 26-12-2019 15:12:17 5.4 C 36 %
3549 26-12-2019 15:22:17 5.1 C 38 %
3550 26-12-2019 15:32:17 5 C 37 %
Sensor: Nr:Datum:Temp:Feuchte:
Aussen-T/F 3551 26-12-2019 15:42:17 4.8 C 39 %
3552 26-12-2019 15:52:18 4.8 C 39 %
3553 26-12-2019 16:02:17 4.7 C 38 %
3554 26-12-2019 16:12:17 4.6 C 39 %
3555 26-12-2019 16:22:17 4.5 C 40 %
3556 26-12-2019 16:32:17 4.4 C 41 %
3557 26-12-2019 16:42:18 4.4 C 40 %
3558 26-12-2019 16:53:17 4.3 C 41 %
3559 26-12-2019 17:02:17 4.4 C 40 %
3560 26-12-2019 17:12:17 4.3 C 40 %
3561 26-12-2019 17:22:17 4.3 C 40 %
3562 26-12-2019 17:32:17 4.4 C 40 %
3563 26-12-2019 17:42:17 4.1 C 40 %
3564 26-12-2019 17:52:17 4.1 C 40 %
3565 26-12-2019 18:02:17 4 C 40 %
3566 26-12-2019 18:12:17 4 C 41 %
3567 26-12-2019 18:22:17 4.1 C 41 %
3568 26-12-2019 18:32:17 4.1 C 41 %
3569 26-12-2019 18:42:18 4.1 C 40 %
3570 26-12-2019 18:53:17 4.1 C 40 %
3571 26-12-2019 19:02:17 4 C 40 %
3572 26-12-2019 19:12:17 4 C 41 %
3573 26-12-2019 19:23:17 4 C 41 %
3574 26-12-2019 19:32:17 3.8 C 41 %
3575 26-12-2019 19:42:17 4 C 41 %
Sensor: Nr:Datum:Temp:Feuchte:
Aussen-T/F 3576 26-12-2019 19:53:17 3.8 C 41 %
3577 26-12-2019 20:02:17 3.8 C 42 %
3578 26-12-2019 20:12:17 3.9 C 42 %
3579 26-12-2019 20:23:17 4 C 41 %
3580 26-12-2019 20:32:17 4.1 C 40 %
3581 26-12-2019 20:42:17 4.2 C 39 %
3582 26-12-2019 20:53:17 4.1 C 38 %
3583 26-12-2019 21:02:17 4.3 C 37 %
3584 26-12-2019 21:12:17 4.2 C 38 %
3585 26-12-2019 21:23:17 4.1 C 38 %
3586 26-12-2019 21:32:18 4.1 C 38 %
3587 26-12-2019 21:42:18 4.2 C 37 %
3588 26-12-2019 21:52:17 4.3 C 37 %
3589 26-12-2019 22:02:18 4.1 C 39 %
3590 26-12-2019 22:12:18 4.1 C 41 %
3591 26-12-2019 22:22:17 4.1 C 41 %
3592 26-12-2019 22:33:17 4.1 C 41 %
3593 26-12-2019 22:43:17 4.1 C 42 %
3594 26-12-2019 22:52:17 4.1 C 42 %
3595 26-12-2019 23:03:17 4.1 C 43 %
3596 26-12-2019 23:13:17 4.1 C 43 %
3597 26-12-2019 23:23:17 4 C 43 %
3598 26-12-2019 23:32:17 4 C 43 %
3599 26-12-2019 23:42:17 4 C 42 %
3600 26-12-2019 23:53:17 4 C 42 %
Sensor: Nr:Datum:Temp:Feuchte:
Aussen-T/F 3601 27-12-2019 00:02:17 4 C 42 %
3602 27-12-2019 00:12:17 4 C 42 %
3603 27-12-2019 00:23:17 4 C 42 %
3604 27-12-2019 00:32:17 4 C 42 %
3605 27-12-2019 00:42:18 4.1 C 42 %
3606 27-12-2019 00:53:17 4.1 C 42 %
3607 27-12-2019 01:03:18 4.1 C 42 %
3608 27-12-2019 01:13:18 4.1 C 42 %
3609 27-12-2019 01:23:17 4.1 C 42 %
3610 27-12-2019 01:33:17 4.1 C 42 %
3611 27-12-2019 01:43:17 4.1 C 42 %
3612 27-12-2019 01:53:18 4.1 C 42 %
3613 27-12-2019 02:03:17 4.1 C 42 %
3614 27-12-2019 02:13:17 4.1 C 42 %
3615 27-12-2019 02:23:17 4.1 C 42 %
3616 27-12-2019 02:33:18 4.1 C 42 %
3617 27-12-2019 02:43:19 4.1 C 42 %
3618 27-12-2019 02:53:17 4.2 C 42 %
3619 27-12-2019 03:03:17 4.3 C 42 %
3620 27-12-2019 03:13:17 4.2 C 42 %
3621 27-12-2019 03:23:17 4.3 C 42 %
3622 27-12-2019 03:33:17 4.3 C 42 %
3623 27-12-2019 03:43:18 4.3 C 42 %
3624 27-12-2019 03:53:17 4.3 C 42 %
3625 27-12-2019 04:03:17 4.3 C 42 %
Sensor: Nr:Datum:Temp:Feuchte:
Aussen-T/F 3626 27-12-2019 04:13:17 4.3 C 42 %
3627 27-12-2019 04:23:17 4.3 C 42 %
3628 27-12-2019 04:33:17 4.3 C 42 %
3629 27-12-2019 04:43:17 4.3 C 42 %
3630 27-12-2019 04:53:18 4.4 C 42 %
3631 27-12-2019 05:03:17 4.4 C 42 %
3632 27-12-2019 05:13:17 4.4 C 42 %
3633 27-12-2019 05:23:17 4.4 C 42 %
3634 27-12-2019 05:33:17 4.3 C 42 %
3635 27-12-2019 05:43:17 4.4 C 42 %
3636 27-12-2019 05:53:17 4.4 C 42 %
3637 27-12-2019 06:03:17 4.4 C 42 %
3638 27-12-2019 06:13:17 4.4 C 42 %
3639 27-12-2019 06:23:17 4.4 C 42 %
3640 27-12-2019 06:33:17 4.4 C 42 %
3641 27-12-2019 06:43:17 4.4 C 42 %
3642 27-12-2019 06:53:17 4.4 C 42 %
3643 27-12-2019 07:03:17 4.5 C 42 %
3644 27-12-2019 07:13:17 4.4 C 42 %
3645 27-12-2019 07:23:18 4.4 C 42 %
3646 27-12-2019 07:33:17 4.4 C 42 %
3647 27-12-2019 07:43:17 4.4 C 42 %
3648 27-12-2019 07:53:17 4.3 C 42 %
3649 27-12-2019 08:03:17 4.3 C 42 %
3650 27-12-2019 08:13:17 4.3 C 42 %
Sensor: Nr:Datum:Temp:Feuchte:
Aussen-T/F 3651 27-12-2019 08:23:17 4.3 C 42 %
3652 27-12-2019 08:33:17 4.3 C 42 %
3653 27-12-2019 08:43:17 4.3 C 42 %
3654 27-12-2019 08:53:18 4.3 C 42 %
3655 27-12-2019 09:03:17 4.4 C 42 %
3656 27-12-2019 09:13:17 4.4 C 42 %
3657 27-12-2019 09:23:17 4.3 C 42 %
3658 27-12-2019 09:33:17 4.5 C 42 %
3659 27-12-2019 09:43:17 4.6 C 42 %
3660 27-12-2019 09:53:17 4.8 C 41 %
3661 27-12-2019 10:03:17 4.9 C 41 %
3662 27-12-2019 10:13:17 4.8 C 40 %
3663 27-12-2019 10:23:17 4.8 C 40 %
3664 27-12-2019 10:33:18 4.9 C 40 %
3665 27-12-2019 10:43:18 4.9 C 40 %
3666 27-12-2019 10:53:17 5 C 38 %
3667 27-12-2019 11:03:18 5 C 38 %
3668 27-12-2019 11:13:18 5.1 C 37 %
3669 27-12-2019 11:23:17 5.1 C 37 %
3670 27-12-2019 11:33:17 5.2 C 36 %
3671 27-12-2019 11:43:17 5.7 C 33 %
3672 27-12-2019 11:53:17 6 C 31 %
3673 27-12-2019 12:03:17 6.1 C 31 %
3674 27-12-2019 12:13:17 5.9 C 31 %
3675 27-12-2019 12:23:17 5.9 C 31 %
Sensor: Nr:Datum:Temp:Feuchte:
Aussen-T/F 3676 27-12-2019 12:33:17 6 C 31 %
3677 27-12-2019 12:43:17 6 C 31 %
3678 27-12-2019 12:53:17 5.9 C 31 %
3679 27-12-2019 13:03:17 5.7 C 31 %
3680 27-12-2019 13:13:17 5.7 C 31 %
3681 27-12-2019 13:23:17 5.6 C 31 %
3682 27-12-2019 13:33:17 5.7 C 31 %
3683 27-12-2019 13:43:17 5.7 C 30 %
3684 27-12-2019 13:53:17 5.8 C 30 %
3685 27-12-2019 14:03:18 5.9 C 30 %
3686 27-12-2019 14:13:18 6.1 C 29 %
3687 27-12-2019 14:23:18 5.9 C 29 %
3688 27-12-2019 14:33:17 6 C 30 %
3689 27-12-2019 14:43:17 5.9 C 28 %
3690 27-12-2019 14:53:18 5.8 C 26 %
3691 27-12-2019 15:03:17 5.7 C 27 %
3692 27-12-2019 15:13:17 5.7 C 28 %
3693 27-12-2019 15:23:18 5.6 C 29 %
3694 27-12-2019 15:33:17 5.6 C 29 %
3695 27-12-2019 15:43:17 5.4 C 30 %
3696 27-12-2019 15:53:17 5.3 C 31 %
3697 27-12-2019 16:03:17 5.1 C 33 %
3698 27-12-2019 16:13:17 4.9 C 33 %
3699 27-12-2019 16:23:17 4.9 C 33 %
3700 27-12-2019 16:33:17 4.8 C 34 %
Sensor: Nr:Datum:Temp:Feuchte:
Aussen-T/F 3701 27-12-2019 16:43:17 4.7 C 33 %
3702 27-12-2019 16:53:17 4.6 C 34 %
3703 27-12-2019 17:03:17 4.5 C 34 %
3704 27-12-2019 17:13:17 4.5 C 35 %
3705 27-12-2019 17:23:17 4.5 C 33 %
3706 27-12-2019 17:33:18 4.5 C 34 %
3707 27-12-2019 17:43:18 4.5 C 34 %
3708 27-12-2019 17:53:17 4.4 C 34 %
3709 27-12-2019 18:03:18 4.4 C 33 %
3710 27-12-2019 18:13:18 4.4 C 33 %
3711 27-12-2019 18:23:17 4.4 C 32 %
3712 27-12-2019 18:33:18 4.4 C 34 %
3713 27-12-2019 18:43:18 4.3 C 34 %
3714 27-12-2019 18:53:17 4.2 C 33 %
3715 27-12-2019 19:03:17 4.2 C 33 %
3716 27-12-2019 19:13:17 4.2 C 33 %
3717 27-12-2019 19:23:17 4.3 C 32 %
3718 27-12-2019 19:33:17 4.2 C 33 %
3719 27-12-2019 19:43:17 4.1 C 34 %
3720 27-12-2019 19:53:18 3.9 C 35 %
3721 27-12-2019 20:03:17 3.8 C 34 %
3722 27-12-2019 20:13:17 4 C 32 %
3723 27-12-2019 20:23:17 4 C 32 %
3724 27-12-2019 20:33:18 4 C 32 %
3725 27-12-2019 20:43:18 4 C 31 %
Sensor: Nr:Datum:Temp:Feuchte:
Aussen-T/F 3726 27-12-2019 20:53:17 4.1 C 31 %
3727 27-12-2019 21:03:18 4.1 C 31 %
3728 27-12-2019 21:13:18 4 C 31 %
3729 27-12-2019 21:23:17 4 C 31 %
3730 27-12-2019 21:33:18 3.9 C 33 %
3731 27-12-2019 21:43:18 3.9 C 32 %
3732 27-12-2019 21:53:17 3.7 C 32 %
3733 27-12-2019 22:03:17 3.6 C 32 %
3734 27-12-2019 22:13:17 3.3 C 32 %
3735 27-12-2019 22:23:17 3.2 C 32 %
3736 27-12-2019 22:33:17 2.7 C 33 %
3737 27-12-2019 22:43:17 2.2 C 34 %
3738 27-12-2019 22:53:17 2 C 35 %
3739 27-12-2019 23:03:18 1.7 C 38 %
3740 27-12-2019 23:13:18 1.3 C 39 %
3741 27-12-2019 23:23:17 1.2 C 41 %
3742 27-12-2019 23:33:17 0.9 C 42 %
3743 27-12-2019 23:43:17 0.8 C 41 %
3744 27-12-2019 23:53:17 0.7 C 41 %
3745 28-12-2019 00:03:17 0.5 C 40 %
3746 28-12-2019 00:13:17 0.4 C 41 %
3747 28-12-2019 00:23:18 0.4 C 41 %
3748 28-12-2019 00:33:17 0.3 C 41 %
3749 28-12-2019 00:43:17 0.3 C 41 %
3750 28-12-2019 00:53:17 0.2 C 40 %
Sensor: Nr:Datum:Temp:Feuchte:
Aussen-T/F 3751 28-12-2019 01:03:17 0.1 C 40 %
3752 28-12-2019 01:13:17 -0.2 C 43 %
3753 28-12-2019 01:23:17 -0.5 C 43 %
3754 28-12-2019 01:33:17 -0.3 C 44 %
3755 28-12-2019 01:43:17 -0.7 C 42 %
3756 28-12-2019 01:53:17 -1.1 C 43 %
3757 28-12-2019 02:03:17 -1.3 C 45 %
3758 28-12-2019 02:13:17 -1.5 C 44 %
3759 28-12-2019 02:23:17 -1.7 C 44 %
3760 28-12-2019 02:33:18 -1.5 C 45 %
3761 28-12-2019 02:43:18 -1.5 C 45 %
3762 28-12-2019 02:53:17 -1.6 C 45 %
3763 28-12-2019 03:03:17 -1.9 C 45 %
3764 28-12-2019 03:13:18 -1.7 C 45 %
3765 28-12-2019 03:23:17 -2.1 C 45 %
3766 28-12-2019 03:33:17 -2.1 C 45 %
3767 28-12-2019 03:43:17 -2.1 C 45 %
3768 28-12-2019 03:53:18 -2.4 C 45 %
3769 28-12-2019 04:03:17 -2.4 C 45 %
3770 28-12-2019 04:13:17 -2.4 C 45 %
3771 28-12-2019 04:23:17 -2.3 C 45 %
3772 28-12-2019 04:33:17 -2.4 C 45 %
3773 28-12-2019 04:43:18 -2.3 C 45 %
3774 28-12-2019 04:53:17 -2.4 C 45 %
3775 28-12-2019 05:03:18 -2.6 C 44 %
Sensor: Nr:Datum:Temp:Feuchte:
Aussen-T/F 3776 28-12-2019 05:13:18 -2.7 C 44 %
3777 28-12-2019 05:23:17 -2.5 C 45 %
3778 28-12-2019 05:33:18 -2.5 C 45 %
3779 28-12-2019 05:43:18 -2.1 C 45 %
3780 28-12-2019 05:53:17 -2.3 C 45 %
3781 28-12-2019 06:03:17 -1.8 C 45 %
3782 28-12-2019 06:13:18 -2.1 C 44 %
3783 28-12-2019 06:23:17 -2.2 C 43 %
3784 28-12-2019 06:33:17 -2 C 44 %
3785 28-12-2019 06:43:18 -1.9 C 44 %
3786 28-12-2019 06:53:17 -2.1 C 43 %
3787 28-12-2019 07:03:18 -2 C 43 %
3788 28-12-2019 07:13:18 -2.3 C 43 %
3789 28-12-2019 07:23:17 -2.8 C 42 %
3790 28-12-2019 07:33:17 -2.3 C 43 %
3791 28-12-2019 07:43:17 -2.4 C 43 %
3792 28-12-2019 07:53:17 -2.2 C 44 %
3793 28-12-2019 08:03:17 -2.6 C 43 %
3794 28-12-2019 08:13:17 -3 C 42 %
3795 28-12-2019 08:23:18 -3.1 C 42 %
3796 28-12-2019 08:33:17 -3.2 C 42 %
3797 28-12-2019 08:43:17 -3.2 C 42 %
3798 28-12-2019 08:53:17 -2.9 C 43 %
3799 28-12-2019 09:03:18 -2.9 C 43 %
3800 28-12-2019 09:13:18 -2.8 C 43 %
Sensor: Nr:Datum:Temp:Feuchte:
Aussen-T/F 3801 28-12-2019 09:23:17 -2.7 C 43 %
3802 28-12-2019 09:33:17 -2.5 C 43 %
3803 28-12-2019 09:43:17 -1.9 C 45 %
3804 28-12-2019 09:53:17 -1.7 C 45 %
3805 28-12-2019 10:03:17 -1.6 C 45 %
3806 28-12-2019 10:13:17 -1.4 C 45 %
3807 28-12-2019 10:23:17 -1.5 C 45 %
3808 28-12-2019 10:33:18 -1.3 C 45 %
3809 28-12-2019 10:43:18 -1.3 C 45 %
3810 28-12-2019 10:53:17 -1.1 C 45 %
3811 28-12-2019 11:03:18 -1 C 44 %
3812 28-12-2019 11:13:18 -0.9 C 44 %
3813 28-12-2019 11:23:17 -0.6 C 44 %
3814 28-12-2019 11:33:17 -0.5 C 43 %
3815 28-12-2019 11:43:18 -0.3 C 42 %
3816 28-12-2019 11:53:17 -0.2 C 42 %
3817 28-12-2019 12:03:17 -0.2 C 41 %
3818 28-12-2019 12:13:17 0 C 41 %
3819 28-12-2019 12:23:17 0.2 C 41 %
3820 28-12-2019 12:33:17 0.3 C 41 %
3821 28-12-2019 12:43:18 0.4 C 40 %
3822 28-12-2019 12:53:17 0.5 C 40 %
3823 28-12-2019 13:03:18 0.7 C 40 %
3824 28-12-2019 13:13:18 0.8 C 40 %
3825 28-12-2019 13:23:17 0.8 C 40 %
Sensor: Nr:Datum:Temp:Feuchte:
Aussen-T/F 3826 28-12-2019 13:33:17 0.9 C 40 %
3827 28-12-2019 13:43:17 0.8 C 40 %
3828 28-12-2019 13:53:17 0.6 C 40 %
3829 28-12-2019 14:03:17 0.6 C 41 %
3830 28-12-2019 14:13:17 0.7 C 41 %
3831 28-12-2019 14:23:17 0.8 C 40 %
3832 28-12-2019 14:33:17 0.7 C 40 %
3833 28-12-2019 14:43:17 0.6 C 40 %
3834 28-12-2019 14:53:17 0.5 C 40 %
3835 28-12-2019 15:03:17 0.5 C 40 %
3836 28-12-2019 15:13:18 0.5 C 40 %
3837 28-12-2019 15:23:17 0.2 C 40 %
3838 28-12-2019 15:33:17 0.4 C 40 %
3839 28-12-2019 15:43:17 0.3 C 39 %
3840 28-12-2019 15:53:18 0.4 C 39 %
3841 28-12-2019 16:03:17 0.3 C 38 %
3842 28-12-2019 16:13:17 0.2 C 38 %
3843 28-12-2019 16:23:17 0 C 39 %
3844 28-12-2019 16:33:17 0 C 39 %
3845 28-12-2019 16:43:17 -0.1 C 38 %
3846 28-12-2019 16:53:17 -0.3 C 39 %
3847 28-12-2019 17:03:17 -0.4 C 39 %
3848 28-12-2019 17:13:17 -0.4 C 40 %
3849 28-12-2019 17:23:17 -0.5 C 40 %
3850 28-12-2019 17:33:18 -0.6 C 40 %
Sensor: Nr:Datum:Temp:Feuchte:
Aussen-T/F 3851 28-12-2019 17:43:18 -0.7 C 41 %
3852 28-12-2019 17:53:17 -1.3 C 41 %
3853 28-12-2019 18:03:17 -1.2 C 44 %
3854 28-12-2019 18:13:17 -1.1 C 43 %
3855 28-12-2019 18:23:17 -1.1 C 43 %
3856 28-12-2019 18:33:17 -0.9 C 43 %
3857 28-12-2019 18:43:17 -1.2 C 43 %
3858 28-12-2019 18:53:17 -0.9 C 43 %
3859 28-12-2019 19:03:17 -1.2 C 42 %
3860 28-12-2019 19:13:18 -1.7 C 42 %
3861 28-12-2019 19:23:17 -1.9 C 43 %
3862 28-12-2019 19:33:18 -1.9 C 44 %
3863 28-12-2019 19:43:18 -1.9 C 44 %
3864 28-12-2019 19:53:17 -1.8 C 44 %
3865 28-12-2019 20:03:17 -1.9 C 44 %
3866 28-12-2019 20:13:17 -1.7 C 45 %
3867 28-12-2019 20:23:17 -1.2 C 45 %
3868 28-12-2019 20:33:18 -1.2 C 43 %
3869 28-12-2019 20:43:18 -1.4 C 43 %
3870 28-12-2019 20:53:18 -1.2 C 44 %
3871 28-12-2019 21:03:17 -1.6 C 43 %
3872 28-12-2019 21:13:17 -1.3 C 44 %
3873 28-12-2019 21:23:17 -1.4 C 41 %
3874 28-12-2019 21:33:17 -1.8 C 41 %
3875 28-12-2019 21:43:18 -1.6 C 43 %
Sensor: Nr:Datum:Temp:Feuchte:
Aussen-T/F 3876 28-12-2019 21:53:17 -1.7 C 42 %
3877 28-12-2019 22:03:18 -1.7 C 42 %
3878 28-12-2019 22:13:18 -2.2 C 41 %
3879 28-12-2019 22:23:17 -2.3 C 42 %
3880 28-12-2019 22:33:17 -2.3 C 42 %
3881 28-12-2019 22:43:17 -2.5 C 42 %
3882 28-12-2019 22:53:17 -2.2 C 43 %
3883 28-12-2019 23:03:17 -2.5 C 42 %
3884 28-12-2019 23:13:17 -2.3 C 43 %
3885 28-12-2019 23:23:17 -2.3 C 43 %
3886 28-12-2019 23:33:17 -2.7 C 42 %
3887 28-12-2019 23:43:17 -2.6 C 43 %
3888 28-12-2019 23:53:17 -2.9 C 42 %
3889 29-12-2019 00:03:18 -2.6 C 43 %
3890 29-12-2019 00:13:18 -2.9 C 43 %
3891 29-12-2019 00:23:17 -3.1 C 42 %
3892 29-12-2019 00:33:17 -3.2 C 43 %
3893 29-12-2019 00:43:17 -3.1 C 43 %
3894 29-12-2019 00:53:17 -3.1 C 43 %
3895 29-12-2019 01:03:17 -3.3 C 42 %
3896 29-12-2019 01:13:17 -3.3 C 43 %
3897 29-12-2019 01:23:17 -3.5 C 42 %
3898 29-12-2019 01:33:17 -3.7 C 42 %
3899 29-12-2019 01:43:17 -3 C 44 %
3900 29-12-2019 01:53:17 -3.5 C 42 %
Sensor: Nr:Datum:Temp:Feuchte:
Aussen-T/F 3901 29-12-2019 02:03:17 -3.7 C 41 %
3902 29-12-2019 02:13:17 -3.8 C 42 %
3903 29-12-2019 02:23:17 -3.3 C 43 %
3904 29-12-2019 02:33:17 -3.7 C 41 %
3905 29-12-2019 02:43:17 -3.7 C 42 %
3906 29-12-2019 02:53:18 -3.8 C 41 %
3907 29-12-2019 03:03:17 -4 C 41 %
3908 29-12-2019 03:13:17 -4 C 42 %
3909 29-12-2019 03:23:17 -4 C 41 %
3910 29-12-2019 03:33:17 -4.1 C 41 %
3911 29-12-2019 03:43:17 -4.1 C 41 %
3912 29-12-2019 03:53:18 -4 C 42 %
3913 29-12-2019 04:03:17 -4.2 C 41 %
3914 29-12-2019 04:13:17 -3.9 C 42 %
3915 29-12-2019 04:23:17 -4.1 C 41 %
3916 29-12-2019 04:33:17 -4.1 C 41 %
3917 29-12-2019 04:43:17 -4.4 C 41 %
3918 29-12-2019 04:53:17 -4.2 C 41 %
3919 29-12-2019 05:03:17 -4.3 C 41 %
3920 29-12-2019 05:13:17 -4.5 C 41 %
3921 29-12-2019 05:23:17 -4.5 C 41 %
3922 29-12-2019 05:33:18 -4.4 C 41 %
3923 29-12-2019 05:43:18 -4.5 C 41 %
3924 29-12-2019 05:53:17 -4.7 C 41 %
3925 29-12-2019 06:03:17 -4.6 C 41 %
Sensor: Nr:Datum:Temp:Feuchte:
Aussen-T/F 3926 29-12-2019 06:13:17 -4.7 C 41 %
3927 29-12-2019 06:23:17 -4.8 C 41 %
3928 29-12-2019 06:33:17 -4.8 C 41 %
3929 29-12-2019 06:43:17 -4.8 C 41 %
3930 29-12-2019 06:53:17 -4.8 C 41 %
3931 29-12-2019 07:03:17 -4.9 C 41 %
3932 29-12-2019 07:13:17 -4.9 C 41 %
3933 29-12-2019 07:23:17 -5 C 41 %
3934 29-12-2019 07:33:17 -4.5 C 42 %
3935 29-12-2019 07:43:17 -4.7 C 41 %
3936 29-12-2019 07:53:17 -4.7 C 41 %
3937 29-12-2019 08:03:17 -4.4 C 42 %
3938 29-12-2019 08:13:17 -4.3 C 42 %
3939 29-12-2019 08:23:18 -3.9 C 43 %
3940 29-12-2019 08:33:17 -4.1 C 41 %
3941 29-12-2019 08:43:17 -4.3 C 41 %
3942 29-12-2019 08:53:17 -4.5 C 40 %
3943 29-12-2019 09:03:17 -4.1 C 42 %
3944 29-12-2019 09:13:17 -3.9 C 42 %
3945 29-12-2019 09:23:18 -4 C 41 %
3946 29-12-2019 09:33:17 -4.1 C 41 %
3947 29-12-2019 09:43:17 -4 C 41 %
3948 29-12-2019 09:53:17 -4 C 41 %
3949 29-12-2019 10:03:18 -4 C 40 %
3950 29-12-2019 10:13:18 -3.9 C 41 %
Sensor: Nr:Datum:Temp:Feuchte:
Aussen-T/F 3951 29-12-2019 10:23:17 -3.5 C 42 %
3952 29-12-2019 10:33:17 -3.3 C 42 %
3953 29-12-2019 10:43:17 -3.1 C 42 %
3954 29-12-2019 10:53:17 -2.6 C 43 %
3955 29-12-2019 11:03:17 -2.1 C 43 %
3956 29-12-2019 11:13:17 -1.8 C 42 %
3957 29-12-2019 11:23:17 -1.4 C 43 %
3958 29-12-2019 11:33:17 -1.3 C 42 %
3959 29-12-2019 11:43:18 -0.8 C 43 %
3960 29-12-2019 11:53:17 -0.4 C 42 %
3961 29-12-2019 12:03:18 -0.5 C 41 %
3962 29-12-2019 12:13:18 -0.3 C 41 %
3963 29-12-2019 12:23:17 0.1 C 40 %
3964 29-12-2019 12:33:17 0.3 C 40 %
3965 29-12-2019 12:43:17 0.5 C 40 %
3966 29-12-2019 12:53:17 0.4 C 40 %
3967 29-12-2019 13:03:17 0.7 C 38 %
3968 29-12-2019 13:13:17 1 C 37 %
3969 29-12-2019 13:23:17 1 C 37 %
3970 29-12-2019 13:33:18 1.4 C 36 %
3971 29-12-2019 13:43:18 1.4 C 38 %
3972 29-12-2019 13:53:17 1.5 C 37 %
3973 29-12-2019 14:03:17 1.5 C 36 %
3974 29-12-2019 14:13:17 1.4 C 37 %
3975 29-12-2019 14:23:17 1.7 C 36 %
Sensor: Nr:Datum:Temp:Feuchte:
Aussen-T/F 3976 29-12-2019 14:33:18 1.9 C 36 %
3977 29-12-2019 14:43:18 2.2 C 34 %
3978 29-12-2019 14:53:17 2.1 C 33 %
3979 29-12-2019 15:03:17 1.9 C 34 %
3980 29-12-2019 15:13:18 2 C 31 %
3981 29-12-2019 15:23:17 2 C 27 %
3982 29-12-2019 15:33:17 1.9 C 30 %
3983 29-12-2019 15:43:17 1.5 C 32 %
3984 29-12-2019 15:53:18 1.1 C 32 %
3985 29-12-2019 16:03:17 0.5 C 35 %
3986 29-12-2019 16:13:17 0.2 C 38 %
3987 29-12-2019 16:23:17 0.2 C 39 %
3988 29-12-2019 16:33:18 -0.3 C 39 %
3989 29-12-2019 16:43:18 -0.1 C 40 %
3990 29-12-2019 16:53:17 -0.2 C 40 %
3991 29-12-2019 17:03:17 -0.2 C 40 %
3992 29-12-2019 17:13:17 -0.3 C 39 %
3993 29-12-2019 17:23:17 -0.3 C 37 %
3994 29-12-2019 17:33:17 -0.3 C 37 %
3995 29-12-2019 17:43:17 -0.1 C 36 %
3996 29-12-2019 17:53:17 -0.2 C 38 %
3997 29-12-2019 18:03:17 -0.1 C 37 %
3998 29-12-2019 18:13:17 0.1 C 37 %
3999 29-12-2019 18:23:17 0.2 C 36 %
4000 29-12-2019 18:33:17 -0.2 C 38 %
Sensor: Nr:Datum:Temp:Feuchte:
Aussen-T/F 4001 29-12-2019 18:43:17 -0.5 C 40 %
4002 29-12-2019 18:53:17 -0.8 C 40 %
4003 29-12-2019 19:03:17 -0.5 C 41 %
4004 29-12-2019 19:13:17 -0.7 C 38 %
4005 29-12-2019 19:23:18 -0.6 C 37 %
4006 29-12-2019 19:33:18 -0.6 C 35 %
4007 29-12-2019 19:43:18 -1 C 35 %
4008 29-12-2019 19:53:17 -1.1 C 36 %
4009 29-12-2019 20:03:18 -0.9 C 34 %
4010 29-12-2019 20:13:18 -1.2 C 36 %
4011 29-12-2019 20:23:17 -0.7 C 35 %
4012 29-12-2019 20:33:17 -1.3 C 37 %
4013 29-12-2019 20:43:17 -0.9 C 39 %
4014 29-12-2019 20:53:17 -1.5 C 39 %
4015 29-12-2019 21:03:17 -1.2 C 38 %
4016 29-12-2019 21:13:17 -1.8 C 37 %
4017 29-12-2019 21:23:17 -1.8 C 40 %
4018 29-12-2019 21:33:18 -1.8 C 41 %
4019 29-12-2019 21:43:18 -2.1 C 42 %
4020 29-12-2019 21:53:17 -2.3 C 42 %
4021 29-12-2019 22:03:17 -2.2 C 43 %
4022 29-12-2019 22:13:17 -2.1 C 43 %
4023 29-12-2019 22:23:17 -2.4 C 42 %
4024 29-12-2019 22:33:17 -2.7 C 42 %
4025 29-12-2019 22:43:18 -2.7 C 43 %
Sensor: Nr:Datum:Temp:Feuchte:
Aussen-T/F 4026 29-12-2019 22:53:17 -2.7 C 43 %
4027 29-12-2019 23:03:17 -2.8 C 43 %
4028 29-12-2019 23:13:17 -2.7 C 44 %
4029 29-12-2019 23:23:17 -2.8 C 43 %
4030 29-12-2019 23:33:18 -3 C 43 %
4031 29-12-2019 23:43:18 -3 C 43 %
4032 29-12-2019 23:53:17 -3 C 42 %
4033 30-12-2019 00:03:17 -3 C 42 %
4034 30-12-2019 00:13:17 -3.1 C 41 %
4035 30-12-2019 00:23:17 -3.1 C 41 %
4036 30-12-2019 00:33:17 -3 C 42 %
4037 30-12-2019 00:43:17 -3.2 C 42 %
4038 30-12-2019 00:53:17 -3.2 C 42 %
4039 30-12-2019 01:03:17 -3.2 C 42 %
4040 30-12-2019 01:13:18 -3.1 C 44 %
4041 30-12-2019 01:23:17 -3.1 C 43 %
4042 30-12-2019 01:33:18 -3.2 C 42 %
4043 30-12-2019 01:43:18 -3.4 C 42 %
4044 30-12-2019 01:53:17 -3.5 C 42 %
4045 30-12-2019 02:03:17 -3.2 C 43 %
4046 30-12-2019 02:13:17 -3.4 C 43 %
4047 30-12-2019 02:23:17 -3.4 C 43 %
4048 30-12-2019 02:33:18 -3.4 C 43 %
4049 30-12-2019 02:43:18 -3.4 C 43 %
4050 30-12-2019 02:53:17 -3.4 C 43 %
Sensor: Nr:Datum:Temp:Feuchte:
Aussen-T/F 4051 30-12-2019 03:03:17 -3.3 C 43 %
4052 30-12-2019 03:13:17 -3.4 C 43 %
4053 30-12-2019 03:23:17 -3.1 C 43 %
4054 30-12-2019 03:33:18 -3.2 C 43 %
4055 30-12-2019 03:43:18 -3.3 C 43 %
4056 30-12-2019 03:53:17 -3.5 C 43 %
4057 30-12-2019 04:03:17 -3.7 C 42 %
4058 30-12-2019 04:13:17 -3.8 C 42 %
4059 30-12-2019 04:23:17 -3.8 C 42 %
4060 30-12-2019 04:33:17 -3.9 C 42 %
4061 30-12-2019 04:43:17 -3.9 C 42 %
4062 30-12-2019 04:53:17 -4 C 42 %
4063 30-12-2019 05:03:17 -3.9 C 42 %
4064 30-12-2019 05:13:17 -3.8 C 42 %
4065 30-12-2019 05:23:17 -3.9 C 42 %
4066 30-12-2019 05:33:17 -3.7 C 43 %
4067 30-12-2019 05:43:17 -3.8 C 43 %
4068 30-12-2019 05:53:18 -4 C 42 %
4069 30-12-2019 06:03:17 -4 C 42 %
4070 30-12-2019 06:13:17 -4 C 42 %
4071 30-12-2019 06:23:17 -3.9 C 42 %
4072 30-12-2019 06:33:17 -3.7 C 43 %
4073 30-12-2019 06:43:17 -3.9 C 42 %
4074 30-12-2019 06:53:17 -4 C 42 %
4075 30-12-2019 07:03:17 -4 C 42 %
Sensor: Nr:Datum:Temp:Feuchte:
Aussen-T/F 4076 30-12-2019 07:13:17 -4.2 C 41 %
4077 30-12-2019 07:23:17 -4.4 C 42 %
4078 30-12-2019 07:33:18 -4.4 C 41 %
4079 30-12-2019 07:43:18 -4.4 C 42 %
4080 30-12-2019 07:53:17 -4.2 C 42 %
4081 30-12-2019 08:03:17 -4.4 C 41 %
4082 30-12-2019 08:13:17 -4.3 C 42 %
4083 30-12-2019 08:23:17 -4.4 C 42 %
4084 30-12-2019 08:33:17 -4.5 C 41 %
4085 30-12-2019 08:43:17 -4 C 43 %
4086 30-12-2019 08:53:17 -4.2 C 41 %
4087 30-12-2019 09:03:18 -4.1 C 42 %
4088 30-12-2019 09:13:18 -3.9 C 42 %
4089 30-12-2019 09:23:17 -3.8 C 42 %
4090 30-12-2019 09:33:17 -3.6 C 43 %
4091 30-12-2019 09:43:17 -3.7 C 42 %
4092 30-12-2019 09:53:17 -3.7 C 42 %
4093 30-12-2019 10:03:17 -3.5 C 42 %
4094 30-12-2019 10:13:17 -3.3 C 43 %
4095 30-12-2019 10:23:17 -3.3 C 42 %
4096 30-12-2019 10:33:17 -3.3 C 42 %
4097 30-12-2019 10:43:17 -3 C 43 %
4098 30-12-2019 10:53:17 -2.9 C 42 %
4099 30-12-2019 11:03:17 -2.9 C 42 %
4100 30-12-2019 11:13:17 -2.8 C 42 %
Sensor: Nr:Datum:Temp:Feuchte:
Aussen-T/F 4101 30-12-2019 11:23:17 -2.4 C 43 %
4102 30-12-2019 11:33:17 -2.1 C 42 %
4103 30-12-2019 11:43:17 -2 C 41 %
4104 30-12-2019 11:53:18 -2.1 C 40 %
4105 30-12-2019 12:03:17 -1.7 C 41 %
4106 30-12-2019 12:13:17 -1.5 C 40 %
4107 30-12-2019 12:23:17 -1.6 C 40 %
4108 30-12-2019 12:33:17 -1.4 C 41 %
4109 30-12-2019 12:43:17 -0.7 C 39 %
4110 30-12-2019 12:53:17 -0.8 C 39 %
4111 30-12-2019 13:03:17 -0.8 C 38 %
4112 30-12-2019 13:13:17 -1 C 40 %
4113 30-12-2019 13:23:17 -1 C 41 %
4114 30-12-2019 13:33:17 -1 C 42 %
4115 30-12-2019 13:43:17 -0.6 C 42 %
4116 30-12-2019 13:53:17 -0.2 C 41 %
4117 30-12-2019 14:03:17 0.3 C 37 %
4118 30-12-2019 14:13:17 0.1 C 35 %
4119 30-12-2019 14:23:17 0.6 C 35 %
4120 30-12-2019 14:33:17 0.5 C 35 %
4121 30-12-2019 14:43:17 1 C 32 %
4122 30-12-2019 14:53:17 0.6 C 35 %
4123 30-12-2019 15:03:17 0.9 C 36 %
4124 30-12-2019 15:13:17 1.1 C 33 %
4125 30-12-2019 15:23:17 0.6 C 35 %
Sensor: Nr:Datum:Temp:Feuchte:
Aussen-T/F 4126 30-12-2019 15:33:18 0.6 C 36 %
4127 30-12-2019 15:43:18 0.7 C 35 %
4128 30-12-2019 15:53:17 1.6 C 32 %
4129 30-12-2019 16:03:18 1.7 C 32 %
4130 30-12-2019 16:13:18 1.9 C 31 %
4131 30-12-2019 16:23:18 1.6 C 33 %
4132 30-12-2019 16:33:17 1.1 C 35 %
4133 30-12-2019 16:43:17 0.8 C 37 %
4134 30-12-2019 16:53:17 0.6 C 40 %
4135 30-12-2019 17:03:17 0.7 C 40 %
4136 30-12-2019 17:13:17 0.7 C 40 %
4137 30-12-2019 17:23:18 0.6 C 40 %
4138 30-12-2019 17:33:17 0.5 C 40 %
4139 30-12-2019 17:43:17 0.5 C 40 %
4140 30-12-2019 17:53:17 0.5 C 37 %
4141 30-12-2019 18:03:17 0.3 C 36 %
4142 30-12-2019 18:13:17 -0.3 C 36 %
4143 30-12-2019 18:23:18 -0.7 C 37 %
4144 30-12-2019 18:33:18 -0.4 C 36 %
4145 30-12-2019 18:43:18 -0.2 C 36 %
4146 30-12-2019 18:53:17 -0.6 C 34 %
4147 30-12-2019 19:03:17 -1.3 C 36 %
4148 30-12-2019 19:13:17 -1 C 36 %
4149 30-12-2019 19:23:18 -1.4 C 36 %
4150 30-12-2019 19:33:17 -1.4 C 39 %
Sensor: Nr:Datum:Temp:Feuchte:
Aussen-T/F 4151 30-12-2019 19:43:17 -0.4 C 33 %
4152 30-12-2019 19:53:18 0 C 32 %
4153 30-12-2019 20:03:17 -0.3 C 31 %
4154 30-12-2019 20:13:17 -1.2 C 32 %
4155 30-12-2019 20:23:17 -1.6 C 35 %
4156 30-12-2019 20:33:17 -1.6 C 36 %
4157 30-12-2019 20:43:17 -1.7 C 36 %
4158 30-12-2019 20:53:17 -1.5 C 37 %
4159 30-12-2019 21:03:17 -1.9 C 37 %
4160 30-12-2019 21:13:17 -0.8 C 35 %
4161 30-12-2019 21:23:17 -1.1 C 35 %
4162 30-12-2019 21:33:17 -0.9 C 35 %
4163 30-12-2019 21:43:17 -0.8 C 36 %
4164 30-12-2019 21:53:17 -1.1 C 33 %
4165 30-12-2019 22:03:17 -1.5 C 35 %
4166 30-12-2019 22:13:17 -1.7 C 35 %
4167 30-12-2019 22:23:17 -1.7 C 35 %
4168 30-12-2019 22:33:17 -2.3 C 35 %
4169 30-12-2019 22:43:17 -1.8 C 35 %
4170 30-12-2019 22:53:17 -2 C 36 %
4171 30-12-2019 23:03:17 -2.3 C 36 %
4172 30-12-2019 23:13:17 -1.5 C 36 %
4173 30-12-2019 23:23:17 -0.9 C 32 %
4174 30-12-2019 23:33:17 -0.3 C 31 %
4175 30-12-2019 23:43:17 -0.9 C 31 %
Sensor: Nr:Datum:Temp:Feuchte:
Aussen-T/F 4176 30-12-2019 23:53:17 -1 C 31 %
4177 31-12-2019 00:03:17 -1.2 C 32 %
4178 31-12-2019 00:13:18 -1.4 C 34 %
4179 31-12-2019 00:23:17 -1.6 C 36 %
4180 31-12-2019 00:33:18 -1.2 C 35 %
4181 31-12-2019 00:43:18 -1.5 C 35 %
4182 31-12-2019 00:53:17 -1.5 C 36 %
4183 31-12-2019 01:03:17 -1.5 C 36 %
4184 31-12-2019 01:13:17 -0.8 C 34 %
4185 31-12-2019 01:23:18 -1.3 C 34 %
4186 31-12-2019 01:33:17 -1.6 C 37 %
4187 31-12-2019 01:43:17 -2 C 37 %
4188 31-12-2019 01:53:17 -2.3 C 38 %
4189 31-12-2019 02:03:17 -2.5 C 40 %
4190 31-12-2019 02:13:17 -2.7 C 40 %
4191 31-12-2019 02:23:18 -2.8 C 41 %
4192 31-12-2019 02:33:17 -3 C 41 %
4193 31-12-2019 02:43:17 -2.9 C 43 %
4194 31-12-2019 02:53:17 -2 C 45 %
4195 31-12-2019 03:03:17 -1.7 C 42 %
4196 31-12-2019 03:13:18 -2 C 40 %
4197 31-12-2019 03:23:17 -2.4 C 40 %
4198 31-12-2019 03:33:18 -2.5 C 41 %
4199 31-12-2019 03:43:18 -2.9 C 41 %
4200 31-12-2019 03:53:17 -2.8 C 42 %
Sensor: Nr:Datum:Temp:Feuchte:
Aussen-T/F 4201 31-12-2019 04:03:17 -2.6 C 43 %
4202 31-12-2019 04:13:17 -3.1 C 42 %
4203 31-12-2019 04:23:17 -3.2 C 42 %
4204 31-12-2019 04:33:17 -3.3 C 42 %
4205 31-12-2019 04:43:18 -3.3 C 42 %
4206 31-12-2019 04:53:17 -3.2 C 43 %
4207 31-12-2019 05:03:17 -3.3 C 42 %
4208 31-12-2019 05:13:17 -3.6 C 42 %
4209 31-12-2019 05:23:17 -3.4 C 43 %
4210 31-12-2019 05:33:17 -3.1 C 44 %
4211 31-12-2019 05:43:17 -3 C 44 %
4212 31-12-2019 05:53:17 -2.9 C 44 %
4213 31-12-2019 06:03:17 -3.1 C 43 %
4214 31-12-2019 06:13:17 -3.3 C 43 %
4215 31-12-2019 06:23:17 -3.2 C 43 %
4216 31-12-2019 06:33:17 -3.3 C 43 %
4217 31-12-2019 06:43:17 -3.4 C 43 %
4218 31-12-2019 06:53:18 -3.2 C 44 %
4219 31-12-2019 07:03:17 -3.2 C 44 %
4220 31-12-2019 07:13:17 -3 C 44 %
4221 31-12-2019 07:23:17 -3.1 C 44 %
4222 31-12-2019 07:33:17 -3 C 44 %
4223 31-12-2019 07:43:17 -2.6 C 45 %
4224 31-12-2019 07:53:18 -2.1 C 45 %
4225 31-12-2019 08:03:17 -2 C 45 %
Sensor: Nr:Datum:Temp:Feuchte:
Aussen-T/F 4226 31-12-2019 08:13:17 -2 C 45 %
4227 31-12-2019 08:23:17 -1.3 C 45 %
4228 31-12-2019 08:33:17 -1 C 44 %
4229 31-12-2019 08:43:17 -1 C 43 %
4230 31-12-2019 08:53:17 -1.1 C 42 %
4231 31-12-2019 09:03:17 -1 C 43 %
4232 31-12-2019 09:13:17 -0.9 C 44 %
4233 31-12-2019 09:23:17 -1.1 C 42 %
4234 31-12-2019 09:33:17 -1.1 C 42 %
4235 31-12-2019 09:43:17 -1.1 C 42 %
4236 31-12-2019 09:53:17 -0.9 C 43 %
4237 31-12-2019 10:03:17 -0.6 C 44 %
4238 31-12-2019 10:13:17 -0.2 C 43 %
4239 31-12-2019 10:23:17 0.1 C 41 %
4240 31-12-2019 10:33:17 0.3 C 40 %
4241 31-12-2019 10:43:17 0.3 C 38 %
4242 31-12-2019 10:53:18 0.5 C 40 %
4243 31-12-2019 11:03:17 0.8 C 41 %
4244 31-12-2019 11:13:17 0.7 C 41 %
4245 31-12-2019 11:23:17 1.2 C 40 %
4246 31-12-2019 11:33:17 1.1 C 38 %
4247 31-12-2019 11:43:17 1.5 C 40 %
4248 31-12-2019 11:53:17 1.5 C 40 %
4249 31-12-2019 12:03:18 1.8 C 31 %
4250 31-12-2019 12:13:18 2.4 C 35 %
Sensor: Nr:Datum:Temp:Feuchte:
Aussen-T/F 4251 31-12-2019 12:23:17 2.6 C 33 %
4252 31-12-2019 12:33:18 2.4 C 32 %
4253 31-12-2019 12:43:18 2.8 C 30 %
4254 31-12-2019 12:53:17 2.3 C 29 %
4255 31-12-2019 13:03:18 2.4 C 28 %
4256 31-12-2019 13:13:18 2.4 C 27 %
4257 31-12-2019 13:23:17 2.8 C 27 %
4258 31-12-2019 13:33:17 2.8 C 26 %
4259 31-12-2019 13:43:17 3.3 C 26 %
4260 31-12-2019 13:53:17 2.9 C 26 %
4261 31-12-2019 14:03:18 2.7 C 27 %
4262 31-12-2019 14:13:18 2.9 C 27 %
4263 31-12-2019 14:23:17 3.1 C 26 %
4264 31-12-2019 14:33:17 3.4 C 26 %
4265 31-12-2019 14:43:17 3.2 C 26 %
4266 31-12-2019 14:53:17 3 C 26 %
4267 31-12-2019 15:03:17 2.8 C 27 %
4268 31-12-2019 15:13:17 2.9 C 27 %
4269 31-12-2019 15:23:18 3 C 27 %
4270 31-12-2019 15:33:17 3 C 27 %
4271 31-12-2019 15:43:17 2.9 C 28 %
4272 31-12-2019 15:53:17 2.7 C 29 %
4273 31-12-2019 16:03:17 2.1 C 30 %
4274 31-12-2019 16:13:17 0.9 C 35 %
4275 31-12-2019 16:23:18 0.6 C 38 %
Sensor: Nr:Datum:Temp:Feuchte:
Aussen-T/F 4276 31-12-2019 16:33:17 0.3 C 40 %
4277 31-12-2019 16:43:17 0.2 C 39 %
4278 31-12-2019 16:53:18 0.2 C 40 %
4279 31-12-2019 17:03:17 -0.1 C 41 %
4280 31-12-2019 17:13:17 -0.4 C 41 %
4281 31-12-2019 17:23:17 -0.3 C 40 %
4282 31-12-2019 17:33:17 -0.3 C 41 %
4283 31-12-2019 17:43:17 -0.6 C 43 %
4284 31-12-2019 17:53:18 -0.7 C 43 %
4285 31-12-2019 18:03:17 -1.1 C 43 %
4286 31-12-2019 18:13:17 -1.2 C 45 %
4287 31-12-2019 18:23:17 -0.9 C 45 %
4288 31-12-2019 18:33:17 -0.8 C 45 %
4289 31-12-2019 18:43:17 -0.4 C 46 %
4290 31-12-2019 18:53:18 -0.4 C 46 %
4291 31-12-2019 19:03:17 -0.3 C 45 %
4292 31-12-2019 19:13:17 -0.1 C 46 %
4293 31-12-2019 19:23:18 0 C 45 %
4294 31-12-2019 19:33:17 0.1 C 45 %
4295 31-12-2019 19:43:17 0.2 C 45 %
4296 31-12-2019 19:53:17 0.4 C 45 %
4297 31-12-2019 20:03:18 0.5 C 45 %
4298 31-12-2019 20:13:18 0.5 C 45 %
4299 31-12-2019 20:23:17 0.4 C 45 %
4300 31-12-2019 20:33:17 0.4 C 45 %
Sensor: Nr:Datum:Temp:Feuchte:
Aussen-T/F 4301 31-12-2019 20:43:17 0.3 C 43 %
4302 31-12-2019 20:53:17 0.2 C 43 %
4303 31-12-2019 21:03:17 0.2 C 43 %
4304 31-12-2019 21:13:17 0.4 C 44 %
4305 31-12-2019 21:23:18 0.4 C 44 %
4306 31-12-2019 21:33:17 0.5 C 44 %
4307 31-12-2019 21:43:17 0.6 C 43 %
4308 31-12-2019 21:53:17 0.5 C 43 %
4309 31-12-2019 22:03:17 0.6 C 42 %
4310 31-12-2019 22:13:17 0.5 C 42 %
4311 31-12-2019 22:23:18 0.2 C 41 %
4312 31-12-2019 22:33:17 0 C 41 %
4313 31-12-2019 22:43:17 -0.2 C 42 %
4314 31-12-2019 22:53:17 -0.4 C 43 %
4315 31-12-2019 23:03:17 -0.3 C 44 %
4316 31-12-2019 23:13:17 -0.1 C 45 %
4317 31-12-2019 23:23:18 0 C 45 %
4318 31-12-2019 23:33:17 0 C 45 %
4319 31-12-2019 23:43:17 0.4 C 45 %
4320 31-12-2019 23:53:18 0.3 C 45 %
Sensor: Nr:Datum:Temp:Feuchte:
G-T/H 1 02-12-2019 00:00:17 8.7 C 71 %
2 02-12-2019 00:10:17 8.7 C 71 %
3 02-12-2019 00:20:17 8.7 C 71 %
4 02-12-2019 00:30:17 8.7 C 71 %
5 02-12-2019 00:40:17 8.7 C 71 %
6 02-12-2019 00:50:18 8.7 C 71 %
7 02-12-2019 01:00:17 8.7 C 71 %
8 02-12-2019 01:10:17 8.7 C 71 %
9 02-12-2019 01:20:17 8.7 C 71 %
10 02-12-2019 01:30:17 8.6 C 71 %
11 02-12-2019 01:40:17 8.7 C 71 %
12 02-12-2019 01:50:17 8.6 C 70 %
13 02-12-2019 02:00:18 8.6 C 70 %
14 02-12-2019 02:10:18 8.6 C 70 %
15 02-12-2019 02:20:17 8.6 C 70 %
16 02-12-2019 02:30:17 8.6 C 70 %
17 02-12-2019 02:40:17 8.6 C 70 %
18 02-12-2019 02:50:17 8.6 C 70 %
19 02-12-2019 03:00:17 8.6 C 70 %
20 02-12-2019 03:10:17 8.5 C 70 %
21 02-12-2019 03:20:17 8.5 C 70 %
22 02-12-2019 03:30:18 8.5 C 70 %
23 02-12-2019 03:40:18 8.5 C 70 %
24 02-12-2019 03:50:17 8.5 C 70 %
25 02-12-2019 04:00:18 8.5 C 70 %
Sensor: Nr:Datum:Temp:Feuchte:
G-T/H 26 02-12-2019 04:10:18 8.5 C 70 %
27 02-12-2019 04:20:17 8.5 C 70 %
28 02-12-2019 04:30:17 8.5 C 70 %
29 02-12-2019 04:40:17 8.5 C 70 %
30 02-12-2019 04:50:17 8.5 C 70 %
31 02-12-2019 05:00:17 8.5 C 70 %
32 02-12-2019 05:10:17 8.4 C 70 %
33 02-12-2019 05:20:17 8.4 C 70 %
34 02-12-2019 05:30:17 8.4 C 70 %
35 02-12-2019 05:40:17 8.4 C 70 %
36 02-12-2019 05:50:17 8.4 C 70 %
37 02-12-2019 06:00:17 8.4 C 70 %
38 02-12-2019 06:10:17 8.4 C 70 %
39 02-12-2019 06:20:17 8.4 C 70 %
40 02-12-2019 06:30:17 8.4 C 70 %
41 02-12-2019 06:40:17 8.4 C 69 %
42 02-12-2019 06:50:17 8.3 C 69 %
43 02-12-2019 07:00:17 8.3 C 69 %
44 02-12-2019 07:10:17 8.3 C 69 %
45 02-12-2019 07:20:17 8.3 C 69 %
46 02-12-2019 07:30:17 8.3 C 69 %
47 02-12-2019 07:40:17 8.3 C 69 %
48 02-12-2019 07:50:17 8.3 C 69 %
49 02-12-2019 08:00:17 8.3 C 69 %
50 02-12-2019 08:10:18 8.2 C 69 %
Sensor: Nr:Datum:Temp:Feuchte:
G-T/H 51 02-12-2019 08:20:17 8.2 C 69 %
52 02-12-2019 08:30:17 8.2 C 69 %
53 02-12-2019 08:40:17 8.2 C 69 %
54 02-12-2019 08:50:17 8.2 C 69 %
55 02-12-2019 09:00:17 8.2 C 69 %
56 02-12-2019 09:10:17 8.2 C 69 %
57 02-12-2019 09:20:17 8.2 C 69 %
58 02-12-2019 09:30:17 8.2 C 69 %
59 02-12-2019 09:40:17 8.2 C 69 %
60 02-12-2019 09:50:17 8.2 C 69 %
61 02-12-2019 10:00:17 8.2 C 69 %
62 02-12-2019 10:10:17 8.2 C 69 %
63 02-12-2019 10:20:17 8.2 C 69 %
64 02-12-2019 10:30:17 8.2 C 69 %
65 02-12-2019 10:40:17 8.2 C 69 %
66 02-12-2019 10:50:17 8.2 C 69 %
67 02-12-2019 11:00:17 8.2 C 69 %
68 02-12-2019 11:10:17 8.2 C 70 %
69 02-12-2019 11:20:17 8.2 C 70 %
70 02-12-2019 11:30:17 8.2 C 70 %
71 02-12-2019 11:40:18 8.2 C 70 %
72 02-12-2019 11:50:17 8.2 C 70 %
73 02-12-2019 12:00:18 8.2 C 70 %
74 02-12-2019 12:10:18 8.1 C 70 %
75 02-12-2019 12:20:17 8.1 C 70 %
Sensor: Nr:Datum:Temp:Feuchte:
G-T/H 76 02-12-2019 12:30:17 8.2 C 70 %
77 02-12-2019 12:40:17 8.2 C 70 %
78 02-12-2019 12:50:18 8.2 C 70 %
79 02-12-2019 13:00:17 8.2 C 70 %
80 02-12-2019 13:10:17 8.2 C 70 %
81 02-12-2019 13:20:17 8.2 C 70 %
82 02-12-2019 13:30:17 8.2 C 70 %
83 02-12-2019 13:40:17 8.2 C 70 %
84 02-12-2019 13:50:17 8.2 C 70 %
85 02-12-2019 14:00:17 8.2 C 70 %
86 02-12-2019 14:10:17 8.2 C 70 %
87 02-12-2019 14:20:17 8.2 C 70 %
88 02-12-2019 14:30:17 8.2 C 70 %
89 02-12-2019 14:40:17 8.2 C 71 %
90 02-12-2019 14:50:17 8.2 C 71 %
91 02-12-2019 15:00:18 8.2 C 71 %
92 02-12-2019 15:10:18 8.2 C 71 %
93 02-12-2019 15:20:17 8.2 C 71 %
94 02-12-2019 15:30:17 8.2 C 71 %
95 02-12-2019 15:40:17 8.3 C 71 %
96 02-12-2019 15:50:17 8.2 C 71 %
97 02-12-2019 16:00:18 8.3 C 71 %
98 02-12-2019 16:10:18 8.2 C 71 %
99 02-12-2019 16:20:17 8.2 C 71 %
100 02-12-2019 16:30:17 8.2 C 71 %
Sensor: Nr:Datum:Temp:Feuchte:
G-T/H 101 02-12-2019 16:40:17 8.2 C 71 %
102 02-12-2019 16:50:17 8.3 C 71 %
103 02-12-2019 17:00:17 8.2 C 71 %
104 02-12-2019 17:10:17 8.3 C 71 %
105 02-12-2019 17:20:17 8.3 C 71 %
106 02-12-2019 17:30:18 8.3 C 71 %
107 02-12-2019 17:40:18 8.3 C 72 %
108 02-12-2019 17:50:17 8.3 C 72 %
109 02-12-2019 18:01:17 8.3 C 72 %
110 02-12-2019 18:11:17 8.3 C 72 %
111 02-12-2019 18:21:17 8.3 C 72 %
112 02-12-2019 18:30:17 8.3 C 72 %
113 02-12-2019 18:40:17 8.3 C 72 %
114 02-12-2019 18:50:17 8.3 C 72 %
115 02-12-2019 19:00:17 8.3 C 72 %
116 02-12-2019 19:10:17 8.3 C 72 %
117 02-12-2019 19:21:17 8.4 C 72 %
118 02-12-2019 19:30:17 8.4 C 72 %
119 02-12-2019 19:40:17 8.4 C 72 %
120 02-12-2019 19:51:17 8.4 C 72 %
121 02-12-2019 20:01:17 8.4 C 72 %
122 02-12-2019 20:11:17 8.4 C 72 %
123 02-12-2019 20:21:17 8.4 C 72 %
124 02-12-2019 20:31:17 8.4 C 72 %
125 02-12-2019 20:40:17 8.4 C 72 %
Sensor: Nr:Datum:Temp:Feuchte:
G-T/H 126 02-12-2019 20:51:17 8.4 C 72 %
127 02-12-2019 21:00:17 8.4 C 72 %
128 02-12-2019 21:10:17 8.4 C 72 %
129 02-12-2019 21:21:17 8.4 C 72 %
130 02-12-2019 21:30:18 8.4 C 72 %
131 02-12-2019 21:40:18 8.4 C 72 %
132 02-12-2019 21:51:17 8.4 C 72 %
133 02-12-2019 22:01:17 8.4 C 72 %
134 02-12-2019 22:11:17 8.4 C 72 %
135 02-12-2019 22:21:17 8.4 C 72 %
136 02-12-2019 22:30:18 8.4 C 72 %
137 02-12-2019 22:40:18 8.4 C 72 %
138 02-12-2019 22:51:17 8.4 C 72 %
139 02-12-2019 23:01:17 8.4 C 72 %
140 02-12-2019 23:11:17 8.4 C 72 %
141 02-12-2019 23:21:17 8.4 C 72 %
142 02-12-2019 23:31:17 8.4 C 72 %
143 02-12-2019 23:41:17 8.4 C 72 %
144 02-12-2019 23:50:18 8.4 C 72 %
145 03-12-2019 00:01:17 8.4 C 72 %
146 03-12-2019 00:11:17 8.4 C 72 %
147 03-12-2019 00:21:17 8.4 C 72 %
148 03-12-2019 00:30:18 8.4 C 72 %
149 03-12-2019 00:40:18 8.4 C 72 %
150 03-12-2019 00:51:17 8.4 C 72 %
Sensor: Nr:Datum:Temp:Feuchte:
G-T/H 151 03-12-2019 01:01:18 8.4 C 72 %
152 03-12-2019 01:11:18 8.5 C 72 %
153 03-12-2019 01:21:17 8.5 C 72 %
154 03-12-2019 01:31:17 8.5 C 72 %
155 03-12-2019 01:41:17 8.5 C 72 %
156 03-12-2019 01:51:17 8.5 C 72 %
157 03-12-2019 02:01:17 8.5 C 72 %
158 03-12-2019 02:11:17 8.5 C 72 %
159 03-12-2019 02:21:17 8.5 C 72 %
160 03-12-2019 02:31:17 8.5 C 72 %
161 03-12-2019 02:41:17 8.5 C 72 %
162 03-12-2019 02:51:17 8.5 C 72 %
163 03-12-2019 03:01:17 8.5 C 73 %
164 03-12-2019 03:11:17 8.5 C 73 %
165 03-12-2019 03:21:17 8.5 C 73 %
166 03-12-2019 03:31:17 8.5 C 73 %
167 03-12-2019 03:41:17 8.5 C 73 %
168 03-12-2019 03:51:17 8.5 C 73 %
169 03-12-2019 04:01:17 8.5 C 73 %
170 03-12-2019 04:11:17 8.5 C 73 %
171 03-12-2019 04:21:17 8.5 C 73 %
172 03-12-2019 04:31:17 8.5 C 73 %
173 03-12-2019 04:41:17 8.5 C 73 %
174 03-12-2019 04:51:17 8.5 C 73 %
175 03-12-2019 05:01:17 8.5 C 73 %
Sensor: Nr:Datum:Temp:Feuchte:
G-T/H 176 03-12-2019 05:11:17 8.5 C 73 %
177 03-12-2019 05:21:17 8.5 C 73 %
178 03-12-2019 05:31:17 8.5 C 73 %
179 03-12-2019 05:41:17 8.5 C 73 %
180 03-12-2019 05:51:17 8.5 C 73 %
181 03-12-2019 06:01:18 8.5 C 73 %
182 03-12-2019 06:11:18 8.5 C 73 %
183 03-12-2019 06:21:17 8.5 C 73 %
184 03-12-2019 06:31:17 8.5 C 73 %
185 03-12-2019 06:41:17 8.5 C 73 %
186 03-12-2019 06:51:18 8.5 C 73 %
187 03-12-2019 07:01:17 8.5 C 73 %
188 03-12-2019 07:11:17 8.5 C 73 %
189 03-12-2019 07:21:17 8.5 C 73 %
190 03-12-2019 07:31:17 8.6 C 73 %
191 03-12-2019 07:41:17 8.5 C 73 %
192 03-12-2019 07:51:17 8.6 C 73 %
193 03-12-2019 08:01:17 8.6 C 73 %
194 03-12-2019 08:11:17 8.6 C 73 %
195 03-12-2019 08:21:17 8.6 C 73 %
196 03-12-2019 08:31:17 8.6 C 73 %
197 03-12-2019 08:41:17 8.6 C 73 %
198 03-12-2019 08:51:17 8.6 C 73 %
199 03-12-2019 09:01:17 8.6 C 73 %
200 03-12-2019 09:11:17 8.6 C 73 %
Sensor: Nr:Datum:Temp:Feuchte:
G-T/H 201 03-12-2019 09:21:17 8.6 C 73 %
202 03-12-2019 09:31:17 8.6 C 73 %
203 03-12-2019 09:41:17 8.6 C 73 %
204 03-12-2019 09:51:17 8.6 C 73 %
205 03-12-2019 10:01:17 8.6 C 73 %
206 03-12-2019 10:11:17 8.6 C 73 %
207 03-12-2019 10:21:17 8.6 C 73 %
208 03-12-2019 10:31:17 8.6 C 73 %
209 03-12-2019 10:41:17 8.6 C 73 %
210 03-12-2019 10:51:17 8.7 C 73 %
211 03-12-2019 11:01:18 8.6 C 73 %
212 03-12-2019 11:11:18 8.7 C 73 %
213 03-12-2019 11:21:17 8.7 C 73 %
214 03-12-2019 11:31:17 8.7 C 73 %
215 03-12-2019 11:41:17 8.7 C 73 %
216 03-12-2019 11:51:17 8.7 C 74 %
217 03-12-2019 12:01:17 8.7 C 74 %
218 03-12-2019 12:11:17 8.7 C 74 %
219 03-12-2019 12:21:17 8.7 C 74 %
220 03-12-2019 12:31:17 8.7 C 74 %
221 03-12-2019 12:41:17 8.7 C 74 %
222 03-12-2019 12:51:18 8.8 C 74 %
223 03-12-2019 13:01:17 8.8 C 74 %
224 03-12-2019 13:11:17 8.7 C 74 %
225 03-12-2019 13:21:17 8.7 C 74 %
Sensor: Nr:Datum:Temp:Feuchte:
G-T/H 226 03-12-2019 13:31:17 8.7 C 74 %
227 03-12-2019 13:41:17 8.8 C 74 %
228 03-12-2019 13:51:18 8.8 C 74 %
229 03-12-2019 14:01:17 8.8 C 74 %
230 03-12-2019 14:11:17 8.8 C 74 %
231 03-12-2019 14:21:17 8.8 C 74 %
232 03-12-2019 14:31:17 8.8 C 74 %
233 03-12-2019 14:41:17 8.8 C 74 %
234 03-12-2019 14:51:18 8.8 C 74 %
235 03-12-2019 15:01:17 8.9 C 74 %
236 03-12-2019 15:11:17 8.9 C 74 %
237 03-12-2019 15:21:17 8.9 C 74 %
238 03-12-2019 15:31:17 8.9 C 74 %
239 03-12-2019 15:41:17 8.9 C 74 %
240 03-12-2019 15:51:17 8.9 C 74 %
241 03-12-2019 16:01:17 8.9 C 74 %
242 03-12-2019 16:11:17 8.9 C 74 %
243 03-12-2019 16:21:17 8.9 C 74 %
244 03-12-2019 16:31:18 8.9 C 74 %
245 03-12-2019 16:41:18 8.9 C 74 %
246 03-12-2019 16:51:17 8.9 C 74 %
247 03-12-2019 17:01:18 8.9 C 74 %
248 03-12-2019 17:11:18 8.9 C 74 %
249 03-12-2019 17:21:17 9 C 74 %
250 03-12-2019 17:31:17 9 C 74 %
Sensor: Nr:Datum:Temp:Feuchte:
G-T/H 251 03-12-2019 17:41:17 9 C 74 %
252 03-12-2019 17:51:17 9 C 74 %
253 03-12-2019 18:01:18 9 C 74 %
254 03-12-2019 18:11:18 9 C 74 %
255 03-12-2019 18:21:17 9 C 74 %
256 03-12-2019 18:31:18 9 C 74 %
257 03-12-2019 18:41:18 9 C 74 %
258 03-12-2019 18:51:17 9 C 74 %
259 03-12-2019 19:01:17 9 C 74 %
260 03-12-2019 19:11:17 9 C 74 %
261 03-12-2019 19:21:17 9 C 74 %
262 03-12-2019 19:31:17 9 C 74 %
263 03-12-2019 19:41:17 9.1 C 74 %
264 03-12-2019 19:51:17 9.1 C 74 %
265 03-12-2019 20:01:17 9.1 C 74 %
266 03-12-2019 20:11:17 9.1 C 74 %
267 03-12-2019 20:21:18 9.1 C 74 %
268 03-12-2019 20:31:17 9.1 C 74 %
269 03-12-2019 20:41:18 9.1 C 74 %
270 03-12-2019 20:51:17 9.1 C 74 %
271 03-12-2019 21:01:17 9.1 C 74 %
272 03-12-2019 21:11:17 9.1 C 74 %
273 03-12-2019 21:21:17 9.1 C 74 %
274 03-12-2019 21:31:17 9.1 C 74 %
275 03-12-2019 21:41:17 9.1 C 74 %
Sensor: Nr:Datum:Temp:Feuchte:
G-T/H 276 03-12-2019 21:51:17 9.1 C 74 %
277 03-12-2019 22:01:17 9.1 C 74 %
278 03-12-2019 22:11:17 9.1 C 74 %
279 03-12-2019 22:21:18 9.1 C 74 %
280 03-12-2019 22:31:18 9.1 C 74 %
281 03-12-2019 22:41:18 9.1 C 74 %
282 03-12-2019 22:51:17 9.1 C 74 %
283 03-12-2019 23:01:18 9.1 C 74 %
284 03-12-2019 23:11:18 9.1 C 73 %
285 03-12-2019 23:21:17 9.1 C 73 %
286 03-12-2019 23:31:17 9.1 C 73 %
287 03-12-2019 23:41:17 9.1 C 73 %
288 03-12-2019 23:51:17 9.1 C 73 %
289 04-12-2019 00:01:18 9.1 C 73 %
290 04-12-2019 00:11:18 9.1 C 73 %
291 04-12-2019 00:21:17 9.1 C 73 %
292 04-12-2019 00:31:17 9.1 C 73 %
293 04-12-2019 00:41:17 9.1 C 73 %
294 04-12-2019 00:51:17 9.1 C 73 %
295 04-12-2019 01:01:18 9.1 C 73 %
296 04-12-2019 01:11:18 9.1 C 73 %
297 04-12-2019 01:21:17 9.1 C 73 %
298 04-12-2019 01:31:17 9.1 C 73 %
299 04-12-2019 01:41:17 9.1 C 73 %
300 04-12-2019 01:51:18 9 C 73 %
Sensor: Nr:Datum:Temp:Feuchte:
G-T/H 301 04-12-2019 02:01:17 9 C 73 %
302 04-12-2019 02:11:17 9 C 72 %
303 04-12-2019 02:21:17 9 C 72 %
304 04-12-2019 02:31:18 9 C 72 %
305 04-12-2019 02:41:18 9 C 72 %
306 04-12-2019 02:51:17 9 C 72 %
307 04-12-2019 03:01:18 9 C 72 %
308 04-12-2019 03:11:18 9 C 72 %
309 04-12-2019 03:21:17 9 C 72 %
310 04-12-2019 03:31:17 9 C 72 %
311 04-12-2019 03:41:17 9 C 72 %
312 04-12-2019 03:51:17 9 C 72 %
313 04-12-2019 04:01:18 9 C 72 %
314 04-12-2019 04:11:18 9 C 72 %
315 04-12-2019 04:21:17 8.9 C 73 %
316 04-12-2019 04:31:17 8.9 C 73 %
317 04-12-2019 04:41:17 8.9 C 73 %
318 04-12-2019 04:51:17 8.9 C 73 %
319 04-12-2019 05:01:17 8.9 C 73 %
320 04-12-2019 05:11:17 8.9 C 73 %
321 04-12-2019 05:21:17 8.9 C 73 %
322 04-12-2019 05:31:17 8.9 C 73 %
323 04-12-2019 05:41:17 8.9 C 73 %
324 04-12-2019 05:51:18 8.9 C 73 %
325 04-12-2019 06:01:17 8.9 C 73 %
Sensor: Nr:Datum:Temp:Feuchte:
G-T/H 326 04-12-2019 06:11:17 8.9 C 73 %
327 04-12-2019 06:21:17 8.9 C 73 %
328 04-12-2019 06:31:17 8.9 C 73 %
329 04-12-2019 06:41:18 8.8 C 73 %
330 04-12-2019 06:51:17 8.8 C 73 %
331 04-12-2019 07:01:17 8.9 C 73 %
332 04-12-2019 07:11:17 8.9 C 73 %
333 04-12-2019 07:21:18 8.8 C 73 %
334 04-12-2019 07:31:17 8.8 C 73 %
335 04-12-2019 07:41:17 8.8 C 73 %
336 04-12-2019 07:51:17 8.8 C 73 %
337 04-12-2019 08:01:17 8.8 C 73 %
338 04-12-2019 08:11:17 8.8 C 73 %
339 04-12-2019 08:21:17 8.8 C 73 %
340 04-12-2019 08:31:17 8.8 C 73 %
341 04-12-2019 08:41:17 8.8 C 73 %
342 04-12-2019 08:51:17 8.8 C 73 %
343 04-12-2019 09:01:18 8.8 C 73 %
344 04-12-2019 09:11:18 8.7 C 73 %
345 04-12-2019 09:21:18 8.7 C 73 %
346 04-12-2019 09:31:17 8.7 C 73 %
347 04-12-2019 09:41:17 8.7 C 73 %
348 04-12-2019 09:51:17 8.7 C 73 %
349 04-12-2019 10:01:17 8.7 C 73 %
350 04-12-2019 10:11:18 8.7 C 73 %
Sensor: Nr:Datum:Temp:Feuchte:
G-T/H 351 04-12-2019 10:21:17 8.7 C 73 %
352 04-12-2019 10:31:17 8.7 C 72 %
353 04-12-2019 10:41:17 8.7 C 72 %
354 04-12-2019 10:51:18 8.7 C 72 %
355 04-12-2019 11:01:17 8.7 C 72 %
356 04-12-2019 11:11:17 8.7 C 72 %
357 04-12-2019 11:21:17 8.7 C 72 %
358 04-12-2019 11:31:18 8.7 C 72 %
359 04-12-2019 11:41:18 8.7 C 72 %
360 04-12-2019 11:51:17 8.7 C 72 %
361 04-12-2019 12:01:17 8.7 C 72 %
362 04-12-2019 12:11:17 8.7 C 72 %
363 04-12-2019 12:21:18 8.7 C 72 %
364 04-12-2019 12:31:17